<?xml version="1.0" encoding="UTF-8" standalone="no" ?>
<gpx xmlns="http://www.topografix.com/GPX/1/1" xmlns:xsi="http://www.w3.org/2001/XMLSchema-instance" xsi:schemaLocation="http://www.topografix.com/GPX/1/1 http://www.topografix.com/GPX/1/1/gpx.xsd" version="1.1" creator="VisuGPX - https://www.visugpx.com">
  <metadata>
    <name>3 de Revel à Castelnaudary par la Source</name>
  </metadata>
  <wpt lat="43.43074" lon="2.04569">
    <ele>456.3</ele>
    <name><![CDATA[vue]]></name>
  </wpt>
  <wpt lat="43.40952" lon="2.07716">
    <ele>593.9</ele>
  </wpt>
  <wpt lat="43.40961" lon="2.07972">
    <ele>606.5</ele>
  </wpt>
  <wpt lat="43.40976" lon="2.08114">
    <ele>611.8</ele>
  </wpt>
  <wpt lat="43.40988" lon="2.08052">
    <ele>612.9</ele>
  </wpt>
  <wpt lat="43.40978" lon="2.08383">
    <ele>597.2</ele>
  </wpt>
  <wpt lat="43.40552" lon="2.09273">
    <ele>600.4</ele>
  </wpt>
  <wpt lat="43.40532" lon="2.09451">
    <ele>563</ele>
  </wpt>
  <wpt lat="43.39743" lon="2.17287">
    <ele>643.4</ele>
  </wpt>
  <wpt lat="43.39385" lon="2.16514">
    <ele>628.8</ele>
  </wpt>
  <wpt lat="43.3963" lon="2.22611">
    <ele>655.7</ele>
  </wpt>
  <wpt lat="43.3313" lon="2.03761">
    <ele>175.5</ele>
  </wpt>
  <trk>
    <name><![CDATA[3 de Revel à Castelnaudary par la Source]]></name>
    <extensions>
      <line xmlns="http://www.topografix.com/GPX/gpx_style/0/2">
        <color>0000FF</color>
        <width>4</width>
      </line>
    </extensions>
    <trkseg>
      <trkpt lat="43.45441" lon="2.01542">
        <ele>224.743407</ele>
        <time>2025-04-28T17:19:36.487Z</time>
      </trkpt>
      <trkpt lat="43.45457" lon="2.01516">
        <ele>224.743407</ele>
        <time>2025-04-28T17:19:41.552Z</time>
      </trkpt>
      <trkpt lat="43.45487" lon="2.01464">
        <ele>224.743407</ele>
        <time>2025-04-28T17:19:51.493Z</time>
      </trkpt>
      <trkpt lat="43.45496" lon="2.01451">
        <ele>224.743407</ele>
        <time>2025-04-28T17:19:54.207Z</time>
      </trkpt>
      <trkpt lat="43.45485" lon="2.01438">
        <ele>224.75392</ele>
        <time>2025-04-28T17:19:57.232Z</time>
      </trkpt>
      <trkpt lat="43.45472" lon="2.01423">
        <ele>224.771578</ele>
        <time>2025-04-28T17:20:00.761Z</time>
      </trkpt>
      <trkpt lat="43.45443" lon="2.01435">
        <ele>224.802857</ele>
        <time>2025-04-28T17:20:07.087Z</time>
      </trkpt>
      <trkpt lat="43.45436" lon="2.01435">
        <ele>224.810191</ele>
        <time>2025-04-28T17:20:08.612Z</time>
      </trkpt>
      <trkpt lat="43.45421" lon="2.01425">
        <ele>224.828024</ele>
        <time>2025-04-28T17:20:12.312Z</time>
      </trkpt>
      <trkpt lat="43.45414" lon="2.01416">
        <ele>224.838025</ele>
        <time>2025-04-28T17:20:14.398Z</time>
      </trkpt>
      <trkpt lat="43.45405" lon="2.01405">
        <ele>224.850418</ele>
        <time>2025-04-28T17:20:17.028Z</time>
      </trkpt>
      <trkpt lat="43.45394" lon="2.01382">
        <ele>224.87134</ele>
        <time>2025-04-28T17:20:21.427Z</time>
      </trkpt>
      <trkpt lat="43.45382" lon="2.01344">
        <ele>224.902917</ele>
        <time>2025-04-28T17:20:28.128Z</time>
      </trkpt>
      <trkpt lat="43.45372" lon="2.01306">
        <ele>224.928224</ele>
        <time>2025-04-28T17:20:34.380Z</time>
      </trkpt>
      <trkpt lat="43.45365" lon="2.01294">
        <ele>224.901858</ele>
        <time>2025-04-28T17:20:36.812Z</time>
      </trkpt>
      <trkpt lat="43.45308" lon="2.01226">
        <ele>224.73125</ele>
        <time>2025-04-28T17:20:52.356Z</time>
      </trkpt>
      <trkpt lat="43.45289" lon="2.01206">
        <ele>224.678382</ele>
        <time>2025-04-28T17:20:57.182Z</time>
      </trkpt>
      <trkpt lat="43.45284" lon="2.01206">
        <ele>224.667294</ele>
        <time>2025-04-28T17:20:58.201Z</time>
      </trkpt>
      <trkpt lat="43.45274" lon="2.0119">
        <ele>224.63165</ele>
        <time>2025-04-28T17:21:01.829Z</time>
      </trkpt>
      <trkpt lat="43.45254" lon="2.01145">
        <ele>224.544446</ele>
        <time>2025-04-28T17:21:10.738Z</time>
      </trkpt>
      <trkpt lat="43.45246" lon="2.01121">
        <ele>224.607239</ele>
        <time>2025-04-28T17:21:15.063Z</time>
      </trkpt>
      <trkpt lat="43.45238" lon="2.0108">
        <ele>224.866188</ele>
        <time>2025-04-28T17:21:22.416Z</time>
      </trkpt>
      <trkpt lat="43.45237" lon="2.01039">
        <ele>225.115536</ele>
        <time>2025-04-28T17:21:29.722Z</time>
      </trkpt>
      <trkpt lat="43.45232" lon="2.00998">
        <ele>225.369514</ele>
        <time>2025-04-28T17:21:37.360Z</time>
      </trkpt>
      <trkpt lat="43.45223" lon="2.0091">
        <ele>225.905717</ele>
        <time>2025-04-28T17:21:53.708Z</time>
      </trkpt>
      <trkpt lat="43.4522" lon="2.00903">
        <ele>225.958253</ele>
        <time>2025-04-28T17:21:55.315Z</time>
      </trkpt>
      <trkpt lat="43.45211" lon="2.00892">
        <ele>226.117947</ele>
        <time>2025-04-28T17:21:58.480Z</time>
      </trkpt>
      <trkpt lat="43.45182" lon="2.00873">
        <ele>226.857783</ele>
        <time>2025-04-28T17:22:06.817Z</time>
      </trkpt>
      <trkpt lat="43.45173" lon="2.00853">
        <ele>227.254567</ele>
        <time>2025-04-28T17:22:11.355Z</time>
      </trkpt>
      <trkpt lat="43.45173" lon="2.00833">
        <ele>227.593272</ele>
        <time>2025-04-28T17:22:15.232Z</time>
      </trkpt>
      <trkpt lat="43.45165" lon="2.00831">
        <ele>227.781254</ele>
        <time>2025-04-28T17:22:18.044Z</time>
      </trkpt>
      <trkpt lat="43.45152" lon="2.00828">
        <ele>228.079202</ele>
        <time>2025-04-28T17:22:22.513Z</time>
      </trkpt>
      <trkpt lat="43.4515" lon="2.00826">
        <ele>228.147071</ele>
        <time>2025-04-28T17:22:23.530Z</time>
      </trkpt>
      <trkpt lat="43.45145" lon="2.00822">
        <ele>228.275787</ele>
        <time>2025-04-28T17:22:25.480Z</time>
      </trkpt>
      <trkpt lat="43.45133" lon="2.00821">
        <ele>228.555918</ele>
        <time>2025-04-28T17:22:29.681Z</time>
      </trkpt>
      <trkpt lat="43.45123" lon="2.00811">
        <ele>228.845488</ele>
        <time>2025-04-28T17:22:32.808Z</time>
      </trkpt>
      <trkpt lat="43.45106" lon="2.00798">
        <ele>229.297351</ele>
        <time>2025-04-28T17:22:37.878Z</time>
      </trkpt>
      <trkpt lat="43.45013" lon="2.00727">
        <ele>232.718695</ele>
        <time>2025-04-28T17:23:06.613Z</time>
      </trkpt>
      <trkpt lat="43.45003" lon="2.00719">
        <ele>233.162465</ele>
        <time>2025-04-28T17:23:09.835Z</time>
      </trkpt>
      <trkpt lat="43.44934" lon="2.00669">
        <ele>236.079457</ele>
        <time>2025-04-28T17:23:31.343Z</time>
      </trkpt>
      <trkpt lat="43.44922" lon="2.00655">
        <ele>236.658957</ele>
        <time>2025-04-28T17:23:35.909Z</time>
      </trkpt>
      <trkpt lat="43.44915" lon="2.00639">
        <ele>237.449263</ele>
        <time>2025-04-28T17:23:40.170Z</time>
      </trkpt>
      <trkpt lat="43.44889" lon="2.00653">
        <ele>239.63254</ele>
        <time>2025-04-28T17:23:48.421Z</time>
      </trkpt>
      <trkpt lat="43.44883" lon="2.00641">
        <ele>240.458084</ele>
        <time>2025-04-28T17:23:51.637Z</time>
      </trkpt>
      <trkpt lat="43.44813" lon="2.00589">
        <ele>246.789231</ele>
        <time>2025-04-28T17:24:19.502Z</time>
      </trkpt>
      <trkpt lat="43.44801" lon="2.00569">
        <ele>248.266959</ele>
        <time>2025-04-28T17:24:27.077Z</time>
      </trkpt>
      <trkpt lat="43.44779" lon="2.00571">
        <ele>250.041688</ele>
        <time>2025-04-28T17:24:36.781Z</time>
      </trkpt>
      <trkpt lat="43.44635" lon="2.00602">
        <ele>269.866779</ele>
        <time>2025-04-28T17:25:50.667Z</time>
      </trkpt>
      <trkpt lat="43.44592" lon="2.00647">
        <ele>277.617526</ele>
        <time>2025-04-28T17:26:23.440Z</time>
      </trkpt>
      <trkpt lat="43.4457" lon="2.00655">
        <ele>281.773443</ele>
        <time>2025-04-28T17:26:38.304Z</time>
      </trkpt>
      <trkpt lat="43.4448" lon="2.00749">
        <ele>302.491403</ele>
        <time>2025-04-28T17:27:55.310Z</time>
      </trkpt>
      <trkpt lat="43.44471" lon="2.00747">
        <ele>304.173229</ele>
        <time>2025-04-28T17:28:01.532Z</time>
      </trkpt>
      <trkpt lat="43.44446" lon="2.00713">
        <ele>310.383698</ele>
        <time>2025-04-28T17:28:24.286Z</time>
      </trkpt>
      <trkpt lat="43.44438" lon="2.0071">
        <ele>311.480803</ele>
        <time>2025-04-28T17:28:29.238Z</time>
      </trkpt>
      <trkpt lat="43.4442" lon="2.00723">
        <ele>314.348699</ele>
        <time>2025-04-28T17:28:41.428Z</time>
      </trkpt>
      <trkpt lat="43.44392" lon="2.00759">
        <ele>319.530189</ele>
        <time>2025-04-28T17:29:01.707Z</time>
      </trkpt>
      <trkpt lat="43.44367" lon="2.00818">
        <ele>326.266919</ele>
        <time>2025-04-28T17:29:26.409Z</time>
      </trkpt>
      <trkpt lat="43.44338" lon="2.00874">
        <ele>333.055404</ele>
        <time>2025-04-28T17:29:48.753Z</time>
      </trkpt>
      <trkpt lat="43.44323" lon="2.00909">
        <ele>336.70577</ele>
        <time>2025-04-28T17:30:00.506Z</time>
      </trkpt>
      <trkpt lat="43.44305" lon="2.00941">
        <ele>340.243756</ele>
        <time>2025-04-28T17:30:13.467Z</time>
      </trkpt>
      <trkpt lat="43.44284" lon="2.00996">
        <ele>345.619584</ele>
        <time>2025-04-28T17:30:35.776Z</time>
      </trkpt>
      <trkpt lat="43.44267" lon="2.0102">
        <ele>348.523219</ele>
        <time>2025-04-28T17:30:48.137Z</time>
      </trkpt>
      <trkpt lat="43.44231" lon="2.01047">
        <ele>353.446503</ele>
        <time>2025-04-28T17:31:08.321Z</time>
      </trkpt>
      <trkpt lat="43.44194" lon="2.01064">
        <ele>357.106082</ele>
        <time>2025-04-28T17:31:25.910Z</time>
      </trkpt>
      <trkpt lat="43.44163" lon="2.01087">
        <ele>359.620382</ele>
        <time>2025-04-28T17:31:41.532Z</time>
      </trkpt>
      <trkpt lat="43.44149" lon="2.01106">
        <ele>361.073527</ele>
        <time>2025-04-28T17:31:50.092Z</time>
      </trkpt>
      <trkpt lat="43.44137" lon="2.01143">
        <ele>363.184431</ele>
        <time>2025-04-28T17:32:00.558Z</time>
      </trkpt>
      <trkpt lat="43.44112" lon="2.01189">
        <ele>366.176098</ele>
        <time>2025-04-28T17:32:12.319Z</time>
      </trkpt>
      <trkpt lat="43.44073" lon="2.01283">
        <ele>368.794467</ele>
        <time>2025-04-28T17:32:32.042Z</time>
      </trkpt>
      <trkpt lat="43.44043" lon="2.01351">
        <ele>369.125233</ele>
        <time>2025-04-28T17:32:44.822Z</time>
      </trkpt>
      <trkpt lat="43.44021" lon="2.01433">
        <ele>369.486208</ele>
        <time>2025-04-28T17:32:58.461Z</time>
      </trkpt>
      <trkpt lat="43.44009" lon="2.01528">
        <ele>368.626143</ele>
        <time>2025-04-28T17:33:14.458Z</time>
      </trkpt>
      <trkpt lat="43.43999" lon="2.01664">
        <ele>367.020303</ele>
        <time>2025-04-28T17:33:35.204Z</time>
      </trkpt>
      <trkpt lat="43.43997" lon="2.01684">
        <ele>366.788414</ele>
        <time>2025-04-28T17:33:37.665Z</time>
      </trkpt>
      <trkpt lat="43.43973" lon="2.017">
        <ele>365.27884</ele>
        <time>2025-04-28T17:33:41.948Z</time>
      </trkpt>
      <trkpt lat="43.43896" lon="2.01778">
        <ele>358.219218</ele>
        <time>2025-04-28T17:33:55.882Z</time>
      </trkpt>
      <trkpt lat="43.4388" lon="2.01813">
        <ele>355.975108</ele>
        <time>2025-04-28T17:34:00.243Z</time>
      </trkpt>
      <trkpt lat="43.43864" lon="2.01871">
        <ele>352.922279</ele>
        <time>2025-04-28T17:34:06.805Z</time>
      </trkpt>
      <trkpt lat="43.43859" lon="2.01912">
        <ele>351.569947</ele>
        <time>2025-04-28T17:34:11.287Z</time>
      </trkpt>
      <trkpt lat="43.43851" lon="2.01895">
        <ele>350.924234</ele>
        <time>2025-04-28T17:34:13.495Z</time>
      </trkpt>
      <trkpt lat="43.43842" lon="2.01875">
        <ele>350.142189</ele>
        <time>2025-04-28T17:34:16.270Z</time>
      </trkpt>
      <trkpt lat="43.43828" lon="2.01889">
        <ele>349.361282</ele>
        <time>2025-04-28T17:34:28.478Z</time>
      </trkpt>
      <trkpt lat="43.43818" lon="2.019">
        <ele>348.800818</ele>
        <time>2025-04-28T17:34:37.200Z</time>
      </trkpt>
      <trkpt lat="43.43809" lon="2.01908">
        <ele>348.341166</ele>
        <time>2025-04-28T17:34:40.234Z</time>
      </trkpt>
      <trkpt lat="43.43788" lon="2.01928">
        <ele>347.208027</ele>
        <time>2025-04-28T17:34:57.899Z</time>
      </trkpt>
      <trkpt lat="43.43786" lon="2.0192">
        <ele>346.934048</ele>
        <time>2025-04-28T17:35:05.510Z</time>
      </trkpt>
      <trkpt lat="43.43788" lon="2.01928">
        <ele>346.660068</ele>
        <time>2025-04-28T17:35:13.117Z</time>
      </trkpt>
      <trkpt lat="43.43618" lon="2.02088">
        <ele>344.109759</ele>
        <time>2025-04-28T17:37:36.324Z</time>
      </trkpt>
      <trkpt lat="43.43614" lon="2.02093">
        <ele>344.10169</ele>
        <time>2025-04-28T17:37:40.332Z</time>
      </trkpt>
      <trkpt lat="43.43588" lon="2.02118">
        <ele>344.444936</ele>
        <time>2025-04-28T17:38:02.124Z</time>
      </trkpt>
      <trkpt lat="43.43526" lon="2.02183">
        <ele>345.296567</ele>
        <time>2025-04-28T17:38:56.110Z</time>
      </trkpt>
      <trkpt lat="43.43465" lon="2.02284">
        <ele>346.636057</ele>
        <time>2025-04-28T17:40:02.609Z</time>
      </trkpt>
      <trkpt lat="43.43313" lon="2.02535">
        <ele>351.149957</ele>
        <time>2025-04-28T17:42:47.415Z</time>
      </trkpt>
      <trkpt lat="43.43314" lon="2.02539">
        <ele>351.200496</ele>
        <time>2025-04-28T17:42:49.942Z</time>
      </trkpt>
      <trkpt lat="43.43347" lon="2.02585">
        <ele>351.849847</ele>
        <time>2025-04-28T17:43:22.464Z</time>
      </trkpt>
      <trkpt lat="43.43361" lon="2.02599">
        <ele>352.095932</ele>
        <time>2025-04-28T17:43:34.871Z</time>
      </trkpt>
      <trkpt lat="43.43392" lon="2.02621">
        <ele>352.535257</ele>
        <time>2025-04-28T17:43:58.534Z</time>
      </trkpt>
      <trkpt lat="43.43434" lon="2.0268">
        <ele>353.053436</ele>
        <time>2025-04-28T17:44:40.379Z</time>
      </trkpt>
      <trkpt lat="43.43447" lon="2.02711">
        <ele>353.276297</ele>
        <time>2025-04-28T17:44:58.390Z</time>
      </trkpt>
      <trkpt lat="43.43452" lon="2.02766">
        <ele>353.627482</ele>
        <time>2025-04-28T17:45:26.733Z</time>
      </trkpt>
      <trkpt lat="43.43453" lon="2.02824">
        <ele>353.987104</ele>
        <time>2025-04-28T17:45:55.764Z</time>
      </trkpt>
      <trkpt lat="43.43465" lon="2.02909">
        <ele>354.532933</ele>
        <time>2025-04-28T17:46:39.233Z</time>
      </trkpt>
      <trkpt lat="43.43441" lon="2.02958">
        <ele>354.906133</ele>
        <time>2025-04-28T17:47:08.895Z</time>
      </trkpt>
      <trkpt lat="43.43439" lon="2.02974">
        <ele>355.013535</ele>
        <time>2025-04-28T17:47:17.449Z</time>
      </trkpt>
      <trkpt lat="43.43441" lon="2.0302">
        <ele>355.306693</ele>
        <time>2025-04-28T17:47:40.799Z</time>
      </trkpt>
      <trkpt lat="43.43437" lon="2.03036">
        <ele>355.413167</ele>
        <time>2025-04-28T17:47:49.234Z</time>
      </trkpt>
      <trkpt lat="43.43426" lon="2.0305">
        <ele>355.545991</ele>
        <time>2025-04-28T17:47:59.794Z</time>
      </trkpt>
      <trkpt lat="43.43386" lon="2.03064">
        <ele>355.381756</ele>
        <time>2025-04-28T17:48:27.924Z</time>
      </trkpt>
      <trkpt lat="43.4338" lon="2.0308">
        <ele>355.296841</ele>
        <time>2025-04-28T17:48:37.161Z</time>
      </trkpt>
      <trkpt lat="43.43386" lon="2.03086">
        <ele>355.245578</ele>
        <time>2025-04-28T17:48:42.743Z</time>
      </trkpt>
      <trkpt lat="43.43458" lon="2.03105">
        <ele>354.778084</ele>
        <time>2025-04-28T17:49:33.668Z</time>
      </trkpt>
      <trkpt lat="43.43477" lon="2.03114">
        <ele>354.649928</ele>
        <time>2025-04-28T17:49:47.662Z</time>
      </trkpt>
      <trkpt lat="43.43485" lon="2.03124">
        <ele>354.583367</ele>
        <time>2025-04-28T17:49:54.901Z</time>
      </trkpt>
      <trkpt lat="43.43497" lon="2.03163">
        <ele>354.491788</ele>
        <time>2025-04-28T17:50:16.168Z</time>
      </trkpt>
      <trkpt lat="43.43498" lon="2.03191">
        <ele>354.570207</ele>
        <time>2025-04-28T17:50:30.605Z</time>
      </trkpt>
      <trkpt lat="43.43489" lon="2.03286">
        <ele>354.831422</ele>
        <time>2025-04-28T17:51:18.753Z</time>
      </trkpt>
      <trkpt lat="43.43491" lon="2.03321">
        <ele>354.928042</ele>
        <time>2025-04-28T17:51:36.589Z</time>
      </trkpt>
      <trkpt lat="43.43491" lon="2.03326">
        <ele>354.941503</ele>
        <time>2025-04-28T17:51:39.080Z</time>
      </trkpt>
      <trkpt lat="43.4347" lon="2.03443">
        <ele>355.304775</ele>
        <time>2025-04-28T17:52:39.852Z</time>
      </trkpt>
      <trkpt lat="43.43478" lon="2.03539">
        <ele>355.632757</ele>
        <time>2025-04-28T17:53:28.532Z</time>
      </trkpt>
      <trkpt lat="43.43478" lon="2.0362">
        <ele>355.910351</ele>
        <time>2025-04-28T17:54:09.779Z</time>
      </trkpt>
      <trkpt lat="43.4349" lon="2.03678">
        <ele>356.133661</ele>
        <time>2025-04-28T17:54:40.154Z</time>
      </trkpt>
      <trkpt lat="43.43488" lon="2.03703">
        <ele>356.23173</ele>
        <time>2025-04-28T17:54:53.060Z</time>
      </trkpt>
      <trkpt lat="43.43481" lon="2.0373">
        <ele>356.340297</ele>
        <time>2025-04-28T17:55:07.313Z</time>
      </trkpt>
      <trkpt lat="43.4348" lon="2.03775">
        <ele>356.514527</ele>
        <time>2025-04-28T17:55:30.204Z</time>
      </trkpt>
      <trkpt lat="43.4346" lon="2.03845">
        <ele>356.801287</ele>
        <time>2025-04-28T17:56:07.842Z</time>
      </trkpt>
      <trkpt lat="43.43449" lon="2.03897">
        <ele>357.198016</ele>
        <time>2025-04-28T17:56:35.408Z</time>
      </trkpt>
      <trkpt lat="43.43432" lon="2.03931">
        <ele>357.69954</ele>
        <time>2025-04-28T17:56:56.186Z</time>
      </trkpt>
      <trkpt lat="43.43427" lon="2.03955">
        <ele>358.004084</ele>
        <time>2025-04-28T17:57:08.853Z</time>
      </trkpt>
      <trkpt lat="43.43428" lon="2.03974">
        <ele>358.22836</ele>
        <time>2025-04-28T17:57:18.117Z</time>
      </trkpt>
      <trkpt lat="43.43432" lon="2.03986">
        <ele>358.399691</ele>
        <time>2025-04-28T17:57:25.208Z</time>
      </trkpt>
      <trkpt lat="43.43436" lon="2.04049">
        <ele>359.166295</ele>
        <time>2025-04-28T17:57:41.178Z</time>
      </trkpt>
      <trkpt lat="43.43433" lon="2.04055">
        <ele>359.248577</ele>
        <time>2025-04-28T17:57:42.961Z</time>
      </trkpt>
      <trkpt lat="43.43436" lon="2.04065">
        <ele>359.376108</ele>
        <time>2025-04-28T17:57:45.693Z</time>
      </trkpt>
      <trkpt lat="43.43438" lon="2.04072">
        <ele>359.470513</ele>
        <time>2025-04-28T17:57:47.758Z</time>
      </trkpt>
      <trkpt lat="43.43445" lon="2.04082">
        <ele>359.632518</ele>
        <time>2025-04-28T17:57:51.309Z</time>
      </trkpt>
      <trkpt lat="43.43435" lon="2.04083">
        <ele>359.793663</ele>
        <time>2025-04-28T17:57:54.031Z</time>
      </trkpt>
      <trkpt lat="43.43428" lon="2.0408">
        <ele>359.911909</ele>
        <time>2025-04-28T17:57:56.026Z</time>
      </trkpt>
      <trkpt lat="43.43397" lon="2.04066">
        <ele>361.67869</ele>
        <time>2025-04-28T17:58:05.462Z</time>
      </trkpt>
      <trkpt lat="43.43387" lon="2.04056">
        <ele>362.359978</ele>
        <time>2025-04-28T17:58:09.036Z</time>
      </trkpt>
      <trkpt lat="43.43371" lon="2.04017">
        <ele>364.175245</ele>
        <time>2025-04-28T17:58:18.650Z</time>
      </trkpt>
      <trkpt lat="43.43366" lon="2.04005">
        <ele>364.738337</ele>
        <time>2025-04-28T17:58:21.752Z</time>
      </trkpt>
      <trkpt lat="43.43331" lon="2.04087">
        <ele>368.595252</ele>
        <time>2025-04-28T17:58:44.518Z</time>
      </trkpt>
      <trkpt lat="43.43319" lon="2.04115">
        <ele>369.87808</ele>
        <time>2025-04-28T17:58:52.045Z</time>
      </trkpt>
      <trkpt lat="43.43259" lon="2.04241">
        <ele>378.780272</ele>
        <time>2025-04-28T17:59:30.824Z</time>
      </trkpt>
      <trkpt lat="43.43205" lon="2.0431">
        <ele>384.870547</ele>
        <time>2025-04-28T18:00:00.818Z</time>
      </trkpt>
      <trkpt lat="43.43202" lon="2.0432">
        <ele>385.86674</ele>
        <time>2025-04-28T18:00:04.158Z</time>
      </trkpt>
      <trkpt lat="43.43202" lon="2.0433">
        <ele>386.73492</ele>
        <time>2025-04-28T18:00:07.045Z</time>
      </trkpt>
      <trkpt lat="43.4321" lon="2.04336">
        <ele>387.815195</ele>
        <time>2025-04-28T18:00:10.699Z</time>
      </trkpt>
      <trkpt lat="43.43218" lon="2.04338">
        <ele>388.875573</ele>
        <time>2025-04-28T18:00:14.340Z</time>
      </trkpt>
      <trkpt lat="43.43247" lon="2.04336">
        <ele>392.390529</ele>
        <time>2025-04-28T18:00:26.803Z</time>
      </trkpt>
      <trkpt lat="43.43258" lon="2.04338">
        <ele>393.774112</ele>
        <time>2025-04-28T18:00:31.881Z</time>
      </trkpt>
      <trkpt lat="43.43268" lon="2.04347">
        <ele>395.19084</ele>
        <time>2025-04-28T18:00:37.202Z</time>
      </trkpt>
      <trkpt lat="43.43274" lon="2.04359">
        <ele>396.493649</ele>
        <time>2025-04-28T18:00:42.214Z</time>
      </trkpt>
      <trkpt lat="43.43276" lon="2.04376">
        <ele>398.027138</ele>
        <time>2025-04-28T18:00:48.328Z</time>
      </trkpt>
      <trkpt lat="43.43275" lon="2.04404">
        <ele>400.573401</ele>
        <time>2025-04-28T18:00:58.808Z</time>
      </trkpt>
      <trkpt lat="43.43261" lon="2.04462">
        <ele>406.046376</ele>
        <time>2025-04-28T18:01:23.190Z</time>
      </trkpt>
      <trkpt lat="43.43229" lon="2.04581">
        <ele>418.584315</ele>
        <time>2025-04-28T18:02:16.851Z</time>
      </trkpt>
      <trkpt lat="43.43218" lon="2.04623">
        <ele>422.984586</ele>
        <time>2025-04-28T18:02:34.177Z</time>
      </trkpt>
      <trkpt lat="43.4319" lon="2.04764">
        <ele>434.637472</ele>
        <time>2025-04-28T18:03:22.680Z</time>
      </trkpt>
      <trkpt lat="43.43185" lon="2.04771">
        <ele>435.12891</ele>
        <time>2025-04-28T18:03:24.977Z</time>
      </trkpt>
      <trkpt lat="43.43179" lon="2.04773">
        <ele>435.62558</ele>
        <time>2025-04-28T18:03:27.435Z</time>
      </trkpt>
      <trkpt lat="43.43174" lon="2.04768">
        <ele>436.048521</ele>
        <time>2025-04-28T18:03:29.335Z</time>
      </trkpt>
      <trkpt lat="43.43173" lon="2.04758">
        <ele>436.561927</ele>
        <time>2025-04-28T18:03:31.768Z</time>
      </trkpt>
      <trkpt lat="43.43181" lon="2.047">
        <ele>439.665738</ele>
        <time>2025-04-28T18:03:45.330Z</time>
      </trkpt>
      <trkpt lat="43.43171" lon="2.04631">
        <ele>443.353117</ele>
        <time>2025-04-28T18:04:00.620Z</time>
      </trkpt>
      <trkpt lat="43.43165" lon="2.04608">
        <ele>444.660706</ele>
        <time>2025-04-28T18:04:05.726Z</time>
      </trkpt>
      <trkpt lat="43.43157" lon="2.04584">
        <ele>446.372226</ele>
        <time>2025-04-28T18:04:11.559Z</time>
      </trkpt>
      <trkpt lat="43.43149" lon="2.04569">
        <ele>447.574768</ele>
        <time>2025-04-28T18:04:15.735Z</time>
      </trkpt>
      <trkpt lat="43.4314" lon="2.04559">
        <ele>448.603479</ele>
        <time>2025-04-28T18:04:19.380Z</time>
      </trkpt>
      <trkpt lat="43.43128" lon="2.0455">
        <ele>449.75627</ele>
        <time>2025-04-28T18:04:23.545Z</time>
      </trkpt>
      <trkpt lat="43.43121" lon="2.04548">
        <ele>450.377006</ele>
        <time>2025-04-28T18:04:25.822Z</time>
      </trkpt>
      <trkpt lat="43.42827" lon="2.04673">
        <ele>482.793833</ele>
        <time>2025-04-28T18:07:08.462Z</time>
      </trkpt>
      <trkpt lat="43.42806" lon="2.04687">
        <ele>485.907703</ele>
        <time>2025-04-28T18:07:22.126Z</time>
      </trkpt>
      <trkpt lat="43.42797" lon="2.04714">
        <ele>488.833127</ele>
        <time>2025-04-28T18:07:35.225Z</time>
      </trkpt>
      <trkpt lat="43.42805" lon="2.04765">
        <ele>494.019022</ele>
        <time>2025-04-28T18:07:58.760Z</time>
      </trkpt>
      <trkpt lat="43.42807" lon="2.04823">
        <ele>499.706715</ele>
        <time>2025-04-28T18:08:24.752Z</time>
      </trkpt>
      <trkpt lat="43.42801" lon="2.04869">
        <ele>504.294092</ele>
        <time>2025-04-28T18:08:45.838Z</time>
      </trkpt>
      <trkpt lat="43.42782" lon="2.04938">
        <ele>510.437316</ele>
        <time>2025-04-28T18:09:18.582Z</time>
      </trkpt>
      <trkpt lat="43.4274" lon="2.05025">
        <ele>518.891016</ele>
        <time>2025-04-28T18:09:59.046Z</time>
      </trkpt>
      <trkpt lat="43.42719" lon="2.0506">
        <ele>522.635966</ele>
        <time>2025-04-28T18:10:15.127Z</time>
      </trkpt>
      <trkpt lat="43.42695" lon="2.05091">
        <ele>525.769571</ele>
        <time>2025-04-28T18:10:30.113Z</time>
      </trkpt>
      <trkpt lat="43.42649" lon="2.0513">
        <ele>529.153555</ele>
        <time>2025-04-28T18:10:52.867Z</time>
      </trkpt>
      <trkpt lat="43.42592" lon="2.05169">
        <ele>533.140229</ele>
        <time>2025-04-28T18:11:17.526Z</time>
      </trkpt>
      <trkpt lat="43.42489" lon="2.05253">
        <ele>541.087671</ele>
        <time>2025-04-28T18:12:04.212Z</time>
      </trkpt>
      <trkpt lat="43.4247" lon="2.05256">
        <ele>542.432283</ele>
        <time>2025-04-28T18:12:12.363Z</time>
      </trkpt>
      <trkpt lat="43.42452" lon="2.05249">
        <ele>543.694656</ele>
        <time>2025-04-28T18:12:20.171Z</time>
      </trkpt>
      <trkpt lat="43.42428" lon="2.05225">
        <ele>545.717928</ele>
        <time>2025-04-28T18:12:32.939Z</time>
      </trkpt>
      <trkpt lat="43.42375" lon="2.05186">
        <ele>550.368512</ele>
        <time>2025-04-28T18:13:00.948Z</time>
      </trkpt>
      <trkpt lat="43.42343" lon="2.05172">
        <ele>553.539162</ele>
        <time>2025-04-28T18:13:16.818Z</time>
      </trkpt>
      <trkpt lat="43.42316" lon="2.05172">
        <ele>556.092962</ele>
        <time>2025-04-28T18:13:29.811Z</time>
      </trkpt>
      <trkpt lat="43.42234" lon="2.05187">
        <ele>563.931107</ele>
        <time>2025-04-28T18:14:10.446Z</time>
      </trkpt>
      <trkpt lat="43.42218" lon="2.05184">
        <ele>565.414012</ele>
        <time>2025-04-28T18:14:18.311Z</time>
      </trkpt>
      <trkpt lat="43.42196" lon="2.05174">
        <ele>567.497353</ele>
        <time>2025-04-28T18:14:30.237Z</time>
      </trkpt>
      <trkpt lat="43.42192" lon="2.05181">
        <ele>568.09229</ele>
        <time>2025-04-28T18:14:33.623Z</time>
      </trkpt>
      <trkpt lat="43.42179" lon="2.05188">
        <ele>569.337582</ele>
        <time>2025-04-28T18:14:40.921Z</time>
      </trkpt>
      <trkpt lat="43.42131" lon="2.05204">
        <ele>573.750672</ele>
        <time>2025-04-28T18:15:06.961Z</time>
      </trkpt>
      <trkpt lat="43.42054" lon="2.05265">
        <ele>581.6309</ele>
        <time>2025-04-28T18:15:49.072Z</time>
      </trkpt>
      <trkpt lat="43.42037" lon="2.05289">
        <ele>580.609517</ele>
        <time>2025-04-28T18:15:58.356Z</time>
      </trkpt>
      <trkpt lat="43.42024" lon="2.05312">
        <ele>579.425546</ele>
        <time>2025-04-28T18:16:05.636Z</time>
      </trkpt>
      <trkpt lat="43.42019" lon="2.05327">
        <ele>578.778203</ele>
        <time>2025-04-28T18:16:09.580Z</time>
      </trkpt>
      <trkpt lat="43.42019" lon="2.05334">
        <ele>578.487014</ele>
        <time>2025-04-28T18:16:11.253Z</time>
      </trkpt>
      <trkpt lat="43.42022" lon="2.05351">
        <ele>577.764118</ele>
        <time>2025-04-28T18:16:15.161Z</time>
      </trkpt>
      <trkpt lat="43.42028" lon="2.05362">
        <ele>577.158309</ele>
        <time>2025-04-28T18:16:18.239Z</time>
      </trkpt>
      <trkpt lat="43.42052" lon="2.0538">
        <ele>575.622937</ele>
        <time>2025-04-28T18:16:25.508Z</time>
      </trkpt>
      <trkpt lat="43.42142" lon="2.05383">
        <ele>569.593364</ele>
        <time>2025-04-28T18:16:47.491Z</time>
      </trkpt>
      <trkpt lat="43.42164" lon="2.0538">
        <ele>567.224419</ele>
        <time>2025-04-28T18:16:52.931Z</time>
      </trkpt>
      <trkpt lat="43.42201" lon="2.05389">
        <ele>563.322121</ele>
        <time>2025-04-28T18:17:02.016Z</time>
      </trkpt>
      <trkpt lat="43.42211" lon="2.05397">
        <ele>562.185929</ele>
        <time>2025-04-28T18:17:04.728Z</time>
      </trkpt>
      <trkpt lat="43.42215" lon="2.05407">
        <ele>561.247532</ele>
        <time>2025-04-28T18:17:06.999Z</time>
      </trkpt>
      <trkpt lat="43.42218" lon="2.05459">
        <ele>557.319553</ele>
        <time>2025-04-28T18:17:16.806Z</time>
      </trkpt>
      <trkpt lat="43.42208" lon="2.05517">
        <ele>552.881639</ele>
        <time>2025-04-28T18:17:29.104Z</time>
      </trkpt>
      <trkpt lat="43.42201" lon="2.05534">
        <ele>552.466354</ele>
        <time>2025-04-28T18:17:33.245Z</time>
      </trkpt>
      <trkpt lat="43.42152" lon="2.05611">
        <ele>550.194842</ele>
        <time>2025-04-28T18:17:57.626Z</time>
      </trkpt>
      <trkpt lat="43.42137" lon="2.05639">
        <ele>549.415236</ele>
        <time>2025-04-28T18:18:06.163Z</time>
      </trkpt>
      <trkpt lat="43.42102" lon="2.05745">
        <ele>546.822306</ele>
        <time>2025-04-28T18:18:32.233Z</time>
      </trkpt>
      <trkpt lat="43.42056" lon="2.05848">
        <ele>544.142547</ele>
        <time>2025-04-28T18:18:58.284Z</time>
      </trkpt>
      <trkpt lat="43.42021" lon="2.05879">
        <ele>542.87946</ele>
        <time>2025-04-28T18:19:11.011Z</time>
      </trkpt>
      <trkpt lat="43.42015" lon="2.05889">
        <ele>542.575817</ele>
        <time>2025-04-28T18:19:14.200Z</time>
      </trkpt>
      <trkpt lat="43.42001" lon="2.05922">
        <ele>541.877342</ele>
        <time>2025-04-28T18:19:23.209Z</time>
      </trkpt>
      <trkpt lat="43.41995" lon="2.05928">
        <ele>541.826007</ele>
        <time>2025-04-28T18:19:25.815Z</time>
      </trkpt>
      <trkpt lat="43.41982" lon="2.05931">
        <ele>541.732673</ele>
        <time>2025-04-28T18:19:30.577Z</time>
      </trkpt>
      <trkpt lat="43.41968" lon="2.0594">
        <ele>541.626907</ele>
        <time>2025-04-28T18:19:35.882Z</time>
      </trkpt>
      <trkpt lat="43.41945" lon="2.05963">
        <ele>541.434865</ele>
        <time>2025-04-28T18:19:45.643Z</time>
      </trkpt>
      <trkpt lat="43.41933" lon="2.05984">
        <ele>541.300466</ele>
        <time>2025-04-28T18:19:52.396Z</time>
      </trkpt>
      <trkpt lat="43.4191" lon="2.06001">
        <ele>541.116222</ele>
        <time>2025-04-28T18:20:01.497Z</time>
      </trkpt>
      <trkpt lat="43.41903" lon="2.06015">
        <ele>541.032639</ele>
        <time>2025-04-28T18:20:05.742Z</time>
      </trkpt>
      <trkpt lat="43.41899" lon="2.0604">
        <ele>540.906559</ele>
        <time>2025-04-28T18:20:12.147Z</time>
      </trkpt>
      <trkpt lat="43.41879" lon="2.06078">
        <ele>540.715438</ele>
        <time>2025-04-28T18:20:24.146Z</time>
      </trkpt>
      <trkpt lat="43.41867" lon="2.0609">
        <ele>541.066272</ele>
        <time>2025-04-28T18:20:29.346Z</time>
      </trkpt>
      <trkpt lat="43.41871" lon="2.06113">
        <ele>541.472643</ele>
        <time>2025-04-28T18:20:35.418Z</time>
      </trkpt>
      <trkpt lat="43.41864" lon="2.06118">
        <ele>541.663648</ele>
        <time>2025-04-28T18:20:38.245Z</time>
      </trkpt>
      <trkpt lat="43.41863" lon="2.06121">
        <ele>541.708913</ele>
        <time>2025-04-28T18:20:38.946Z</time>
      </trkpt>
      <trkpt lat="43.41863" lon="2.06131">
        <ele>541.878647</ele>
        <time>2025-04-28T18:20:41.459Z</time>
      </trkpt>
      <trkpt lat="43.41867" lon="2.06137">
        <ele>542.029609</ele>
        <time>2025-04-28T18:20:43.731Z</time>
      </trkpt>
      <trkpt lat="43.41888" lon="2.06139">
        <ele>542.521426</ele>
        <time>2025-04-28T18:20:51.072Z</time>
      </trkpt>
      <trkpt lat="43.41912" lon="2.06135">
        <ele>543.082673</ele>
        <time>2025-04-28T18:20:59.442Z</time>
      </trkpt>
      <trkpt lat="43.41897" lon="2.06149">
        <ele>543.505509</ele>
        <time>2025-04-28T18:21:04.220Z</time>
      </trkpt>
      <trkpt lat="43.41865" lon="2.06163">
        <ele>544.308662</ele>
        <time>2025-04-28T18:21:13.918Z</time>
      </trkpt>
      <trkpt lat="43.41841" lon="2.06167">
        <ele>544.856117</ele>
        <time>2025-04-28T18:21:20.715Z</time>
      </trkpt>
      <trkpt lat="43.41821" lon="2.06164">
        <ele>545.609948</ele>
        <time>2025-04-28T18:21:26.482Z</time>
      </trkpt>
      <trkpt lat="43.4177" lon="2.06139">
        <ele>547.666149</ele>
        <time>2025-04-28T18:21:41.713Z</time>
      </trkpt>
      <trkpt lat="43.41742" lon="2.06135">
        <ele>548.752983</ele>
        <time>2025-04-28T18:21:49.482Z</time>
      </trkpt>
      <trkpt lat="43.4157" lon="2.06158">
        <ele>554.486063</ele>
        <time>2025-04-28T18:22:35.626Z</time>
      </trkpt>
      <trkpt lat="43.41558" lon="2.0616">
        <ele>554.83546</ele>
        <time>2025-04-28T18:22:38.694Z</time>
      </trkpt>
      <trkpt lat="43.41534" lon="2.06165">
        <ele>555.568984</ele>
        <time>2025-04-28T18:22:45.122Z</time>
      </trkpt>
      <trkpt lat="43.41521" lon="2.06175">
        <ele>555.977104</ele>
        <time>2025-04-28T18:22:48.702Z</time>
      </trkpt>
      <trkpt lat="43.41484" lon="2.06231">
        <ele>557.448308</ele>
        <time>2025-04-28T18:23:02.719Z</time>
      </trkpt>
      <trkpt lat="43.41429" lon="2.06298">
        <ele>559.05907</ele>
        <time>2025-04-28T18:23:20.473Z</time>
      </trkpt>
      <trkpt lat="43.41417" lon="2.0632">
        <ele>559.507237</ele>
        <time>2025-04-28T18:23:25.555Z</time>
      </trkpt>
      <trkpt lat="43.41383" lon="2.06399">
        <ele>561.00515</ele>
        <time>2025-04-28T18:23:42.538Z</time>
      </trkpt>
      <trkpt lat="43.41373" lon="2.06416">
        <ele>561.585684</ele>
        <time>2025-04-28T18:23:46.455Z</time>
      </trkpt>
      <trkpt lat="43.41343" lon="2.06443">
        <ele>562.948859</ele>
        <time>2025-04-28T18:23:55.750Z</time>
      </trkpt>
      <trkpt lat="43.41325" lon="2.06464">
        <ele>563.82204</ele>
        <time>2025-04-28T18:24:01.852Z</time>
      </trkpt>
      <trkpt lat="43.41297" lon="2.06509">
        <ele>565.457491</ele>
        <time>2025-04-28T18:24:13.944Z</time>
      </trkpt>
      <trkpt lat="43.41288" lon="2.06529">
        <ele>566.099349</ele>
        <time>2025-04-28T18:24:18.977Z</time>
      </trkpt>
      <trkpt lat="43.4128" lon="2.06551">
        <ele>566.747606</ele>
        <time>2025-04-28T18:24:24.004Z</time>
      </trkpt>
      <trkpt lat="43.41256" lon="2.06659">
        <ele>571.14528</ele>
        <time>2025-04-28T18:24:48.114Z</time>
      </trkpt>
      <trkpt lat="43.41241" lon="2.06751">
        <ele>575.288466</ele>
        <time>2025-04-28T18:25:09.651Z</time>
      </trkpt>
      <trkpt lat="43.41239" lon="2.06782">
        <ele>576.694156</ele>
        <time>2025-04-28T18:25:17.497Z</time>
      </trkpt>
      <trkpt lat="43.41241" lon="2.06817">
        <ele>578.217764</ele>
        <time>2025-04-28T18:25:26.357Z</time>
      </trkpt>
      <trkpt lat="43.41244" lon="2.06833">
        <ele>578.96289</ele>
        <time>2025-04-28T18:25:30.686Z</time>
      </trkpt>
      <trkpt lat="43.41252" lon="2.06853">
        <ele>580.06042</ele>
        <time>2025-04-28T18:25:36.923Z</time>
      </trkpt>
      <trkpt lat="43.41269" lon="2.06874">
        <ele>581.55152</ele>
        <time>2025-04-28T18:25:45.360Z</time>
      </trkpt>
      <trkpt lat="43.41335" lon="2.06936">
        <ele>586.775122</ele>
        <time>2025-04-28T18:26:13.374Z</time>
      </trkpt>
      <trkpt lat="43.41343" lon="2.0695">
        <ele>587.598098</ele>
        <time>2025-04-28T18:26:17.492Z</time>
      </trkpt>
      <trkpt lat="43.41346" lon="2.0698">
        <ele>589.010685</ele>
        <time>2025-04-28T18:26:24.298Z</time>
      </trkpt>
      <trkpt lat="43.41293" lon="2.07194">
        <ele>595.300992</ele>
        <time>2025-04-28T18:27:07.612Z</time>
      </trkpt>
      <trkpt lat="43.41284" lon="2.07221">
        <ele>596.038423</ele>
        <time>2025-04-28T18:27:13.226Z</time>
      </trkpt>
      <trkpt lat="43.41251" lon="2.07294">
        <ele>598.443659</ele>
        <time>2025-04-28T18:27:30.134Z</time>
      </trkpt>
      <trkpt lat="43.41231" lon="2.07357">
        <ele>600.431114</ele>
        <time>2025-04-28T18:27:44.372Z</time>
      </trkpt>
      <trkpt lat="43.41213" lon="2.07435">
        <ele>602.797944</ele>
        <time>2025-04-28T18:28:01.404Z</time>
      </trkpt>
      <trkpt lat="43.41209" lon="2.07468">
        <ele>603.726086</ele>
        <time>2025-04-28T18:28:08.220Z</time>
      </trkpt>
      <trkpt lat="43.41208" lon="2.07498">
        <ele>604.273443</ele>
        <time>2025-04-28T18:28:14.114Z</time>
      </trkpt>
      <trkpt lat="43.41217" lon="2.07542">
        <ele>605.101182</ele>
        <time>2025-04-28T18:28:22.755Z</time>
      </trkpt>
      <trkpt lat="43.41234" lon="2.07598">
        <ele>606.220045</ele>
        <time>2025-04-28T18:28:34.174Z</time>
      </trkpt>
      <trkpt lat="43.41239" lon="2.0761">
        <ele>606.464152</ele>
        <time>2025-04-28T18:28:36.605Z</time>
      </trkpt>
      <trkpt lat="43.41249" lon="2.07646">
        <ele>607.159093</ele>
        <time>2025-04-28T18:28:43.468Z</time>
      </trkpt>
      <trkpt lat="43.41253" lon="2.07681">
        <ele>607.807661</ele>
        <time>2025-04-28T18:28:49.799Z</time>
      </trkpt>
      <trkpt lat="43.41248" lon="2.07738">
        <ele>607.863293</ele>
        <time>2025-04-28T18:28:59.757Z</time>
      </trkpt>
      <trkpt lat="43.41236" lon="2.0779">
        <ele>607.406889</ele>
        <time>2025-04-28T18:29:08.424Z</time>
      </trkpt>
      <trkpt lat="43.41224" lon="2.07818">
        <ele>607.125347</ele>
        <time>2025-04-28T18:29:13.649Z</time>
      </trkpt>
      <trkpt lat="43.4121" lon="2.07841">
        <ele>606.872725</ele>
        <time>2025-04-28T18:29:18.027Z</time>
      </trkpt>
      <trkpt lat="43.41185" lon="2.07864">
        <ele>606.520366</ele>
        <time>2025-04-28T18:29:23.515Z</time>
      </trkpt>
      <trkpt lat="43.41163" lon="2.07885">
        <ele>606.217452</ele>
        <time>2025-04-28T18:29:27.849Z</time>
      </trkpt>
      <trkpt lat="43.4116" lon="2.07886">
        <ele>606.175291</ele>
        <time>2025-04-28T18:29:28.437Z</time>
      </trkpt>
      <trkpt lat="43.41139" lon="2.0786">
        <ele>605.254058</ele>
        <time>2025-04-28T18:29:32.890Z</time>
      </trkpt>
      <trkpt lat="43.41093" lon="2.07808">
        <ele>602.786631</ele>
        <time>2025-04-28T18:29:42.092Z</time>
      </trkpt>
      <trkpt lat="43.41089" lon="2.07803">
        <ele>602.573059</ele>
        <time>2025-04-28T18:29:42.887Z</time>
      </trkpt>
      <trkpt lat="43.4104" lon="2.07734">
        <ele>599.693577</ele>
        <time>2025-04-28T18:29:54.166Z</time>
      </trkpt>
      <trkpt lat="43.41029" lon="2.07725">
        <ele>599.167167</ele>
        <time>2025-04-28T18:29:56.462Z</time>
      </trkpt>
      <trkpt lat="43.41" lon="2.07711">
        <ele>599.211021</ele>
        <time>2025-04-28T18:30:02.551Z</time>
      </trkpt>
      <trkpt lat="43.40983" lon="2.07707">
        <ele>599.658837</ele>
        <time>2025-04-28T18:30:06.382Z</time>
      </trkpt>
      <trkpt lat="43.40959" lon="2.07708">
        <ele>600.302457</ele>
        <time>2025-04-28T18:30:12.383Z</time>
      </trkpt>
      <trkpt lat="43.40953" lon="2.07709">
        <ele>600.461409</ele>
        <time>2025-04-28T18:30:13.887Z</time>
      </trkpt>
      <trkpt lat="43.40952" lon="2.07709">
        <ele>600.47741</ele>
        <time>2025-04-28T18:30:14.047Z</time>
      </trkpt>
      <trkpt lat="43.40947" lon="2.07709">
        <ele>600.620386</ele>
        <time>2025-04-28T18:30:15.522Z</time>
      </trkpt>
      <trkpt lat="43.4094" lon="2.07709">
        <ele>600.819094</ele>
        <time>2025-04-28T18:30:17.524Z</time>
      </trkpt>
      <trkpt lat="43.40939" lon="2.07714">
        <ele>600.911563</ele>
        <time>2025-04-28T18:30:18.465Z</time>
      </trkpt>
      <trkpt lat="43.40947" lon="2.07849">
        <ele>603.527784</ele>
        <time>2025-04-28T18:30:55.982Z</time>
      </trkpt>
      <trkpt lat="43.40959" lon="2.0807">
        <ele>608.923106</ele>
        <time>2025-04-28T18:31:54.547Z</time>
      </trkpt>
      <trkpt lat="43.40972" lon="2.08056">
        <ele>609.492106</ele>
        <time>2025-04-28T18:31:58.665Z</time>
      </trkpt>
      <trkpt lat="43.40985" lon="2.08042">
        <ele>609.209368</ele>
        <time>2025-04-28T18:32:02.503Z</time>
      </trkpt>
      <trkpt lat="43.40989" lon="2.08088">
        <ele>608.59389</ele>
        <time>2025-04-28T18:32:14.197Z</time>
      </trkpt>
      <trkpt lat="43.40991" lon="2.08118">
        <ele>608.189569</ele>
        <time>2025-04-28T18:32:21.264Z</time>
      </trkpt>
      <trkpt lat="43.40989" lon="2.08195">
        <ele>607.155453</ele>
        <time>2025-04-28T18:32:38.718Z</time>
      </trkpt>
      <trkpt lat="43.40986" lon="2.08265">
        <ele>606.22073</ele>
        <time>2025-04-28T18:32:53.618Z</time>
      </trkpt>
      <trkpt lat="43.40986" lon="2.08267">
        <ele>606.189691</ele>
        <time>2025-04-28T18:32:54.168Z</time>
      </trkpt>
      <trkpt lat="43.40986" lon="2.08267">
        <ele>606.189691</ele>
        <time>2025-04-28T18:32:54.168Z</time>
      </trkpt>
      <trkpt lat="43.40985" lon="2.08286">
        <ele>606.037048</ele>
        <time>2025-04-28T18:32:58.185Z</time>
      </trkpt>
      <trkpt lat="43.40971" lon="2.08327">
        <ele>605.662586</ele>
        <time>2025-04-28T18:33:08.600Z</time>
      </trkpt>
      <trkpt lat="43.40976" lon="2.08387">
        <ele>605.171561</ele>
        <time>2025-04-28T18:33:23.718Z</time>
      </trkpt>
      <trkpt lat="43.40975" lon="2.08395">
        <ele>605.097685</ele>
        <time>2025-04-28T18:33:25.998Z</time>
      </trkpt>
      <trkpt lat="43.40967" lon="2.08406">
        <ele>604.975947</ele>
        <time>2025-04-28T18:33:29.746Z</time>
      </trkpt>
      <trkpt lat="43.40906" lon="2.08423">
        <ele>604.27248</ele>
        <time>2025-04-28T18:33:51.387Z</time>
      </trkpt>
      <trkpt lat="43.40884" lon="2.08423">
        <ele>604.058085</ele>
        <time>2025-04-28T18:33:59.164Z</time>
      </trkpt>
      <trkpt lat="43.40875" lon="2.08429">
        <ele>603.978564</ele>
        <time>2025-04-28T18:34:02.491Z</time>
      </trkpt>
      <trkpt lat="43.40873" lon="2.08437">
        <ele>603.930558</ele>
        <time>2025-04-28T18:34:04.521Z</time>
      </trkpt>
      <trkpt lat="43.40875" lon="2.08446">
        <ele>603.874697</ele>
        <time>2025-04-28T18:34:06.859Z</time>
      </trkpt>
      <trkpt lat="43.40887" lon="2.0847">
        <ele>603.698814</ele>
        <time>2025-04-28T18:34:14.311Z</time>
      </trkpt>
      <trkpt lat="43.40896" lon="2.08478">
        <ele>603.614674</ele>
        <time>2025-04-28T18:34:17.824Z</time>
      </trkpt>
      <trkpt lat="43.40907" lon="2.08487">
        <ele>603.508067</ele>
        <time>2025-04-28T18:34:22.119Z</time>
      </trkpt>
      <trkpt lat="43.4095" lon="2.08492">
        <ele>603.151388</ele>
        <time>2025-04-28T18:34:36.086Z</time>
      </trkpt>
      <trkpt lat="43.40962" lon="2.08502">
        <ele>603.036204</ele>
        <time>2025-04-28T18:34:40.637Z</time>
      </trkpt>
      <trkpt lat="43.40971" lon="2.08519">
        <ele>602.905986</ele>
        <time>2025-04-28T18:34:45.924Z</time>
      </trkpt>
      <trkpt lat="43.40975" lon="2.08541">
        <ele>602.770575</ele>
        <time>2025-04-28T18:34:51.676Z</time>
      </trkpt>
      <trkpt lat="43.40975" lon="2.08567">
        <ele>602.665998</ele>
        <time>2025-04-28T18:34:58.136Z</time>
      </trkpt>
      <trkpt lat="43.40953" lon="2.08628">
        <ele>602.594484</ele>
        <time>2025-04-28T18:35:15.484Z</time>
      </trkpt>
      <trkpt lat="43.40918" lon="2.08678">
        <ele>602.52318</ele>
        <time>2025-04-28T18:35:32.815Z</time>
      </trkpt>
      <trkpt lat="43.40916" lon="2.08684">
        <ele>602.515658</ele>
        <time>2025-04-28T18:35:34.053Z</time>
      </trkpt>
      <trkpt lat="43.40914" lon="2.08706">
        <ele>602.493003</ele>
        <time>2025-04-28T18:35:37.810Z</time>
      </trkpt>
      <trkpt lat="43.40923" lon="2.08783">
        <ele>602.238587</ele>
        <time>2025-04-28T18:35:50.406Z</time>
      </trkpt>
      <trkpt lat="43.40918" lon="2.088">
        <ele>601.704398</ele>
        <time>2025-04-28T18:35:52.990Z</time>
      </trkpt>
      <trkpt lat="43.40901" lon="2.08824">
        <ele>600.729907</ele>
        <time>2025-04-28T18:35:57.402Z</time>
      </trkpt>
      <trkpt lat="43.40885" lon="2.08857">
        <ele>599.55651</ele>
        <time>2025-04-28T18:36:02.463Z</time>
      </trkpt>
      <trkpt lat="43.40884" lon="2.08892">
        <ele>598.539079</ele>
        <time>2025-04-28T18:36:06.767Z</time>
      </trkpt>
      <trkpt lat="43.40867" lon="2.0899">
        <ele>595.588535</ele>
        <time>2025-04-28T18:36:18.818Z</time>
      </trkpt>
      <trkpt lat="43.40838" lon="2.09128">
        <ele>592.897831</ele>
        <time>2025-04-28T18:36:35.615Z</time>
      </trkpt>
      <trkpt lat="43.40831" lon="2.0916">
        <ele>592.296365</ele>
        <time>2025-04-28T18:36:40.588Z</time>
      </trkpt>
      <trkpt lat="43.40819" lon="2.09169">
        <ele>591.964075</ele>
        <time>2025-04-28T18:36:45.332Z</time>
      </trkpt>
      <trkpt lat="43.40809" lon="2.0918">
        <ele>591.643826</ele>
        <time>2025-04-28T18:36:49.899Z</time>
      </trkpt>
      <trkpt lat="43.40804" lon="2.09191">
        <ele>591.42598</ele>
        <time>2025-04-28T18:36:53.018Z</time>
      </trkpt>
      <trkpt lat="43.40804" lon="2.09182">
        <ele>591.270066</ele>
        <time>2025-04-28T18:36:55.254Z</time>
      </trkpt>
      <trkpt lat="43.40817" lon="2.09112">
        <ele>591.905975</ele>
        <time>2025-04-28T18:37:14.309Z</time>
      </trkpt>
      <trkpt lat="43.40859" lon="2.08962">
        <ele>595.660768</ele>
        <time>2025-04-28T18:38:00.173Z</time>
      </trkpt>
      <trkpt lat="43.40863" lon="2.0894">
        <ele>596.190162</ele>
        <time>2025-04-28T18:38:05.903Z</time>
      </trkpt>
      <trkpt lat="43.40864" lon="2.08914">
        <ele>596.385191</ele>
        <time>2025-04-28T18:38:12.322Z</time>
      </trkpt>
      <trkpt lat="43.40775" lon="2.09178">
        <ele>591.11695</ele>
        <time>2025-04-28T18:39:13.909Z</time>
      </trkpt>
      <trkpt lat="43.40766" lon="2.09194">
        <ele>591.389305</ele>
        <time>2025-04-28T18:39:18.775Z</time>
      </trkpt>
      <trkpt lat="43.40753" lon="2.09198">
        <ele>591.627741</ele>
        <time>2025-04-28T18:39:23.264Z</time>
      </trkpt>
      <trkpt lat="43.40747" lon="2.09193">
        <ele>591.767553</ele>
        <time>2025-04-28T18:39:25.893Z</time>
      </trkpt>
      <trkpt lat="43.40744" lon="2.09183">
        <ele>591.914448</ele>
        <time>2025-04-28T18:39:28.643Z</time>
      </trkpt>
      <trkpt lat="43.40745" lon="2.09145">
        <ele>592.424886</ele>
        <time>2025-04-28T18:39:38.290Z</time>
      </trkpt>
      <trkpt lat="43.40753" lon="2.0909">
        <ele>593.172329</ele>
        <time>2025-04-28T18:39:53.634Z</time>
      </trkpt>
      <trkpt lat="43.4077" lon="2.09017">
        <ele>595.222868</ele>
        <time>2025-04-28T18:40:19.216Z</time>
      </trkpt>
      <trkpt lat="43.40774" lon="2.08986">
        <ele>596.640839</ele>
        <time>2025-04-28T18:40:30.126Z</time>
      </trkpt>
      <trkpt lat="43.40775" lon="2.08916">
        <ele>599.761577</ele>
        <time>2025-04-28T18:40:52.964Z</time>
      </trkpt>
      <trkpt lat="43.40771" lon="2.08892">
        <ele>600.850908</ele>
        <time>2025-04-28T18:41:00.414Z</time>
      </trkpt>
      <trkpt lat="43.40761" lon="2.08855">
        <ele>602.644407</ele>
        <time>2025-04-28T18:41:11.847Z</time>
      </trkpt>
      <trkpt lat="43.40755" lon="2.08845">
        <ele>603.210662</ele>
        <time>2025-04-28T18:41:15.291Z</time>
      </trkpt>
      <trkpt lat="43.40746" lon="2.08842">
        <ele>603.817912</ele>
        <time>2025-04-28T18:41:18.883Z</time>
      </trkpt>
      <trkpt lat="43.40742" lon="2.08846">
        <ele>604.072625</ele>
        <time>2025-04-28T18:41:20.363Z</time>
      </trkpt>
      <trkpt lat="43.40722" lon="2.08905">
        <ele>604.662869</ele>
        <time>2025-04-28T18:41:36.931Z</time>
      </trkpt>
      <trkpt lat="43.40659" lon="2.09027">
        <ele>604.257673</ele>
        <time>2025-04-28T18:42:14.653Z</time>
      </trkpt>
      <trkpt lat="43.40647" lon="2.09057">
        <ele>604.165326</ele>
        <time>2025-04-28T18:42:22.687Z</time>
      </trkpt>
      <trkpt lat="43.40635" lon="2.09094">
        <ele>603.517804</ele>
        <time>2025-04-28T18:42:31.969Z</time>
      </trkpt>
      <trkpt lat="43.40619" lon="2.09142">
        <ele>602.267433</ele>
        <time>2025-04-28T18:42:44.186Z</time>
      </trkpt>
      <trkpt lat="43.40557" lon="2.0928">
        <ele>598.468583</ele>
        <time>2025-04-28T18:43:18.961Z</time>
      </trkpt>
      <trkpt lat="43.40541" lon="2.09304">
        <ele>598.628086</ele>
        <time>2025-04-28T18:43:26.043Z</time>
      </trkpt>
      <trkpt lat="43.40518" lon="2.09327">
        <ele>599.070193</ele>
        <time>2025-04-28T18:43:35.975Z</time>
      </trkpt>
      <trkpt lat="43.405" lon="2.09339">
        <ele>599.375633</ele>
        <time>2025-04-28T18:43:42.794Z</time>
      </trkpt>
      <trkpt lat="43.40483" lon="2.09346">
        <ele>599.65257</ele>
        <time>2025-04-28T18:43:49.038Z</time>
      </trkpt>
      <trkpt lat="43.40475" lon="2.09344">
        <ele>599.785141</ele>
        <time>2025-04-28T18:43:52.067Z</time>
      </trkpt>
      <trkpt lat="43.4047" lon="2.09337">
        <ele>599.898752</ele>
        <time>2025-04-28T18:43:54.658Z</time>
      </trkpt>
      <trkpt lat="43.40453" lon="2.09272">
        <ele>600.682464</ele>
        <time>2025-04-28T18:44:12.950Z</time>
      </trkpt>
      <trkpt lat="43.40443" lon="2.09251">
        <ele>600.953386</ele>
        <time>2025-04-28T18:44:19.447Z</time>
      </trkpt>
      <trkpt lat="43.40423" lon="2.09224">
        <ele>601.139549</ele>
        <time>2025-04-28T18:44:30.408Z</time>
      </trkpt>
      <trkpt lat="43.40411" lon="2.09216">
        <ele>601.145923</ele>
        <time>2025-04-28T18:44:35.950Z</time>
      </trkpt>
      <trkpt lat="43.404" lon="2.09221">
        <ele>601.151128</ele>
        <time>2025-04-28T18:44:40.174Z</time>
      </trkpt>
      <trkpt lat="43.40379" lon="2.09273">
        <ele>601.171086</ele>
        <time>2025-04-28T18:44:55.214Z</time>
      </trkpt>
      <trkpt lat="43.40335" lon="2.09335">
        <ele>601.200112</ele>
        <time>2025-04-28T18:45:14.698Z</time>
      </trkpt>
      <trkpt lat="43.40307" lon="2.09372">
        <ele>601.306469</ele>
        <time>2025-04-28T18:45:26.100Z</time>
      </trkpt>
      <trkpt lat="43.40201" lon="2.09434">
        <ele>602.84541</ele>
        <time>2025-04-28T18:46:06.126Z</time>
      </trkpt>
      <trkpt lat="43.40192" lon="2.09437">
        <ele>602.964319</ele>
        <time>2025-04-28T18:46:09.661Z</time>
      </trkpt>
      <trkpt lat="43.40175" lon="2.09433">
        <ele>603.195492</ele>
        <time>2025-04-28T18:46:16.513Z</time>
      </trkpt>
      <trkpt lat="43.40164" lon="2.09425">
        <ele>603.356848</ele>
        <time>2025-04-28T18:46:21.381Z</time>
      </trkpt>
      <trkpt lat="43.40155" lon="2.09415">
        <ele>603.510623</ele>
        <time>2025-04-28T18:46:26.019Z</time>
      </trkpt>
      <trkpt lat="43.40139" lon="2.09388">
        <ele>603.925872</ele>
        <time>2025-04-28T18:46:36.117Z</time>
      </trkpt>
      <trkpt lat="43.40133" lon="2.09384">
        <ele>604.043401</ele>
        <time>2025-04-28T18:46:38.758Z</time>
      </trkpt>
      <trkpt lat="43.40115" lon="2.09384">
        <ele>604.353371</ele>
        <time>2025-04-28T18:46:45.572Z</time>
      </trkpt>
      <trkpt lat="43.40101" lon="2.0939">
        <ele>604.623192</ele>
        <time>2025-04-28T18:46:51.430Z</time>
      </trkpt>
      <trkpt lat="43.40085" lon="2.09399">
        <ele>604.933973</ele>
        <time>2025-04-28T18:46:58.052Z</time>
      </trkpt>
      <trkpt lat="43.40072" lon="2.0941">
        <ele>605.193011</ele>
        <time>2025-04-28T18:47:03.336Z</time>
      </trkpt>
      <trkpt lat="43.40059" lon="2.0943">
        <ele>605.540573</ele>
        <time>2025-04-28T18:47:10.190Z</time>
      </trkpt>
      <trkpt lat="43.40031" lon="2.09485">
        <ele>606.403825</ele>
        <time>2025-04-28T18:47:27.074Z</time>
      </trkpt>
      <trkpt lat="43.40005" lon="2.09538">
        <ele>605.845585</ele>
        <time>2025-04-28T18:47:41.352Z</time>
      </trkpt>
      <trkpt lat="43.40003" lon="2.09563">
        <ele>605.143769</ele>
        <time>2025-04-28T18:47:46.763Z</time>
      </trkpt>
      <trkpt lat="43.39997" lon="2.09618">
        <ele>603.614938</ele>
        <time>2025-04-28T18:47:58.616Z</time>
      </trkpt>
      <trkpt lat="43.39991" lon="2.09642">
        <ele>602.892889</ele>
        <time>2025-04-28T18:48:04.194Z</time>
      </trkpt>
      <trkpt lat="43.39982" lon="2.09666">
        <ele>602.145142</ele>
        <time>2025-04-28T18:48:09.915Z</time>
      </trkpt>
      <trkpt lat="43.39941" lon="2.09716">
        <ele>600.055962</ele>
        <time>2025-04-28T18:48:25.851Z</time>
      </trkpt>
      <trkpt lat="43.39874" lon="2.09787">
        <ele>598.489905</ele>
        <time>2025-04-28T18:48:51.708Z</time>
      </trkpt>
      <trkpt lat="43.39863" lon="2.09795">
        <ele>598.266535</ele>
        <time>2025-04-28T18:48:55.797Z</time>
      </trkpt>
      <trkpt lat="43.39856" lon="2.09795">
        <ele>598.150761</ele>
        <time>2025-04-28T18:48:57.968Z</time>
      </trkpt>
      <trkpt lat="43.39851" lon="2.09791">
        <ele>598.03771</ele>
        <time>2025-04-28T18:49:00.077Z</time>
      </trkpt>
      <trkpt lat="43.39825" lon="2.09734">
        <ele>597.191359</ele>
        <time>2025-04-28T18:49:16.986Z</time>
      </trkpt>
      <trkpt lat="43.3981" lon="2.09701">
        <ele>596.840861</ele>
        <time>2025-04-28T18:49:26.996Z</time>
      </trkpt>
      <trkpt lat="43.39789" lon="2.09627">
        <ele>598.19624</ele>
        <time>2025-04-28T18:49:47.097Z</time>
      </trkpt>
      <trkpt lat="43.39785" lon="2.09604">
        <ele>598.590179</ele>
        <time>2025-04-28T18:49:52.960Z</time>
      </trkpt>
      <trkpt lat="43.39784" lon="2.09568">
        <ele>599.215416</ele>
        <time>2025-04-28T18:50:02.282Z</time>
      </trkpt>
      <trkpt lat="43.39782" lon="2.09558">
        <ele>599.396101</ele>
        <time>2025-04-28T18:50:04.985Z</time>
      </trkpt>
      <trkpt lat="43.39777" lon="2.09549">
        <ele>599.578779</ele>
        <time>2025-04-28T18:50:07.780Z</time>
      </trkpt>
      <trkpt lat="43.39755" lon="2.09533">
        <ele>600.167049</ele>
        <time>2025-04-28T18:50:16.762Z</time>
      </trkpt>
      <trkpt lat="43.39734" lon="2.09529">
        <ele>600.665819</ele>
        <time>2025-04-28T18:50:24.413Z</time>
      </trkpt>
      <trkpt lat="43.3972" lon="2.09533">
        <ele>600.988349</ele>
        <time>2025-04-28T18:50:29.302Z</time>
      </trkpt>
      <trkpt lat="43.39692" lon="2.09546">
        <ele>601.856317</ele>
        <time>2025-04-28T18:50:39.953Z</time>
      </trkpt>
      <trkpt lat="43.39672" lon="2.09564">
        <ele>602.563862</ele>
        <time>2025-04-28T18:50:48.603Z</time>
      </trkpt>
      <trkpt lat="43.39654" lon="2.09593">
        <ele>603.357799</ele>
        <time>2025-04-28T18:50:58.227Z</time>
      </trkpt>
      <trkpt lat="43.39648" lon="2.09615">
        <ele>603.865528</ele>
        <time>2025-04-28T18:51:04.430Z</time>
      </trkpt>
      <trkpt lat="43.39625" lon="2.09724">
        <ele>606.250301</ele>
        <time>2025-04-28T18:51:33.780Z</time>
      </trkpt>
      <trkpt lat="43.39621" lon="2.0983">
        <ele>607.767819</ele>
        <time>2025-04-28T18:52:00.496Z</time>
      </trkpt>
      <trkpt lat="43.39609" lon="2.09936">
        <ele>609.31618</ele>
        <time>2025-04-28T18:52:27.690Z</time>
      </trkpt>
      <trkpt lat="43.39608" lon="2.09957">
        <ele>609.627423</ele>
        <time>2025-04-28T18:52:33.159Z</time>
      </trkpt>
      <trkpt lat="43.39621" lon="2.10031">
        <ele>610.95645</ele>
        <time>2025-04-28T18:52:52.333Z</time>
      </trkpt>
      <trkpt lat="43.39621" lon="2.10084">
        <ele>611.911506</ele>
        <time>2025-04-28T18:53:05.792Z</time>
      </trkpt>
      <trkpt lat="43.39592" lon="2.10216">
        <ele>614.330224</ele>
        <time>2025-04-28T18:53:41.685Z</time>
      </trkpt>
      <trkpt lat="43.39587" lon="2.10248">
        <ele>614.590608</ele>
        <time>2025-04-28T18:53:50.065Z</time>
      </trkpt>
      <trkpt lat="43.39591" lon="2.10342">
        <ele>615.341854</ele>
        <time>2025-04-28T18:54:13.839Z</time>
      </trkpt>
      <trkpt lat="43.39589" lon="2.10351">
        <ele>615.418372</ele>
        <time>2025-04-28T18:54:16.254Z</time>
      </trkpt>
      <trkpt lat="43.39583" lon="2.10383">
        <ele>615.68294</ele>
        <time>2025-04-28T18:54:24.587Z</time>
      </trkpt>
      <trkpt lat="43.39571" lon="2.1042">
        <ele>616.011761</ele>
        <time>2025-04-28T18:54:34.992Z</time>
      </trkpt>
      <trkpt lat="43.39535" lon="2.10483">
        <ele>615.888921</ele>
        <time>2025-04-28T18:54:55.365Z</time>
      </trkpt>
      <trkpt lat="43.39526" lon="2.10508">
        <ele>615.702761</ele>
        <time>2025-04-28T18:55:02.202Z</time>
      </trkpt>
      <trkpt lat="43.39498" lon="2.10644">
        <ele>614.740655</ele>
        <time>2025-04-28T18:55:36.728Z</time>
      </trkpt>
      <trkpt lat="43.39493" lon="2.10674">
        <ele>614.589015</ele>
        <time>2025-04-28T18:55:44.125Z</time>
      </trkpt>
      <trkpt lat="43.39493" lon="2.10698">
        <ele>614.819394</ele>
        <time>2025-04-28T18:55:50.314Z</time>
      </trkpt>
      <trkpt lat="43.39497" lon="2.10716">
        <ele>614.991342</ele>
        <time>2025-04-28T18:55:54.918Z</time>
      </trkpt>
      <trkpt lat="43.39516" lon="2.10749">
        <ele>615.388874</ele>
        <time>2025-04-28T18:56:05.543Z</time>
      </trkpt>
      <trkpt lat="43.39521" lon="2.10765">
        <ele>615.555926</ele>
        <time>2025-04-28T18:56:10.040Z</time>
      </trkpt>
      <trkpt lat="43.39522" lon="2.10778">
        <ele>615.675465</ele>
        <time>2025-04-28T18:56:13.253Z</time>
      </trkpt>
      <trkpt lat="43.39519" lon="2.10792">
        <ele>615.81007</ele>
        <time>2025-04-28T18:56:16.871Z</time>
      </trkpt>
      <trkpt lat="43.39514" lon="2.10803">
        <ele>615.934315</ele>
        <time>2025-04-28T18:56:20.190Z</time>
      </trkpt>
      <trkpt lat="43.39507" lon="2.1081">
        <ele>616.045143</ele>
        <time>2025-04-28T18:56:23.185Z</time>
      </trkpt>
      <trkpt lat="43.39482" lon="2.10824">
        <ele>616.399592</ele>
        <time>2025-04-28T18:56:32.670Z</time>
      </trkpt>
      <trkpt lat="43.39469" lon="2.10838">
        <ele>616.610004</ele>
        <time>2025-04-28T18:56:38.343Z</time>
      </trkpt>
      <trkpt lat="43.39458" lon="2.10853">
        <ele>616.814817</ele>
        <time>2025-04-28T18:56:43.865Z</time>
      </trkpt>
      <trkpt lat="43.39449" lon="2.10872">
        <ele>617.09059</ele>
        <time>2025-04-28T18:56:49.683Z</time>
      </trkpt>
      <trkpt lat="43.39446" lon="2.10886">
        <ele>617.290902</ele>
        <time>2025-04-28T18:56:53.397Z</time>
      </trkpt>
      <trkpt lat="43.39444" lon="2.10914">
        <ele>617.683105</ele>
        <time>2025-04-28T18:57:00.764Z</time>
      </trkpt>
      <trkpt lat="43.39446" lon="2.1094">
        <ele>618.030826</ele>
        <time>2025-04-28T18:57:07.226Z</time>
      </trkpt>
      <trkpt lat="43.39462" lon="2.11201">
        <ele>620.186282</ele>
        <time>2025-04-28T18:58:13.565Z</time>
      </trkpt>
      <trkpt lat="43.39477" lon="2.11297">
        <ele>620.060978</ele>
        <time>2025-04-28T18:58:38.401Z</time>
      </trkpt>
      <trkpt lat="43.39482" lon="2.11312">
        <ele>620.039835</ele>
        <time>2025-04-28T18:58:42.372Z</time>
      </trkpt>
      <trkpt lat="43.39491" lon="2.11327">
        <ele>620.01463</ele>
        <time>2025-04-28T18:58:46.998Z</time>
      </trkpt>
      <trkpt lat="43.39524" lon="2.11361">
        <ele>619.400201</ele>
        <time>2025-04-28T18:58:59.619Z</time>
      </trkpt>
      <trkpt lat="43.39559" lon="2.11413">
        <ele>618.353234</ele>
        <time>2025-04-28T18:59:14.940Z</time>
      </trkpt>
      <trkpt lat="43.39571" lon="2.11419">
        <ele>618.097415</ele>
        <time>2025-04-28T18:59:18.682Z</time>
      </trkpt>
      <trkpt lat="43.39632" lon="2.11434">
        <ele>616.846777</ele>
        <time>2025-04-28T18:59:37.937Z</time>
      </trkpt>
      <trkpt lat="43.39633" lon="2.11434">
        <ele>616.825696</ele>
        <time>2025-04-28T18:59:38.292Z</time>
      </trkpt>
      <trkpt lat="43.39697" lon="2.11455">
        <ele>618.820942</ele>
        <time>2025-04-28T19:00:01.298Z</time>
      </trkpt>
      <trkpt lat="43.39715" lon="2.11462">
        <ele>619.880757</ele>
        <time>2025-04-28T19:00:08.487Z</time>
      </trkpt>
      <trkpt lat="43.39726" lon="2.11474">
        <ele>620.707016</ele>
        <time>2025-04-28T19:00:14.409Z</time>
      </trkpt>
      <trkpt lat="43.39734" lon="2.11492">
        <ele>621.584966</ele>
        <time>2025-04-28T19:00:21.132Z</time>
      </trkpt>
      <trkpt lat="43.39755" lon="2.11606">
        <ele>626.522293</ele>
        <time>2025-04-28T19:01:01.860Z</time>
      </trkpt>
      <trkpt lat="43.39762" lon="2.11665">
        <ele>627.409447</ele>
        <time>2025-04-28T19:01:20.257Z</time>
      </trkpt>
      <trkpt lat="43.39763" lon="2.11746">
        <ele>628.385937</ele>
        <time>2025-04-28T19:01:41.004Z</time>
      </trkpt>
      <trkpt lat="43.39764" lon="2.11758">
        <ele>628.529231</ele>
        <time>2025-04-28T19:01:44.048Z</time>
      </trkpt>
      <trkpt lat="43.39766" lon="2.11771">
        <ele>628.692016</ele>
        <time>2025-04-28T19:01:47.473Z</time>
      </trkpt>
      <trkpt lat="43.39774" lon="2.11796">
        <ele>629.013988</ele>
        <time>2025-04-28T19:01:53.856Z</time>
      </trkpt>
      <trkpt lat="43.39796" lon="2.11841">
        <ele>629.675031</ele>
        <time>2025-04-28T19:02:06.234Z</time>
      </trkpt>
      <trkpt lat="43.39806" lon="2.11866">
        <ele>629.521524</ele>
        <time>2025-04-28T19:02:12.410Z</time>
      </trkpt>
      <trkpt lat="43.3981" lon="2.11896">
        <ele>629.230044</ele>
        <time>2025-04-28T19:02:19.058Z</time>
      </trkpt>
      <trkpt lat="43.39812" lon="2.11924">
        <ele>628.96305</ele>
        <time>2025-04-28T19:02:25.235Z</time>
      </trkpt>
      <trkpt lat="43.39804" lon="2.12103">
        <ele>627.483428</ele>
        <time>2025-04-28T19:03:10.914Z</time>
      </trkpt>
      <trkpt lat="43.39801" lon="2.12128">
        <ele>627.666483</ele>
        <time>2025-04-28T19:03:17.126Z</time>
      </trkpt>
      <trkpt lat="43.39801" lon="2.12133">
        <ele>627.704158</ele>
        <time>2025-04-28T19:03:18.400Z</time>
      </trkpt>
      <trkpt lat="43.39794" lon="2.12158">
        <ele>627.904812</ele>
        <time>2025-04-28T19:03:25.256Z</time>
      </trkpt>
      <trkpt lat="43.39785" lon="2.12178">
        <ele>628.08742</ele>
        <time>2025-04-28T19:03:31.498Z</time>
      </trkpt>
      <trkpt lat="43.39772" lon="2.12194">
        <ele>628.258749</ele>
        <time>2025-04-28T19:03:37.332Z</time>
      </trkpt>
      <trkpt lat="43.39758" lon="2.12204">
        <ele>628.426381</ele>
        <time>2025-04-28T19:03:43.045Z</time>
      </trkpt>
      <trkpt lat="43.39723" lon="2.12218">
        <ele>628.79942</ele>
        <time>2025-04-28T19:03:55.752Z</time>
      </trkpt>
      <trkpt lat="43.39709" lon="2.12228">
        <ele>628.956218</ele>
        <time>2025-04-28T19:04:01.059Z</time>
      </trkpt>
      <trkpt lat="43.39626" lon="2.12357">
        <ele>626.702302</ele>
        <time>2025-04-28T19:04:43.752Z</time>
      </trkpt>
      <trkpt lat="43.39621" lon="2.12363">
        <ele>626.540679</ele>
        <time>2025-04-28T19:04:45.599Z</time>
      </trkpt>
      <trkpt lat="43.39607" lon="2.12381">
        <ele>626.039768</ele>
        <time>2025-04-28T19:04:51.255Z</time>
      </trkpt>
      <trkpt lat="43.39599" lon="2.12394">
        <ele>625.734487</ele>
        <time>2025-04-28T19:04:54.679Z</time>
      </trkpt>
      <trkpt lat="43.39597" lon="2.12405">
        <ele>625.509273</ele>
        <time>2025-04-28T19:04:57.227Z</time>
      </trkpt>
      <trkpt lat="43.396" lon="2.12417">
        <ele>625.279573</ele>
        <time>2025-04-28T19:04:59.830Z</time>
      </trkpt>
      <trkpt lat="43.39619" lon="2.12438">
        <ele>624.656067</ele>
        <time>2025-04-28T19:05:06.873Z</time>
      </trkpt>
      <trkpt lat="43.39625" lon="2.12446">
        <ele>624.53189</ele>
        <time>2025-04-28T19:05:09.377Z</time>
      </trkpt>
      <trkpt lat="43.39645" lon="2.12481">
        <ele>624.118779</ele>
        <time>2025-04-28T19:05:18.847Z</time>
      </trkpt>
      <trkpt lat="43.39658" lon="2.12507">
        <ele>623.822553</ele>
        <time>2025-04-28T19:05:25.824Z</time>
      </trkpt>
      <trkpt lat="43.39685" lon="2.12548">
        <ele>623.300582</ele>
        <time>2025-04-28T19:05:39.116Z</time>
      </trkpt>
      <trkpt lat="43.39699" lon="2.12564">
        <ele>623.067052</ele>
        <time>2025-04-28T19:05:45.388Z</time>
      </trkpt>
      <trkpt lat="43.3973" lon="2.12597">
        <ele>622.55778</ele>
        <time>2025-04-28T19:05:59.106Z</time>
      </trkpt>
      <trkpt lat="43.39737" lon="2.12613">
        <ele>622.384555</ele>
        <time>2025-04-28T19:06:03.812Z</time>
      </trkpt>
      <trkpt lat="43.39743" lon="2.12646">
        <ele>622.460665</ele>
        <time>2025-04-28T19:06:12.394Z</time>
      </trkpt>
      <trkpt lat="43.39742" lon="2.12669">
        <ele>622.604812</ele>
        <time>2025-04-28T19:06:18.484Z</time>
      </trkpt>
      <trkpt lat="43.3974" lon="2.12682">
        <ele>622.681032</ele>
        <time>2025-04-28T19:06:21.716Z</time>
      </trkpt>
      <trkpt lat="43.39732" lon="2.12737">
        <ele>623.019627</ele>
        <time>2025-04-28T19:06:35.929Z</time>
      </trkpt>
      <trkpt lat="43.39719" lon="2.12779">
        <ele>623.297444</ele>
        <time>2025-04-28T19:06:47.581Z</time>
      </trkpt>
      <trkpt lat="43.39718" lon="2.12788">
        <ele>623.352456</ele>
        <time>2025-04-28T19:06:49.912Z</time>
      </trkpt>
      <trkpt lat="43.39718" lon="2.12799">
        <ele>623.417639</ele>
        <time>2025-04-28T19:06:52.637Z</time>
      </trkpt>
      <trkpt lat="43.39725" lon="2.12829">
        <ele>623.604269</ele>
        <time>2025-04-28T19:07:00.511Z</time>
      </trkpt>
      <trkpt lat="43.39725" lon="2.12845">
        <ele>623.700769</ele>
        <time>2025-04-28T19:07:04.549Z</time>
      </trkpt>
      <trkpt lat="43.3972" lon="2.12874">
        <ele>623.950657</ele>
        <time>2025-04-28T19:07:12.376Z</time>
      </trkpt>
      <trkpt lat="43.3972" lon="2.12891">
        <ele>624.120301</ele>
        <time>2025-04-28T19:07:16.479Z</time>
      </trkpt>
      <trkpt lat="43.39736" lon="2.12954">
        <ele>624.822655</ele>
        <time>2025-04-28T19:07:33.432Z</time>
      </trkpt>
      <trkpt lat="43.39738" lon="2.12975">
        <ele>625.044682</ele>
        <time>2025-04-28T19:07:38.801Z</time>
      </trkpt>
      <trkpt lat="43.39729" lon="2.12992">
        <ele>625.265698</ele>
        <time>2025-04-28T19:07:44.153Z</time>
      </trkpt>
      <trkpt lat="43.39687" lon="2.13048">
        <ele>626.105815</ele>
        <time>2025-04-28T19:08:04.693Z</time>
      </trkpt>
      <trkpt lat="43.39677" lon="2.13055">
        <ele>626.27737</ele>
        <time>2025-04-28T19:08:08.951Z</time>
      </trkpt>
      <trkpt lat="43.39637" lon="2.13068">
        <ele>627.175061</ele>
        <time>2025-04-28T19:08:23.455Z</time>
      </trkpt>
      <trkpt lat="43.39633" lon="2.13071">
        <ele>627.282803</ele>
        <time>2025-04-28T19:08:25.062Z</time>
      </trkpt>
      <trkpt lat="43.39626" lon="2.13076">
        <ele>627.458014</ele>
        <time>2025-04-28T19:08:27.665Z</time>
      </trkpt>
      <trkpt lat="43.3962" lon="2.13086">
        <ele>627.689074</ele>
        <time>2025-04-28T19:08:31.090Z</time>
      </trkpt>
      <trkpt lat="43.39616" lon="2.13099">
        <ele>627.927112</ele>
        <time>2025-04-28T19:08:34.565Z</time>
      </trkpt>
      <trkpt lat="43.39617" lon="2.1313">
        <ele>628.467307</ele>
        <time>2025-04-28T19:08:42.510Z</time>
      </trkpt>
      <trkpt lat="43.39622" lon="2.13144">
        <ele>628.726968</ele>
        <time>2025-04-28T19:08:46.375Z</time>
      </trkpt>
      <trkpt lat="43.39657" lon="2.13192">
        <ele>629.915617</ele>
        <time>2025-04-28T19:09:04.075Z</time>
      </trkpt>
      <trkpt lat="43.39663" lon="2.13207">
        <ele>630.207186</ele>
        <time>2025-04-28T19:09:08.366Z</time>
      </trkpt>
      <trkpt lat="43.39671" lon="2.13238">
        <ele>630.622468</ele>
        <time>2025-04-28T19:09:16.685Z</time>
      </trkpt>
      <trkpt lat="43.39655" lon="2.13237">
        <ele>630.505851</ele>
        <time>2025-04-28T19:09:20.522Z</time>
      </trkpt>
      <trkpt lat="43.39651" lon="2.13237">
        <ele>630.476894</ele>
        <time>2025-04-28T19:09:21.497Z</time>
      </trkpt>
      <trkpt lat="43.39645" lon="2.13265">
        <ele>630.321329</ele>
        <time>2025-04-28T19:09:28.801Z</time>
      </trkpt>
      <trkpt lat="43.39644" lon="2.13297">
        <ele>630.149706</ele>
        <time>2025-04-28T19:09:36.836Z</time>
      </trkpt>
      <trkpt lat="43.3964" lon="2.1334">
        <ele>629.911886</ele>
        <time>2025-04-28T19:09:47.967Z</time>
      </trkpt>
      <trkpt lat="43.39634" lon="2.13356">
        <ele>629.815006</ele>
        <time>2025-04-28T19:09:52.507Z</time>
      </trkpt>
      <trkpt lat="43.39607" lon="2.13406">
        <ele>629.480221</ele>
        <time>2025-04-28T19:10:06.786Z</time>
      </trkpt>
      <trkpt lat="43.39598" lon="2.13432">
        <ele>629.325419</ele>
        <time>2025-04-28T19:10:12.781Z</time>
      </trkpt>
      <trkpt lat="43.39596" lon="2.13531">
        <ele>626.67798</ele>
        <time>2025-04-28T19:10:33.222Z</time>
      </trkpt>
      <trkpt lat="43.39602" lon="2.1355">
        <ele>626.129139</ele>
        <time>2025-04-28T19:10:37.495Z</time>
      </trkpt>
      <trkpt lat="43.39629" lon="2.13576">
        <ele>624.895692</ele>
        <time>2025-04-28T19:10:47.362Z</time>
      </trkpt>
      <trkpt lat="43.39652" lon="2.13584">
        <ele>624.021363</ele>
        <time>2025-04-28T19:10:54.601Z</time>
      </trkpt>
      <trkpt lat="43.39655" lon="2.13591">
        <ele>623.809701</ele>
        <time>2025-04-28T19:10:56.418Z</time>
      </trkpt>
      <trkpt lat="43.39648" lon="2.13632">
        <ele>622.679471</ele>
        <time>2025-04-28T19:11:06.377Z</time>
      </trkpt>
      <trkpt lat="43.39651" lon="2.13646">
        <ele>622.608915</ele>
        <time>2025-04-28T19:11:09.983Z</time>
      </trkpt>
      <trkpt lat="43.3966" lon="2.13658">
        <ele>622.542657</ele>
        <time>2025-04-28T19:11:14.236Z</time>
      </trkpt>
      <trkpt lat="43.39677" lon="2.13672">
        <ele>622.433782</ele>
        <time>2025-04-28T19:11:21.222Z</time>
      </trkpt>
      <trkpt lat="43.39689" lon="2.13677">
        <ele>622.365673</ele>
        <time>2025-04-28T19:11:25.562Z</time>
      </trkpt>
      <trkpt lat="43.39695" lon="2.13688">
        <ele>622.313565</ele>
        <time>2025-04-28T19:11:28.916Z</time>
      </trkpt>
      <trkpt lat="43.39698" lon="2.13704">
        <ele>622.245389</ele>
        <time>2025-04-28T19:11:33.261Z</time>
      </trkpt>
      <trkpt lat="43.39695" lon="2.13719">
        <ele>622.18493</ele>
        <time>2025-04-28T19:11:37.130Z</time>
      </trkpt>
      <trkpt lat="43.39689" lon="2.13728">
        <ele>622.134159</ele>
        <time>2025-04-28T19:11:40.356Z</time>
      </trkpt>
      <trkpt lat="43.39669" lon="2.13732">
        <ele>622.025996</ele>
        <time>2025-04-28T19:11:47.264Z</time>
      </trkpt>
      <trkpt lat="43.39637" lon="2.13748">
        <ele>621.840837</ele>
        <time>2025-04-28T19:11:59.082Z</time>
      </trkpt>
      <trkpt lat="43.39614" lon="2.13748">
        <ele>621.711868</ele>
        <time>2025-04-28T19:12:07.283Z</time>
      </trkpt>
      <trkpt lat="43.39602" lon="2.13751">
        <ele>621.776914</ele>
        <time>2025-04-28T19:12:11.233Z</time>
      </trkpt>
      <trkpt lat="43.39599" lon="2.13756">
        <ele>621.862828</ele>
        <time>2025-04-28T19:12:13.084Z</time>
      </trkpt>
      <trkpt lat="43.39541" lon="2.13835">
        <ele>623.16524</ele>
        <time>2025-04-28T19:12:41.361Z</time>
      </trkpt>
      <trkpt lat="43.39511" lon="2.13872">
        <ele>623.818198</ele>
        <time>2025-04-28T19:12:55.664Z</time>
      </trkpt>
      <trkpt lat="43.39464" lon="2.13922">
        <ele>624.937208</ele>
        <time>2025-04-28T19:13:16.583Z</time>
      </trkpt>
      <trkpt lat="43.39452" lon="2.1394">
        <ele>625.446876</ele>
        <time>2025-04-28T19:13:22.717Z</time>
      </trkpt>
      <trkpt lat="43.39447" lon="2.13957">
        <ele>625.850107</ele>
        <time>2025-04-28T19:13:27.606Z</time>
      </trkpt>
      <trkpt lat="43.39445" lon="2.13991">
        <ele>626.570509</ele>
        <time>2025-04-28T19:13:36.249Z</time>
      </trkpt>
      <trkpt lat="43.39436" lon="2.14224">
        <ele>631.050245</ele>
        <time>2025-04-28T19:14:36.563Z</time>
      </trkpt>
      <trkpt lat="43.39437" lon="2.14321">
        <ele>632.485957</ele>
        <time>2025-04-28T19:15:01.856Z</time>
      </trkpt>
      <trkpt lat="43.39436" lon="2.14332">
        <ele>632.653321</ele>
        <time>2025-04-28T19:15:04.712Z</time>
      </trkpt>
      <trkpt lat="43.39431" lon="2.14339">
        <ele>632.79149</ele>
        <time>2025-04-28T19:15:07.090Z</time>
      </trkpt>
      <trkpt lat="43.39368" lon="2.14351">
        <ele>632.737887</ele>
        <time>2025-04-28T19:15:29.436Z</time>
      </trkpt>
      <trkpt lat="43.39271" lon="2.14375">
        <ele>629.94122</ele>
        <time>2025-04-28T19:15:59.140Z</time>
      </trkpt>
      <trkpt lat="43.39265" lon="2.14386">
        <ele>629.645713</ele>
        <time>2025-04-28T19:16:02.214Z</time>
      </trkpt>
      <trkpt lat="43.39263" lon="2.14401">
        <ele>629.327738</ele>
        <time>2025-04-28T19:16:05.476Z</time>
      </trkpt>
      <trkpt lat="43.39268" lon="2.14474">
        <ele>627.833425</ele>
        <time>2025-04-28T19:16:21.264Z</time>
      </trkpt>
      <trkpt lat="43.39265" lon="2.14485">
        <ele>627.592581</ele>
        <time>2025-04-28T19:16:23.911Z</time>
      </trkpt>
      <trkpt lat="43.39259" lon="2.14491">
        <ele>627.392617</ele>
        <time>2025-04-28T19:16:26.094Z</time>
      </trkpt>
      <trkpt lat="43.3923" lon="2.14495">
        <ele>626.585921</ele>
        <time>2025-04-28T19:16:35.096Z</time>
      </trkpt>
      <trkpt lat="43.3921" lon="2.14504">
        <ele>626.021978</ele>
        <time>2025-04-28T19:16:41.499Z</time>
      </trkpt>
      <trkpt lat="43.39187" lon="2.14527">
        <ele>625.219818</ele>
        <time>2025-04-28T19:16:50.604Z</time>
      </trkpt>
      <trkpt lat="43.39159" lon="2.14565">
        <ele>624.149893</ele>
        <time>2025-04-28T19:17:02.929Z</time>
      </trkpt>
      <trkpt lat="43.39131" lon="2.14619">
        <ele>623.740275</ele>
        <time>2025-04-28T19:17:18.919Z</time>
      </trkpt>
      <trkpt lat="43.39128" lon="2.14629">
        <ele>623.836289</ele>
        <time>2025-04-28T19:17:21.551Z</time>
      </trkpt>
      <trkpt lat="43.39129" lon="2.14638">
        <ele>623.925746</ele>
        <time>2025-04-28T19:17:24.009Z</time>
      </trkpt>
      <trkpt lat="43.39138" lon="2.14655">
        <ele>624.116583</ele>
        <time>2025-04-28T19:17:29.175Z</time>
      </trkpt>
      <trkpt lat="43.39184" lon="2.14674">
        <ele>624.734396</ele>
        <time>2025-04-28T19:17:45.992Z</time>
      </trkpt>
      <trkpt lat="43.39227" lon="2.14698">
        <ele>625.327589</ele>
        <time>2025-04-28T19:18:02.483Z</time>
      </trkpt>
      <trkpt lat="43.39262" lon="2.14705">
        <ele>625.818746</ele>
        <time>2025-04-28T19:18:15.149Z</time>
      </trkpt>
      <trkpt lat="43.39289" lon="2.14721">
        <ele>626.609932</ele>
        <time>2025-04-28T19:18:25.545Z</time>
      </trkpt>
      <trkpt lat="43.39301" lon="2.14732">
        <ele>627.012183</ele>
        <time>2025-04-28T19:18:30.813Z</time>
      </trkpt>
      <trkpt lat="43.39324" lon="2.14765">
        <ele>627.911734</ele>
        <time>2025-04-28T19:18:42.571Z</time>
      </trkpt>
      <trkpt lat="43.3935" lon="2.14787">
        <ele>628.73948</ele>
        <time>2025-04-28T19:18:53.345Z</time>
      </trkpt>
      <trkpt lat="43.39358" lon="2.14806">
        <ele>629.181195</ele>
        <time>2025-04-28T19:18:59.071Z</time>
      </trkpt>
      <trkpt lat="43.39364" lon="2.14836">
        <ele>629.795476</ele>
        <time>2025-04-28T19:19:07.001Z</time>
      </trkpt>
      <trkpt lat="43.39387" lon="2.14865">
        <ele>630.632788</ele>
        <time>2025-04-28T19:19:17.795Z</time>
      </trkpt>
      <trkpt lat="43.39398" lon="2.1489">
        <ele>630.939025</ele>
        <time>2025-04-28T19:19:25.294Z</time>
      </trkpt>
      <trkpt lat="43.39397" lon="2.14901">
        <ele>631.053299</ele>
        <time>2025-04-28T19:19:28.084Z</time>
      </trkpt>
      <trkpt lat="43.39393" lon="2.14911">
        <ele>631.171649</ele>
        <time>2025-04-28T19:19:30.964Z</time>
      </trkpt>
      <trkpt lat="43.39385" lon="2.14918">
        <ele>631.301214</ele>
        <time>2025-04-28T19:19:34.134Z</time>
      </trkpt>
      <trkpt lat="43.39374" lon="2.14924">
        <ele>631.474402</ele>
        <time>2025-04-28T19:19:38.371Z</time>
      </trkpt>
      <trkpt lat="43.39359" lon="2.14927">
        <ele>631.683769</ele>
        <time>2025-04-28T19:19:43.472Z</time>
      </trkpt>
      <trkpt lat="43.39341" lon="2.14926">
        <ele>631.9452</ele>
        <time>2025-04-28T19:19:49.852Z</time>
      </trkpt>
      <trkpt lat="43.39325" lon="2.14922">
        <ele>632.177035</ele>
        <time>2025-04-28T19:19:55.528Z</time>
      </trkpt>
      <trkpt lat="43.39291" lon="2.14905">
        <ele>632.700275</ele>
        <time>2025-04-28T19:20:08.270Z</time>
      </trkpt>
      <trkpt lat="43.39279" lon="2.14905">
        <ele>632.865989</ele>
        <time>2025-04-28T19:20:12.313Z</time>
      </trkpt>
      <trkpt lat="43.39266" lon="2.1491">
        <ele>633.064284</ele>
        <time>2025-04-28T19:20:17.128Z</time>
      </trkpt>
      <trkpt lat="43.39253" lon="2.1492">
        <ele>633.212218</ele>
        <time>2025-04-28T19:20:22.041Z</time>
      </trkpt>
      <trkpt lat="43.39244" lon="2.14935">
        <ele>633.254034</ele>
        <time>2025-04-28T19:20:27.050Z</time>
      </trkpt>
      <trkpt lat="43.3924" lon="2.14951">
        <ele>633.290277</ele>
        <time>2025-04-28T19:20:31.399Z</time>
      </trkpt>
      <trkpt lat="43.39241" lon="2.14968">
        <ele>633.32654</ele>
        <time>2025-04-28T19:20:35.751Z</time>
      </trkpt>
      <trkpt lat="43.39246" lon="2.14989">
        <ele>633.371723</ele>
        <time>2025-04-28T19:20:41.167Z</time>
      </trkpt>
      <trkpt lat="43.39261" lon="2.15021">
        <ele>633.452523</ele>
        <time>2025-04-28T19:20:50.834Z</time>
      </trkpt>
      <trkpt lat="43.39274" lon="2.1504">
        <ele>633.507512</ele>
        <time>2025-04-28T19:20:57.391Z</time>
      </trkpt>
      <trkpt lat="43.39281" lon="2.15047">
        <ele>633.532607</ele>
        <time>2025-04-28T19:21:00.394Z</time>
      </trkpt>
      <trkpt lat="43.39298" lon="2.15058">
        <ele>633.587753</ele>
        <time>2025-04-28T19:21:06.967Z</time>
      </trkpt>
      <trkpt lat="43.39305" lon="2.15066">
        <ele>633.612669</ele>
        <time>2025-04-28T19:21:09.966Z</time>
      </trkpt>
      <trkpt lat="43.39307" lon="2.15074">
        <ele>633.631509</ele>
        <time>2025-04-28T19:21:12.206Z</time>
      </trkpt>
      <trkpt lat="43.39307" lon="2.15084">
        <ele>633.653202</ele>
        <time>2025-04-28T19:21:14.811Z</time>
      </trkpt>
      <trkpt lat="43.39302" lon="2.15103">
        <ele>633.694778</ele>
        <time>2025-04-28T19:21:19.804Z</time>
      </trkpt>
      <trkpt lat="43.39294" lon="2.15115">
        <ele>633.721733</ele>
        <time>2025-04-28T19:21:23.889Z</time>
      </trkpt>
      <trkpt lat="43.39252" lon="2.15158">
        <ele>633.753727</ele>
        <time>2025-04-28T19:21:42.254Z</time>
      </trkpt>
      <trkpt lat="43.39228" lon="2.15196">
        <ele>633.775797</ele>
        <time>2025-04-28T19:21:54.923Z</time>
      </trkpt>
      <trkpt lat="43.3922" lon="2.1522">
        <ele>633.78726</ele>
        <time>2025-04-28T19:22:01.478Z</time>
      </trkpt>
      <trkpt lat="43.39208" lon="2.15278">
        <ele>633.81383</ele>
        <time>2025-04-28T19:22:16.833Z</time>
      </trkpt>
      <trkpt lat="43.39205" lon="2.15304">
        <ele>633.825385</ele>
        <time>2025-04-28T19:22:23.485Z</time>
      </trkpt>
      <trkpt lat="43.39208" lon="2.15333">
        <ele>633.431015</ele>
        <time>2025-04-28T19:22:31.044Z</time>
      </trkpt>
      <trkpt lat="43.39211" lon="2.1537">
        <ele>632.75029</ele>
        <time>2025-04-28T19:22:40.359Z</time>
      </trkpt>
      <trkpt lat="43.39216" lon="2.1539">
        <ele>632.366913</ele>
        <time>2025-04-28T19:22:45.443Z</time>
      </trkpt>
      <trkpt lat="43.39221" lon="2.15398">
        <ele>632.163125</ele>
        <time>2025-04-28T19:22:48.096Z</time>
      </trkpt>
      <trkpt lat="43.39242" lon="2.15411">
        <ele>631.604647</ele>
        <time>2025-04-28T19:22:55.144Z</time>
      </trkpt>
      <trkpt lat="43.39259" lon="2.15412">
        <ele>631.159026</ele>
        <time>2025-04-28T19:23:00.583Z</time>
      </trkpt>
      <trkpt lat="43.39295" lon="2.15425">
        <ele>630.213594</ele>
        <time>2025-04-28T19:23:11.620Z</time>
      </trkpt>
      <trkpt lat="43.39304" lon="2.15428">
        <ele>629.981479</ele>
        <time>2025-04-28T19:23:14.333Z</time>
      </trkpt>
      <trkpt lat="43.39309" lon="2.15432">
        <ele>629.845832</ele>
        <time>2025-04-28T19:23:15.936Z</time>
      </trkpt>
      <trkpt lat="43.39311" lon="2.15438">
        <ele>629.717184</ele>
        <time>2025-04-28T19:23:17.488Z</time>
      </trkpt>
      <trkpt lat="43.39309" lon="2.15447">
        <ele>629.558754</ele>
        <time>2025-04-28T19:23:19.367Z</time>
      </trkpt>
      <trkpt lat="43.39294" lon="2.1547">
        <ele>628.986937</ele>
        <time>2025-04-28T19:23:26.293Z</time>
      </trkpt>
      <trkpt lat="43.39267" lon="2.15499">
        <ele>628.12813</ele>
        <time>2025-04-28T19:23:36.661Z</time>
      </trkpt>
      <trkpt lat="43.39255" lon="2.15521">
        <ele>627.621386</ele>
        <time>2025-04-28T19:23:42.771Z</time>
      </trkpt>
      <trkpt lat="43.39251" lon="2.15538">
        <ele>627.30106</ele>
        <time>2025-04-28T19:23:46.636Z</time>
      </trkpt>
      <trkpt lat="43.39246" lon="2.1559">
        <ele>626.330579</ele>
        <time>2025-04-28T19:23:58.505Z</time>
      </trkpt>
      <trkpt lat="43.39249" lon="2.15604">
        <ele>626.072353</ele>
        <time>2025-04-28T19:24:01.749Z</time>
      </trkpt>
      <trkpt lat="43.39259" lon="2.15633">
        <ele>625.480545</ele>
        <time>2025-04-28T19:24:09.480Z</time>
      </trkpt>
      <trkpt lat="43.3926" lon="2.1564">
        <ele>625.344633</ele>
        <time>2025-04-28T19:24:11.297Z</time>
      </trkpt>
      <trkpt lat="43.39242" lon="2.15683">
        <ele>624.806748</ele>
        <time>2025-04-28T19:24:23.841Z</time>
      </trkpt>
      <trkpt lat="43.39237" lon="2.15703">
        <ele>624.879347</ele>
        <time>2025-04-28T19:24:29.080Z</time>
      </trkpt>
      <trkpt lat="43.39239" lon="2.15719">
        <ele>624.935858</ele>
        <time>2025-04-28T19:24:33.162Z</time>
      </trkpt>
      <trkpt lat="43.39243" lon="2.15727">
        <ele>624.969176</ele>
        <time>2025-04-28T19:24:35.561Z</time>
      </trkpt>
      <trkpt lat="43.39263" lon="2.15746">
        <ele>625.084937</ele>
        <time>2025-04-28T19:24:43.933Z</time>
      </trkpt>
      <trkpt lat="43.39305" lon="2.15767">
        <ele>625.301152</ele>
        <time>2025-04-28T19:24:59.578Z</time>
      </trkpt>
      <trkpt lat="43.39317" lon="2.15777">
        <ele>625.367709</ele>
        <time>2025-04-28T19:25:04.378Z</time>
      </trkpt>
      <trkpt lat="43.39324" lon="2.15788">
        <ele>625.420281</ele>
        <time>2025-04-28T19:25:08.196Z</time>
      </trkpt>
      <trkpt lat="43.39331" lon="2.15803">
        <ele>625.479958</ele>
        <time>2025-04-28T19:25:12.506Z</time>
      </trkpt>
      <trkpt lat="43.39337" lon="2.15831">
        <ele>625.582743</ele>
        <time>2025-04-28T19:25:19.936Z</time>
      </trkpt>
      <trkpt lat="43.39341" lon="2.15839">
        <ele>625.626925</ele>
        <time>2025-04-28T19:25:22.540Z</time>
      </trkpt>
      <trkpt lat="43.39347" lon="2.15844">
        <ele>625.711854</ele>
        <time>2025-04-28T19:25:24.968Z</time>
      </trkpt>
      <trkpt lat="43.39357" lon="2.15844">
        <ele>625.832783</ele>
        <time>2025-04-28T19:25:28.412Z</time>
      </trkpt>
      <trkpt lat="43.39412" lon="2.15825">
        <ele>626.522043</ele>
        <time>2025-04-28T19:25:48.072Z</time>
      </trkpt>
      <trkpt lat="43.39422" lon="2.15823">
        <ele>626.64276</ele>
        <time>2025-04-28T19:25:51.509Z</time>
      </trkpt>
      <trkpt lat="43.39429" lon="2.15827">
        <ele>626.741625</ele>
        <time>2025-04-28T19:25:54.307Z</time>
      </trkpt>
      <trkpt lat="43.39434" lon="2.15839">
        <ele>626.865123</ele>
        <time>2025-04-28T19:25:57.839Z</time>
      </trkpt>
      <trkpt lat="43.39437" lon="2.15858">
        <ele>627.032982</ele>
        <time>2025-04-28T19:26:02.622Z</time>
      </trkpt>
      <trkpt lat="43.39439" lon="2.15944">
        <ele>627.797192</ele>
        <time>2025-04-28T19:26:24.423Z</time>
      </trkpt>
      <trkpt lat="43.39442" lon="2.15959">
        <ele>628.019484</ele>
        <time>2025-04-28T19:26:28.353Z</time>
      </trkpt>
      <trkpt lat="43.39447" lon="2.1597">
        <ele>628.218522</ele>
        <time>2025-04-28T19:26:31.748Z</time>
      </trkpt>
      <trkpt lat="43.39456" lon="2.15978">
        <ele>628.428913</ele>
        <time>2025-04-28T19:26:35.354Z</time>
      </trkpt>
      <trkpt lat="43.39506" lon="2.15996">
        <ele>629.496399</ele>
        <time>2025-04-28T19:26:53.645Z</time>
      </trkpt>
      <trkpt lat="43.39513" lon="2.16001">
        <ele>629.661934</ele>
        <time>2025-04-28T19:26:56.490Z</time>
      </trkpt>
      <trkpt lat="43.39517" lon="2.16009">
        <ele>629.803553</ele>
        <time>2025-04-28T19:26:58.938Z</time>
      </trkpt>
      <trkpt lat="43.39518" lon="2.16045">
        <ele>630.333352</ele>
        <time>2025-04-28T19:27:08.084Z</time>
      </trkpt>
      <trkpt lat="43.39516" lon="2.16066">
        <ele>630.659394</ele>
        <time>2025-04-28T19:27:13.711Z</time>
      </trkpt>
      <trkpt lat="43.395" lon="2.16134">
        <ele>631.43214</ele>
        <time>2025-04-28T19:27:31.649Z</time>
      </trkpt>
      <trkpt lat="43.39499" lon="2.16153">
        <ele>631.350601</ele>
        <time>2025-04-28T19:27:36.405Z</time>
      </trkpt>
      <trkpt lat="43.39502" lon="2.16166">
        <ele>631.289261</ele>
        <time>2025-04-28T19:27:39.999Z</time>
      </trkpt>
      <trkpt lat="43.39547" lon="2.16199">
        <ele>630.985684</ele>
        <time>2025-04-28T19:27:57.830Z</time>
      </trkpt>
      <trkpt lat="43.39559" lon="2.16218">
        <ele>630.87823</ele>
        <time>2025-04-28T19:28:03.923Z</time>
      </trkpt>
      <trkpt lat="43.39561" lon="2.1623">
        <ele>630.824391</ele>
        <time>2025-04-28T19:28:06.922Z</time>
      </trkpt>
      <trkpt lat="43.39558" lon="2.16243">
        <ele>630.767705</ele>
        <time>2025-04-28T19:28:10.127Z</time>
      </trkpt>
      <trkpt lat="43.39553" lon="2.16253">
        <ele>630.716588</ele>
        <time>2025-04-28T19:28:12.965Z</time>
      </trkpt>
      <trkpt lat="43.39542" lon="2.16262">
        <ele>630.639413</ele>
        <time>2025-04-28T19:28:17.215Z</time>
      </trkpt>
      <trkpt lat="43.39535" lon="2.16272">
        <ele>630.57797</ele>
        <time>2025-04-28T19:28:20.612Z</time>
      </trkpt>
      <trkpt lat="43.3953" lon="2.16285">
        <ele>630.515357</ele>
        <time>2025-04-28T19:28:24.057Z</time>
      </trkpt>
      <trkpt lat="43.39526" lon="2.16314">
        <ele>630.476582</ele>
        <time>2025-04-28T19:28:31.098Z</time>
      </trkpt>
      <trkpt lat="43.39521" lon="2.16324">
        <ele>630.552107</ele>
        <time>2025-04-28T19:28:34.066Z</time>
      </trkpt>
      <trkpt lat="43.39482" lon="2.16361">
        <ele>630.951347</ele>
        <time>2025-04-28T19:28:50.613Z</time>
      </trkpt>
      <trkpt lat="43.39463" lon="2.16389">
        <ele>631.190744</ele>
        <time>2025-04-28T19:29:00.475Z</time>
      </trkpt>
      <trkpt lat="43.39448" lon="2.16436">
        <ele>631.508248</ele>
        <time>2025-04-28T19:29:13.556Z</time>
      </trkpt>
      <trkpt lat="43.39446" lon="2.16452">
        <ele>631.608055</ele>
        <time>2025-04-28T19:29:17.730Z</time>
      </trkpt>
      <trkpt lat="43.39417" lon="2.16477">
        <ele>631.893449</ele>
        <time>2025-04-28T19:29:26.424Z</time>
      </trkpt>
      <trkpt lat="43.39391" lon="2.16494">
        <ele>632.452482</ele>
        <time>2025-04-28T19:29:34.168Z</time>
      </trkpt>
      <trkpt lat="43.39372" lon="2.16502">
        <ele>632.888499</ele>
        <time>2025-04-28T19:29:39.608Z</time>
      </trkpt>
      <trkpt lat="43.39375" lon="2.16531">
        <ele>633.353249</ele>
        <time>2025-04-28T19:29:47.306Z</time>
      </trkpt>
      <trkpt lat="43.39376" lon="2.16541">
        <ele>633.508109</ele>
        <time>2025-04-28T19:29:49.833Z</time>
      </trkpt>
      <trkpt lat="43.39381" lon="2.16658">
        <ele>635.373081</ele>
        <time>2025-04-28T19:30:19.684Z</time>
      </trkpt>
      <trkpt lat="43.39387" lon="2.16718">
        <ele>635.733682</ele>
        <time>2025-04-28T19:30:35.036Z</time>
      </trkpt>
      <trkpt lat="43.39398" lon="2.16794">
        <ele>635.351068</ele>
        <time>2025-04-28T19:30:54.724Z</time>
      </trkpt>
      <trkpt lat="43.394" lon="2.16828">
        <ele>635.182253</ele>
        <time>2025-04-28T19:31:03.142Z</time>
      </trkpt>
      <trkpt lat="43.39398" lon="2.16904">
        <ele>634.805103</ele>
        <time>2025-04-28T19:31:21.687Z</time>
      </trkpt>
      <trkpt lat="43.39406" lon="2.16941">
        <ele>634.679281</ele>
        <time>2025-04-28T19:31:31.139Z</time>
      </trkpt>
      <trkpt lat="43.39417" lon="2.16956">
        <ele>634.751994</ele>
        <time>2025-04-28T19:31:36.521Z</time>
      </trkpt>
      <trkpt lat="43.39437" lon="2.1697">
        <ele>634.857282</ele>
        <time>2025-04-28T19:31:44.341Z</time>
      </trkpt>
      <trkpt lat="43.39464" lon="2.16979">
        <ele>634.984615</ele>
        <time>2025-04-28T19:31:53.887Z</time>
      </trkpt>
      <trkpt lat="43.39542" lon="2.16981">
        <ele>635.35086</ele>
        <time>2025-04-28T19:32:21.049Z</time>
      </trkpt>
      <trkpt lat="43.39567" lon="2.16976">
        <ele>635.47024</ele>
        <time>2025-04-28T19:32:30.040Z</time>
      </trkpt>
      <trkpt lat="43.39591" lon="2.16975">
        <ele>636.211493</ele>
        <time>2025-04-28T19:32:38.517Z</time>
      </trkpt>
      <trkpt lat="43.39618" lon="2.1698">
        <ele>637.283307</ele>
        <time>2025-04-28T19:32:48.471Z</time>
      </trkpt>
      <trkpt lat="43.39627" lon="2.16991">
        <ele>637.779007</ele>
        <time>2025-04-28T19:32:53.112Z</time>
      </trkpt>
      <trkpt lat="43.39628" lon="2.17028">
        <ele>638.834216</ele>
        <time>2025-04-28T19:33:03.132Z</time>
      </trkpt>
      <trkpt lat="43.39637" lon="2.17045">
        <ele>639.444546</ele>
        <time>2025-04-28T19:33:08.901Z</time>
      </trkpt>
      <trkpt lat="43.39674" lon="2.17103">
        <ele>641.625978</ele>
        <time>2025-04-28T19:33:29.724Z</time>
      </trkpt>
      <trkpt lat="43.39681" lon="2.17123">
        <ele>642.280928</ele>
        <time>2025-04-28T19:33:36.112Z</time>
      </trkpt>
      <trkpt lat="43.39689" lon="2.17251">
        <ele>644.966872</ele>
        <time>2025-04-28T19:34:10.050Z</time>
      </trkpt>
      <trkpt lat="43.397" lon="2.17261">
        <ele>645.334658</ele>
        <time>2025-04-28T19:34:14.743Z</time>
      </trkpt>
      <trkpt lat="43.39715" lon="2.17259">
        <ele>645.748628</ele>
        <time>2025-04-28T19:34:20.005Z</time>
      </trkpt>
      <trkpt lat="43.39724" lon="2.17251">
        <ele>646.048389</ele>
        <time>2025-04-28T19:34:23.758Z</time>
      </trkpt>
      <trkpt lat="43.39737" lon="2.1722">
        <ele>646.758248</ele>
        <time>2025-04-28T19:34:32.657Z</time>
      </trkpt>
      <trkpt lat="43.39737" lon="2.17245">
        <ele>647.250414</ele>
        <time>2025-04-28T19:34:54.492Z</time>
      </trkpt>
      <trkpt lat="43.39735" lon="2.17295">
        <ele>647.158403</ele>
        <time>2025-04-28T19:35:03.040Z</time>
      </trkpt>
      <trkpt lat="43.39737" lon="2.17245">
        <ele>646.531141</ele>
        <time>2025-04-28T19:35:10.484Z</time>
      </trkpt>
      <trkpt lat="43.39737" lon="2.1722">
        <ele>646.232158</ele>
        <time>2025-04-28T19:35:32.319Z</time>
      </trkpt>
      <trkpt lat="43.39724" lon="2.17251">
        <ele>645.800931</ele>
        <time>2025-04-28T19:35:40.626Z</time>
      </trkpt>
      <trkpt lat="43.39715" lon="2.17259">
        <ele>645.618831</ele>
        <time>2025-04-28T19:35:44.087Z</time>
      </trkpt>
      <trkpt lat="43.397" lon="2.17261">
        <ele>645.367352</ele>
        <time>2025-04-28T19:35:48.791Z</time>
      </trkpt>
      <trkpt lat="43.39689" lon="2.17251">
        <ele>645.143928</ele>
        <time>2025-04-28T19:35:52.835Z</time>
      </trkpt>
      <trkpt lat="43.39681" lon="2.17123">
        <ele>642.149222</ele>
        <time>2025-04-28T19:36:20.878Z</time>
      </trkpt>
      <trkpt lat="43.39674" lon="2.17103">
        <ele>641.457955</ele>
        <time>2025-04-28T19:36:25.683Z</time>
      </trkpt>
      <trkpt lat="43.39637" lon="2.17045">
        <ele>639.155565</ele>
        <time>2025-04-28T19:36:41.885Z</time>
      </trkpt>
      <trkpt lat="43.39628" lon="2.17028">
        <ele>638.511393</ele>
        <time>2025-04-28T19:36:46.427Z</time>
      </trkpt>
      <trkpt lat="43.39627" lon="2.16991">
        <ele>637.397674</ele>
        <time>2025-04-28T19:36:54.312Z</time>
      </trkpt>
      <trkpt lat="43.39618" lon="2.1698">
        <ele>636.998317</ele>
        <time>2025-04-28T19:36:58.027Z</time>
      </trkpt>
      <trkpt lat="43.39591" lon="2.16975">
        <ele>636.577056</ele>
        <time>2025-04-28T19:37:06.208Z</time>
      </trkpt>
      <trkpt lat="43.39567" lon="2.16976">
        <ele>636.21047</ele>
        <time>2025-04-28T19:37:13.443Z</time>
      </trkpt>
      <trkpt lat="43.39542" lon="2.16981">
        <ele>635.816423</ele>
        <time>2025-04-28T19:37:21.452Z</time>
      </trkpt>
      <trkpt lat="43.39464" lon="2.16979">
        <ele>634.607526</ele>
        <time>2025-04-28T19:37:48.696Z</time>
      </trkpt>
      <trkpt lat="43.39437" lon="2.1697">
        <ele>634.352594</ele>
        <time>2025-04-28T19:37:58.179Z</time>
      </trkpt>
      <trkpt lat="43.39417" lon="2.16956">
        <ele>634.555862</ele>
        <time>2025-04-28T19:38:05.987Z</time>
      </trkpt>
      <trkpt lat="43.39406" lon="2.16941">
        <ele>634.696242</ele>
        <time>2025-04-28T19:38:11.391Z</time>
      </trkpt>
      <trkpt lat="43.39398" lon="2.16904">
        <ele>634.946335</ele>
        <time>2025-04-28T19:38:21.018Z</time>
      </trkpt>
      <trkpt lat="43.394" lon="2.16828">
        <ele>635.447327</ele>
        <time>2025-04-28T19:38:40.300Z</time>
      </trkpt>
      <trkpt lat="43.39398" lon="2.16794">
        <ele>635.671575</ele>
        <time>2025-04-28T19:38:48.954Z</time>
      </trkpt>
      <trkpt lat="43.39387" lon="2.16718">
        <ele>635.532746</ele>
        <time>2025-04-28T19:39:08.516Z</time>
      </trkpt>
      <trkpt lat="43.39381" lon="2.16658">
        <ele>634.94483</ele>
        <time>2025-04-28T19:39:23.901Z</time>
      </trkpt>
      <trkpt lat="43.39376" lon="2.16541">
        <ele>633.81305</ele>
        <time>2025-04-28T19:39:51.212Z</time>
      </trkpt>
      <trkpt lat="43.39375" lon="2.16531">
        <ele>633.719071</ele>
        <time>2025-04-28T19:39:53.441Z</time>
      </trkpt>
      <trkpt lat="43.39372" lon="2.16502">
        <ele>633.433937</ele>
        <time>2025-04-28T19:39:59.907Z</time>
      </trkpt>
      <trkpt lat="43.39391" lon="2.16494">
        <ele>633.160492</ele>
        <time>2025-04-28T19:40:03.338Z</time>
      </trkpt>
      <trkpt lat="43.39357" lon="2.16461">
        <ele>632.595868</ele>
        <time>2025-04-28T19:40:16.352Z</time>
      </trkpt>
      <trkpt lat="43.39323" lon="2.16474">
        <ele>632.113001</ele>
        <time>2025-04-28T19:40:27.869Z</time>
      </trkpt>
      <trkpt lat="43.39312" lon="2.16462">
        <ele>631.918246</ele>
        <time>2025-04-28T19:40:32.703Z</time>
      </trkpt>
      <trkpt lat="43.39293" lon="2.16424">
        <ele>631.466431</ele>
        <time>2025-04-28T19:40:44.156Z</time>
      </trkpt>
      <trkpt lat="43.39196" lon="2.16383">
        <ele>630.62263</ele>
        <time>2025-04-28T19:41:19.357Z</time>
      </trkpt>
      <trkpt lat="43.3918" lon="2.16364">
        <ele>630.486817</ele>
        <time>2025-04-28T19:41:27.024Z</time>
      </trkpt>
      <trkpt lat="43.39173" lon="2.16344">
        <ele>630.390378</ele>
        <time>2025-04-28T19:41:32.554Z</time>
      </trkpt>
      <trkpt lat="43.39174" lon="2.16284">
        <ele>630.124883</ele>
        <time>2025-04-28T19:41:47.235Z</time>
      </trkpt>
      <trkpt lat="43.39198" lon="2.16237">
        <ele>629.44637</ele>
        <time>2025-04-28T19:42:00.411Z</time>
      </trkpt>
      <trkpt lat="43.39246" lon="2.16175">
        <ele>627.075072</ele>
        <time>2025-04-28T19:42:20.727Z</time>
      </trkpt>
      <trkpt lat="43.39262" lon="2.16136">
        <ele>625.922658</ele>
        <time>2025-04-28T19:42:30.352Z</time>
      </trkpt>
      <trkpt lat="43.39241" lon="2.16082">
        <ele>624.332982</ele>
        <time>2025-04-28T19:42:43.487Z</time>
      </trkpt>
      <trkpt lat="43.39213" lon="2.16077">
        <ele>623.468566</ele>
        <time>2025-04-28T19:42:51.876Z</time>
      </trkpt>
      <trkpt lat="43.39167" lon="2.16033">
        <ele>622.821528</ele>
        <time>2025-04-28T19:43:08.419Z</time>
      </trkpt>
      <trkpt lat="43.39089" lon="2.16011">
        <ele>621.907117</ele>
        <time>2025-04-28T19:43:34.870Z</time>
      </trkpt>
      <trkpt lat="43.39046" lon="2.16036">
        <ele>621.915606</ele>
        <time>2025-04-28T19:43:51.504Z</time>
      </trkpt>
      <trkpt lat="43.39001" lon="2.16117">
        <ele>625.708279</ele>
        <time>2025-04-28T19:44:20.528Z</time>
      </trkpt>
      <trkpt lat="43.38945" lon="2.16146">
        <ele>628.793522</ele>
        <time>2025-04-28T19:44:46.196Z</time>
      </trkpt>
      <trkpt lat="43.38943" lon="2.16177">
        <ele>629.955435</ele>
        <time>2025-04-28T19:44:55.447Z</time>
      </trkpt>
      <trkpt lat="43.38907" lon="2.16113">
        <ele>630.918225</ele>
        <time>2025-04-28T19:45:17.475Z</time>
      </trkpt>
      <trkpt lat="43.38872" lon="2.1609">
        <ele>631.101319</ele>
        <time>2025-04-28T19:45:30.744Z</time>
      </trkpt>
      <trkpt lat="43.38867" lon="2.16078">
        <ele>631.150162</ele>
        <time>2025-04-28T19:45:34.265Z</time>
      </trkpt>
      <trkpt lat="43.3887" lon="2.16055">
        <ele>631.230916</ele>
        <time>2025-04-28T19:45:40.142Z</time>
      </trkpt>
      <trkpt lat="43.38882" lon="2.15996">
        <ele>631.444556</ele>
        <time>2025-04-28T19:45:54.657Z</time>
      </trkpt>
      <trkpt lat="43.38891" lon="2.15933">
        <ele>631.03228</ele>
        <time>2025-04-28T19:46:08.753Z</time>
      </trkpt>
      <trkpt lat="43.38851" lon="2.15807">
        <ele>628.518904</ele>
        <time>2025-04-28T19:46:38.593Z</time>
      </trkpt>
      <trkpt lat="43.38823" lon="2.15771">
        <ele>627.543947</ele>
        <time>2025-04-28T19:46:51.581Z</time>
      </trkpt>
      <trkpt lat="43.38733" lon="2.15773">
        <ele>627.229203</ele>
        <time>2025-04-28T19:47:23.116Z</time>
      </trkpt>
      <trkpt lat="43.38695" lon="2.15788">
        <ele>627.347213</ele>
        <time>2025-04-28T19:47:36.840Z</time>
      </trkpt>
      <trkpt lat="43.38651" lon="2.1579">
        <ele>627.478693</ele>
        <time>2025-04-28T19:47:52.093Z</time>
      </trkpt>
      <trkpt lat="43.3861" lon="2.15765">
        <ele>627.888076</ele>
        <time>2025-04-28T19:48:07.868Z</time>
      </trkpt>
      <trkpt lat="43.38599" lon="2.15763">
        <ele>628.070826</ele>
        <time>2025-04-28T19:48:11.485Z</time>
      </trkpt>
      <trkpt lat="43.38574" lon="2.15757">
        <ele>628.514844</ele>
        <time>2025-04-28T19:48:20.299Z</time>
      </trkpt>
      <trkpt lat="43.38456" lon="2.1582">
        <ele>630.723945</ele>
        <time>2025-04-28T19:49:04.593Z</time>
      </trkpt>
      <trkpt lat="43.38422" lon="2.15854">
        <ele>631.267444</ele>
        <time>2025-04-28T19:49:19.703Z</time>
      </trkpt>
      <trkpt lat="43.38396" lon="2.15896">
        <ele>631.776032</ele>
        <time>2025-04-28T19:49:33.579Z</time>
      </trkpt>
      <trkpt lat="43.38385" lon="2.15928">
        <ele>632.109525</ele>
        <time>2025-04-28T19:49:42.683Z</time>
      </trkpt>
      <trkpt lat="43.38379" lon="2.15944">
        <ele>632.275876</ele>
        <time>2025-04-28T19:49:47.209Z</time>
      </trkpt>
      <trkpt lat="43.38372" lon="2.15977">
        <ele>632.588914</ele>
        <time>2025-04-28T19:49:55.746Z</time>
      </trkpt>
      <trkpt lat="43.3837" lon="2.1602">
        <ele>632.990043</ele>
        <time>2025-04-28T19:50:06.677Z</time>
      </trkpt>
      <trkpt lat="43.38372" lon="2.16048">
        <ele>632.967964</ele>
        <time>2025-04-28T19:50:13.734Z</time>
      </trkpt>
      <trkpt lat="43.38379" lon="2.16071">
        <ele>632.935449</ele>
        <time>2025-04-28T19:50:20.053Z</time>
      </trkpt>
      <trkpt lat="43.38393" lon="2.16084">
        <ele>632.90623</ele>
        <time>2025-04-28T19:50:25.745Z</time>
      </trkpt>
      <trkpt lat="43.3848" lon="2.16128">
        <ele>632.740176</ele>
        <time>2025-04-28T19:50:58.090Z</time>
      </trkpt>
      <trkpt lat="43.38508" lon="2.16146">
        <ele>632.685304</ele>
        <time>2025-04-28T19:51:08.634Z</time>
      </trkpt>
      <trkpt lat="43.38549" lon="2.1615">
        <ele>632.18193</ele>
        <time>2025-04-28T19:51:21.980Z</time>
      </trkpt>
      <trkpt lat="43.38558" lon="2.16157">
        <ele>632.057187</ele>
        <time>2025-04-28T19:51:25.049Z</time>
      </trkpt>
      <trkpt lat="43.3856" lon="2.16169">
        <ele>631.946578</ele>
        <time>2025-04-28T19:51:27.772Z</time>
      </trkpt>
      <trkpt lat="43.38547" lon="2.16197">
        <ele>631.640858</ele>
        <time>2025-04-28T19:51:35.393Z</time>
      </trkpt>
      <trkpt lat="43.3854" lon="2.16223">
        <ele>631.388817</ele>
        <time>2025-04-28T19:51:41.838Z</time>
      </trkpt>
      <trkpt lat="43.38536" lon="2.16287">
        <ele>630.798211</ele>
        <time>2025-04-28T19:51:57.862Z</time>
      </trkpt>
      <trkpt lat="43.38543" lon="2.16317">
        <ele>630.518053</ele>
        <time>2025-04-28T19:52:05.647Z</time>
      </trkpt>
      <trkpt lat="43.38553" lon="2.16332">
        <ele>630.558192</ele>
        <time>2025-04-28T19:52:10.914Z</time>
      </trkpt>
      <trkpt lat="43.3859" lon="2.16352">
        <ele>631.356654</ele>
        <time>2025-04-28T19:52:24.819Z</time>
      </trkpt>
      <trkpt lat="43.38597" lon="2.16364">
        <ele>631.574589</ele>
        <time>2025-04-28T19:52:28.651Z</time>
      </trkpt>
      <trkpt lat="43.38605" lon="2.16378">
        <ele>631.827273</ele>
        <time>2025-04-28T19:52:33.144Z</time>
      </trkpt>
      <trkpt lat="43.3861" lon="2.16391">
        <ele>632.047341</ele>
        <time>2025-04-28T19:52:37.047Z</time>
      </trkpt>
      <trkpt lat="43.38618" lon="2.16398">
        <ele>632.240115</ele>
        <time>2025-04-28T19:52:40.548Z</time>
      </trkpt>
      <trkpt lat="43.38648" lon="2.16413">
        <ele>632.86683</ele>
        <time>2025-04-28T19:52:51.722Z</time>
      </trkpt>
      <trkpt lat="43.38661" lon="2.16423">
        <ele>633.163156</ele>
        <time>2025-04-28T19:52:56.955Z</time>
      </trkpt>
      <trkpt lat="43.38668" lon="2.16434">
        <ele>633.383488</ele>
        <time>2025-04-28T19:53:00.819Z</time>
      </trkpt>
      <trkpt lat="43.38671" lon="2.1645">
        <ele>633.627631</ele>
        <time>2025-04-28T19:53:05.072Z</time>
      </trkpt>
      <trkpt lat="43.38669" lon="2.1648">
        <ele>634.019228</ele>
        <time>2025-04-28T19:53:12.523Z</time>
      </trkpt>
      <trkpt lat="43.3866" lon="2.16498">
        <ele>634.074427</ele>
        <time>2025-04-28T19:53:18.226Z</time>
      </trkpt>
      <trkpt lat="43.38624" lon="2.1654">
        <ele>634.232826</ele>
        <time>2025-04-28T19:53:34.667Z</time>
      </trkpt>
      <trkpt lat="43.38605" lon="2.16563">
        <ele>634.317494</ele>
        <time>2025-04-28T19:53:43.419Z</time>
      </trkpt>
      <trkpt lat="43.38544" lon="2.16607">
        <ele>634.550457</ele>
        <time>2025-04-28T19:54:07.437Z</time>
      </trkpt>
      <trkpt lat="43.38483" lon="2.16638">
        <ele>633.464472</ele>
        <time>2025-04-28T19:54:27.633Z</time>
      </trkpt>
      <trkpt lat="43.38469" lon="2.16639">
        <ele>633.110792</ele>
        <time>2025-04-28T19:54:31.716Z</time>
      </trkpt>
      <trkpt lat="43.38442" lon="2.16624">
        <ele>632.358578</ele>
        <time>2025-04-28T19:54:40.281Z</time>
      </trkpt>
      <trkpt lat="43.38416" lon="2.16625">
        <ele>631.682099</ele>
        <time>2025-04-28T19:54:48.054Z</time>
      </trkpt>
      <trkpt lat="43.38399" lon="2.16633">
        <ele>631.2289</ele>
        <time>2025-04-28T19:54:53.459Z</time>
      </trkpt>
      <trkpt lat="43.38384" lon="2.16655">
        <ele>630.665486</ele>
        <time>2025-04-28T19:55:00.402Z</time>
      </trkpt>
      <trkpt lat="43.38374" lon="2.16681">
        <ele>630.124202</ele>
        <time>2025-04-28T19:55:07.421Z</time>
      </trkpt>
      <trkpt lat="43.3837" lon="2.16703">
        <ele>630.329865</ele>
        <time>2025-04-28T19:55:13.341Z</time>
      </trkpt>
      <trkpt lat="43.3837" lon="2.16716">
        <ele>630.570089</ele>
        <time>2025-04-28T19:55:16.562Z</time>
      </trkpt>
      <trkpt lat="43.38376" lon="2.16733">
        <ele>630.93102</ele>
        <time>2025-04-28T19:55:21.388Z</time>
      </trkpt>
      <trkpt lat="43.38408" lon="2.16767">
        <ele>631.975283</ele>
        <time>2025-04-28T19:55:35.506Z</time>
      </trkpt>
      <trkpt lat="43.38418" lon="2.16782">
        <ele>632.368762</ele>
        <time>2025-04-28T19:55:41.008Z</time>
      </trkpt>
      <trkpt lat="43.38444" lon="2.16838">
        <ele>633.62284</ele>
        <time>2025-04-28T19:55:59.013Z</time>
      </trkpt>
      <trkpt lat="43.38475" lon="2.16926">
        <ele>635.360537</ele>
        <time>2025-04-28T19:56:25.326Z</time>
      </trkpt>
      <trkpt lat="43.38489" lon="2.16951">
        <ele>635.863934</ele>
        <time>2025-04-28T19:56:33.436Z</time>
      </trkpt>
      <trkpt lat="43.38501" lon="2.16954">
        <ele>636.140149</ele>
        <time>2025-04-28T19:56:37.838Z</time>
      </trkpt>
      <trkpt lat="43.38511" lon="2.16951">
        <ele>636.367174</ele>
        <time>2025-04-28T19:56:41.425Z</time>
      </trkpt>
      <trkpt lat="43.38546" lon="2.1692">
        <ele>637.278036</ele>
        <time>2025-04-28T19:56:55.763Z</time>
      </trkpt>
      <trkpt lat="43.38566" lon="2.16918">
        <ele>637.732364</ele>
        <time>2025-04-28T19:57:02.912Z</time>
      </trkpt>
      <trkpt lat="43.38577" lon="2.16919">
        <ele>637.979703</ele>
        <time>2025-04-28T19:57:06.801Z</time>
      </trkpt>
      <trkpt lat="43.38593" lon="2.16927">
        <ele>638.363616</ele>
        <time>2025-04-28T19:57:12.793Z</time>
      </trkpt>
      <trkpt lat="43.38596" lon="2.1693">
        <ele>638.424888</ele>
        <time>2025-04-28T19:57:13.775Z</time>
      </trkpt>
      <trkpt lat="43.38633" lon="2.16969">
        <ele>638.221897</ele>
        <time>2025-04-28T19:57:30.095Z</time>
      </trkpt>
      <trkpt lat="43.3864" lon="2.16985">
        <ele>638.044065</ele>
        <time>2025-04-28T19:57:34.937Z</time>
      </trkpt>
      <trkpt lat="43.38642" lon="2.17005">
        <ele>637.856325</ele>
        <time>2025-04-28T19:57:40.078Z</time>
      </trkpt>
      <trkpt lat="43.38637" lon="2.17047">
        <ele>637.460895</ele>
        <time>2025-04-28T19:57:50.786Z</time>
      </trkpt>
      <trkpt lat="43.38637" lon="2.1713">
        <ele>636.693001</ele>
        <time>2025-04-28T19:58:10.190Z</time>
      </trkpt>
      <trkpt lat="43.3865" lon="2.17171">
        <ele>636.154314</ele>
        <time>2025-04-28T19:58:20.041Z</time>
      </trkpt>
      <trkpt lat="43.38649" lon="2.17184">
        <ele>635.859818</ele>
        <time>2025-04-28T19:58:23.061Z</time>
      </trkpt>
      <trkpt lat="43.38641" lon="2.17201">
        <ele>635.430344</ele>
        <time>2025-04-28T19:58:27.518Z</time>
      </trkpt>
      <trkpt lat="43.3859" lon="2.17264">
        <ele>633.417123</ele>
        <time>2025-04-28T19:58:48.966Z</time>
      </trkpt>
      <trkpt lat="43.38585" lon="2.17276">
        <ele>633.111736</ele>
        <time>2025-04-28T19:58:52.204Z</time>
      </trkpt>
      <trkpt lat="43.38582" lon="2.17299">
        <ele>632.622156</ele>
        <time>2025-04-28T19:58:57.386Z</time>
      </trkpt>
      <trkpt lat="43.38606" lon="2.17358">
        <ele>631.190693</ele>
        <time>2025-04-28T19:59:12.464Z</time>
      </trkpt>
      <trkpt lat="43.38608" lon="2.17381">
        <ele>630.909294</ele>
        <time>2025-04-28T19:59:17.808Z</time>
      </trkpt>
      <trkpt lat="43.38604" lon="2.17391">
        <ele>630.795018</ele>
        <time>2025-04-28T19:59:20.402Z</time>
      </trkpt>
      <trkpt lat="43.38596" lon="2.17396">
        <ele>630.684311</ele>
        <time>2025-04-28T19:59:22.947Z</time>
      </trkpt>
      <trkpt lat="43.38482" lon="2.174">
        <ele>629.123968</ele>
        <time>2025-04-28T19:59:59.935Z</time>
      </trkpt>
      <trkpt lat="43.38458" lon="2.17407">
        <ele>628.793153</ele>
        <time>2025-04-28T20:00:08.368Z</time>
      </trkpt>
      <trkpt lat="43.38442" lon="2.17423">
        <ele>628.973458</ele>
        <time>2025-04-28T20:00:15.430Z</time>
      </trkpt>
      <trkpt lat="43.38433" lon="2.17437">
        <ele>629.420493</ele>
        <time>2025-04-28T20:00:20.168Z</time>
      </trkpt>
      <trkpt lat="43.38427" lon="2.17458">
        <ele>629.954181</ele>
        <time>2025-04-28T20:00:25.897Z</time>
      </trkpt>
      <trkpt lat="43.38429" lon="2.17472">
        <ele>630.308949</ele>
        <time>2025-04-28T20:00:29.814Z</time>
      </trkpt>
      <trkpt lat="43.38455" lon="2.17552">
        <ele>632.423504</ele>
        <time>2025-04-28T20:00:53.943Z</time>
      </trkpt>
      <trkpt lat="43.38473" lon="2.17587">
        <ele>633.439827</ele>
        <time>2025-04-28T20:01:05.755Z</time>
      </trkpt>
      <trkpt lat="43.38475" lon="2.17603">
        <ele>633.850253</ele>
        <time>2025-04-28T20:01:10.388Z</time>
      </trkpt>
      <trkpt lat="43.3847" lon="2.17622">
        <ele>634.321607</ele>
        <time>2025-04-28T20:01:15.454Z</time>
      </trkpt>
      <trkpt lat="43.38457" lon="2.17641">
        <ele>634.652832</ele>
        <time>2025-04-28T20:01:22.381Z</time>
      </trkpt>
      <trkpt lat="43.38453" lon="2.17663">
        <ele>634.707599</ele>
        <time>2025-04-28T20:01:28.091Z</time>
      </trkpt>
      <trkpt lat="43.38455" lon="2.17671">
        <ele>634.727744</ele>
        <time>2025-04-28T20:01:30.174Z</time>
      </trkpt>
      <trkpt lat="43.38456" lon="2.17675">
        <ele>634.736209</ele>
        <time>2025-04-28T20:01:31.049Z</time>
      </trkpt>
      <trkpt lat="43.38477" lon="2.17721">
        <ele>634.869106</ele>
        <time>2025-04-28T20:01:44.853Z</time>
      </trkpt>
      <trkpt lat="43.38479" lon="2.17741">
        <ele>634.918722</ele>
        <time>2025-04-28T20:01:50.017Z</time>
      </trkpt>
      <trkpt lat="43.38476" lon="2.17808">
        <ele>635.082851</ele>
        <time>2025-04-28T20:02:07.179Z</time>
      </trkpt>
      <trkpt lat="43.3848" lon="2.17821">
        <ele>635.117201</ele>
        <time>2025-04-28T20:02:10.754Z</time>
      </trkpt>
      <trkpt lat="43.38487" lon="2.17835">
        <ele>635.158958</ele>
        <time>2025-04-28T20:02:15.039Z</time>
      </trkpt>
      <trkpt lat="43.38504" lon="2.17843">
        <ele>635.217077</ele>
        <time>2025-04-28T20:02:21.248Z</time>
      </trkpt>
      <trkpt lat="43.38515" lon="2.17855">
        <ele>635.052577</ele>
        <time>2025-04-28T20:02:25.895Z</time>
      </trkpt>
      <trkpt lat="43.38533" lon="2.17895">
        <ele>634.638054</ele>
        <time>2025-04-28T20:02:37.663Z</time>
      </trkpt>
      <trkpt lat="43.38531" lon="2.17908">
        <ele>634.522259</ele>
        <time>2025-04-28T20:02:40.909Z</time>
      </trkpt>
      <trkpt lat="43.38519" lon="2.17922">
        <ele>634.334612</ele>
        <time>2025-04-28T20:02:46.169Z</time>
      </trkpt>
      <trkpt lat="43.38501" lon="2.17945">
        <ele>634.035989</ele>
        <time>2025-04-28T20:02:54.558Z</time>
      </trkpt>
      <trkpt lat="43.38495" lon="2.17967">
        <ele>633.831469</ele>
        <time>2025-04-28T20:03:00.278Z</time>
      </trkpt>
      <trkpt lat="43.38491" lon="2.1802">
        <ele>633.370648</ele>
        <time>2025-04-28T20:03:13.164Z</time>
      </trkpt>
      <trkpt lat="43.38495" lon="2.18128">
        <ele>632.921841</ele>
        <time>2025-04-28T20:03:40.174Z</time>
      </trkpt>
      <trkpt lat="43.38499" lon="2.18159">
        <ele>632.863609</ele>
        <time>2025-04-28T20:03:48.140Z</time>
      </trkpt>
      <trkpt lat="43.38509" lon="2.18176">
        <ele>632.821987</ele>
        <time>2025-04-28T20:03:53.802Z</time>
      </trkpt>
      <trkpt lat="43.38521" lon="2.18188">
        <ele>632.784078</ele>
        <time>2025-04-28T20:03:58.950Z</time>
      </trkpt>
      <trkpt lat="43.38567" lon="2.18199">
        <ele>632.666408</ele>
        <time>2025-04-28T20:04:14.841Z</time>
      </trkpt>
      <trkpt lat="43.38589" lon="2.18209">
        <ele>632.605079</ele>
        <time>2025-04-28T20:04:23.166Z</time>
      </trkpt>
      <trkpt lat="43.38607" lon="2.18223">
        <ele>632.903573</ele>
        <time>2025-04-28T20:04:30.229Z</time>
      </trkpt>
      <trkpt lat="43.38656" lon="2.18226">
        <ele>633.817757</ele>
        <time>2025-04-28T20:04:47.348Z</time>
      </trkpt>
      <trkpt lat="43.387" lon="2.18218">
        <ele>634.635921</ele>
        <time>2025-04-28T20:05:02.719Z</time>
      </trkpt>
      <trkpt lat="43.38735" lon="2.18202">
        <ele>635.31874</ele>
        <time>2025-04-28T20:05:15.635Z</time>
      </trkpt>
      <trkpt lat="43.38787" lon="2.18151">
        <ele>636.424423</ele>
        <time>2025-04-28T20:05:38.725Z</time>
      </trkpt>
      <trkpt lat="43.38812" lon="2.18112">
        <ele>637.009028</ele>
        <time>2025-04-28T20:05:52.077Z</time>
      </trkpt>
      <trkpt lat="43.38827" lon="2.18083">
        <ele>637.420283</ele>
        <time>2025-04-28T20:06:01.311Z</time>
      </trkpt>
      <trkpt lat="43.38845" lon="2.18031">
        <ele>638.080499</ele>
        <time>2025-04-28T20:06:15.898Z</time>
      </trkpt>
      <trkpt lat="43.38856" lon="2.18017">
        <ele>638.315424</ele>
        <time>2025-04-28T20:06:21.055Z</time>
      </trkpt>
      <trkpt lat="43.38867" lon="2.18017">
        <ele>638.492023</ele>
        <time>2025-04-28T20:06:24.962Z</time>
      </trkpt>
      <trkpt lat="43.38875" lon="2.18026">
        <ele>638.659945</ele>
        <time>2025-04-28T20:06:28.678Z</time>
      </trkpt>
      <trkpt lat="43.38888" lon="2.18072">
        <ele>638.185575</ele>
        <time>2025-04-28T20:06:40.404Z</time>
      </trkpt>
      <trkpt lat="43.38901" lon="2.18097">
        <ele>637.732862</ele>
        <time>2025-04-28T20:06:47.354Z</time>
      </trkpt>
      <trkpt lat="43.38902" lon="2.18115">
        <ele>637.456168</ele>
        <time>2025-04-28T20:06:51.496Z</time>
      </trkpt>
      <trkpt lat="43.38888" lon="2.1816">
        <ele>636.742924</ele>
        <time>2025-04-28T20:07:02.144Z</time>
      </trkpt>
      <trkpt lat="43.38883" lon="2.18188">
        <ele>636.323504</ele>
        <time>2025-04-28T20:07:08.474Z</time>
      </trkpt>
      <trkpt lat="43.38888" lon="2.1821">
        <ele>635.985578</ele>
        <time>2025-04-28T20:07:13.746Z</time>
      </trkpt>
      <trkpt lat="43.38911" lon="2.18236">
        <ele>635.384047</ele>
        <time>2025-04-28T20:07:23.620Z</time>
      </trkpt>
      <trkpt lat="43.38933" lon="2.18283">
        <ele>634.980914</ele>
        <time>2025-04-28T20:07:37.774Z</time>
      </trkpt>
      <trkpt lat="43.38952" lon="2.18302">
        <ele>634.854055</ele>
        <time>2025-04-28T20:07:46.026Z</time>
      </trkpt>
      <trkpt lat="43.39011" lon="2.18329">
        <ele>634.51961</ele>
        <time>2025-04-28T20:08:07.770Z</time>
      </trkpt>
      <trkpt lat="43.39033" lon="2.18344">
        <ele>634.389465</ele>
        <time>2025-04-28T20:08:16.266Z</time>
      </trkpt>
      <trkpt lat="43.3904" lon="2.1836">
        <ele>634.31663</ele>
        <time>2025-04-28T20:08:20.943Z</time>
      </trkpt>
      <trkpt lat="43.39044" lon="2.18403">
        <ele>634.091902</ele>
        <time>2025-04-28T20:08:31.277Z</time>
      </trkpt>
      <trkpt lat="43.3906" lon="2.18443">
        <ele>633.440233</ele>
        <time>2025-04-28T20:08:41.648Z</time>
      </trkpt>
      <trkpt lat="43.39067" lon="2.18506">
        <ele>632.534377</ele>
        <time>2025-04-28T20:08:55.388Z</time>
      </trkpt>
      <trkpt lat="43.39108" lon="2.18642">
        <ele>631.007222</ele>
        <time>2025-04-28T20:09:29.947Z</time>
      </trkpt>
      <trkpt lat="43.39113" lon="2.18735">
        <ele>633.483353</ele>
        <time>2025-04-28T20:09:54.067Z</time>
      </trkpt>
      <trkpt lat="43.3912" lon="2.18749">
        <ele>633.954634</ele>
        <time>2025-04-28T20:09:59.010Z</time>
      </trkpt>
      <trkpt lat="43.39131" lon="2.18759">
        <ele>634.411231</ele>
        <time>2025-04-28T20:10:03.861Z</time>
      </trkpt>
      <trkpt lat="43.39151" lon="2.18764">
        <ele>635.169129</ele>
        <time>2025-04-28T20:10:12.096Z</time>
      </trkpt>
      <trkpt lat="43.39196" lon="2.18765">
        <ele>636.776133</ele>
        <time>2025-04-28T20:10:30.024Z</time>
      </trkpt>
      <trkpt lat="43.39222" lon="2.18741">
        <ele>637.902557</ele>
        <time>2025-04-28T20:10:42.913Z</time>
      </trkpt>
      <trkpt lat="43.39327" lon="2.18589">
        <ele>643.368787</ele>
        <time>2025-04-28T20:11:38.444Z</time>
      </trkpt>
      <trkpt lat="43.39348" lon="2.18567">
        <ele>643.392013</ele>
        <time>2025-04-28T20:11:47.458Z</time>
      </trkpt>
      <trkpt lat="43.39367" lon="2.18557">
        <ele>643.158102</ele>
        <time>2025-04-28T20:11:54.837Z</time>
      </trkpt>
      <trkpt lat="43.39379" lon="2.1856">
        <ele>643.033465</ele>
        <time>2025-04-28T20:11:58.665Z</time>
      </trkpt>
      <trkpt lat="43.3939" lon="2.18572">
        <ele>642.87163</ele>
        <time>2025-04-28T20:12:03.578Z</time>
      </trkpt>
      <trkpt lat="43.39388" lon="2.18589">
        <ele>642.732797</ele>
        <time>2025-04-28T20:12:07.711Z</time>
      </trkpt>
      <trkpt lat="43.3937" lon="2.18634">
        <ele>642.317054</ele>
        <time>2025-04-28T20:12:19.823Z</time>
      </trkpt>
      <trkpt lat="43.39362" lon="2.18663">
        <ele>642.07158</ele>
        <time>2025-04-28T20:12:26.888Z</time>
      </trkpt>
      <trkpt lat="43.39356" lon="2.18711">
        <ele>641.674495</ele>
        <time>2025-04-28T20:12:38.340Z</time>
      </trkpt>
      <trkpt lat="43.39354" lon="2.18779">
        <ele>641.0935</ele>
        <time>2025-04-28T20:12:54.653Z</time>
      </trkpt>
      <trkpt lat="43.39363" lon="2.18833">
        <ele>640.623214</ele>
        <time>2025-04-28T20:13:08.156Z</time>
      </trkpt>
      <trkpt lat="43.39361" lon="2.18843">
        <ele>640.532259</ele>
        <time>2025-04-28T20:13:10.769Z</time>
      </trkpt>
      <trkpt lat="43.39355" lon="2.18848">
        <ele>640.446083</ele>
        <time>2025-04-28T20:13:13.250Z</time>
      </trkpt>
      <trkpt lat="43.39332" lon="2.18857">
        <ele>640.163525</ele>
        <time>2025-04-28T20:13:21.347Z</time>
      </trkpt>
      <trkpt lat="43.39319" lon="2.18874">
        <ele>639.954721</ele>
        <time>2025-04-28T20:13:27.224Z</time>
      </trkpt>
      <trkpt lat="43.39308" lon="2.18905">
        <ele>639.657167</ele>
        <time>2025-04-28T20:13:35.396Z</time>
      </trkpt>
      <trkpt lat="43.39294" lon="2.18978">
        <ele>640.13973</ele>
        <time>2025-04-28T20:13:54.606Z</time>
      </trkpt>
      <trkpt lat="43.39285" lon="2.19046">
        <ele>640.934099</ele>
        <time>2025-04-28T20:14:11.942Z</time>
      </trkpt>
      <trkpt lat="43.39287" lon="2.1906">
        <ele>641.101331</ele>
        <time>2025-04-28T20:14:15.581Z</time>
      </trkpt>
      <trkpt lat="43.39301" lon="2.19083">
        <ele>641.448345</ele>
        <time>2025-04-28T20:14:23.137Z</time>
      </trkpt>
      <trkpt lat="43.39303" lon="2.191">
        <ele>641.653108</ele>
        <time>2025-04-28T20:14:27.590Z</time>
      </trkpt>
      <trkpt lat="43.39298" lon="2.19115">
        <ele>641.840793</ele>
        <time>2025-04-28T20:14:31.671Z</time>
      </trkpt>
      <trkpt lat="43.39286" lon="2.19126">
        <ele>642.069414</ele>
        <time>2025-04-28T20:14:36.665Z</time>
      </trkpt>
      <trkpt lat="43.3927" lon="2.19136">
        <ele>642.349455</ele>
        <time>2025-04-28T20:14:42.840Z</time>
      </trkpt>
      <trkpt lat="43.39217" lon="2.19132">
        <ele>643.748401</ele>
        <time>2025-04-28T20:15:02.343Z</time>
      </trkpt>
      <trkpt lat="43.39194" lon="2.19133">
        <ele>644.376114</ele>
        <time>2025-04-28T20:15:10.681Z</time>
      </trkpt>
      <trkpt lat="43.39174" lon="2.1914">
        <ele>644.902537</ele>
        <time>2025-04-28T20:15:17.638Z</time>
      </trkpt>
      <trkpt lat="43.39111" lon="2.19191">
        <ele>646.837344</ele>
        <time>2025-04-28T20:15:43.438Z</time>
      </trkpt>
      <trkpt lat="43.39097" lon="2.19192">
        <ele>647.091746</ele>
        <time>2025-04-28T20:15:48.330Z</time>
      </trkpt>
      <trkpt lat="43.39096" lon="2.19191">
        <ele>647.075236</ele>
        <time>2025-04-28T20:15:48.873Z</time>
      </trkpt>
      <trkpt lat="43.39083" lon="2.19184">
        <ele>646.919579</ele>
        <time>2025-04-28T20:15:53.902Z</time>
      </trkpt>
      <trkpt lat="43.39074" lon="2.1916">
        <ele>646.711597</ele>
        <time>2025-04-28T20:16:00.542Z</time>
      </trkpt>
      <trkpt lat="43.39067" lon="2.19124">
        <ele>646.419898</ele>
        <time>2025-04-28T20:16:09.874Z</time>
      </trkpt>
      <trkpt lat="43.3898" lon="2.18929">
        <ele>643.696693</ele>
        <time>2025-04-28T20:17:01.868Z</time>
      </trkpt>
      <trkpt lat="43.38947" lon="2.1887">
        <ele>642.146725</ele>
        <time>2025-04-28T20:17:17.595Z</time>
      </trkpt>
      <trkpt lat="43.38935" lon="2.18857">
        <ele>641.707349</ele>
        <time>2025-04-28T20:17:22.201Z</time>
      </trkpt>
      <trkpt lat="43.38921" lon="2.18851">
        <ele>641.289405</ele>
        <time>2025-04-28T20:17:26.669Z</time>
      </trkpt>
      <trkpt lat="43.3891" lon="2.18849">
        <ele>640.964308</ele>
        <time>2025-04-28T20:17:30.247Z</time>
      </trkpt>
      <trkpt lat="43.3889" lon="2.1885">
        <ele>640.393638</ele>
        <time>2025-04-28T20:17:36.688Z</time>
      </trkpt>
      <trkpt lat="43.3886" lon="2.1886">
        <ele>640.184571</ele>
        <time>2025-04-28T20:17:47.576Z</time>
      </trkpt>
      <trkpt lat="43.38841" lon="2.18871">
        <ele>640.384641</ele>
        <time>2025-04-28T20:17:54.707Z</time>
      </trkpt>
      <trkpt lat="43.38809" lon="2.18908">
        <ele>640.789829</ele>
        <time>2025-04-28T20:18:09.227Z</time>
      </trkpt>
      <trkpt lat="43.38797" lon="2.18937">
        <ele>641.027085</ele>
        <time>2025-04-28T20:18:17.821Z</time>
      </trkpt>
      <trkpt lat="43.38792" lon="2.18987">
        <ele>641.385525</ele>
        <time>2025-04-28T20:18:30.677Z</time>
      </trkpt>
      <trkpt lat="43.38786" lon="2.19001">
        <ele>641.499988</ele>
        <time>2025-04-28T20:18:34.773Z</time>
      </trkpt>
      <trkpt lat="43.38778" lon="2.1901">
        <ele>641.605141</ele>
        <time>2025-04-28T20:18:38.520Z</time>
      </trkpt>
      <trkpt lat="43.38767" lon="2.19013">
        <ele>641.708705</ele>
        <time>2025-04-28T20:18:42.239Z</time>
      </trkpt>
      <trkpt lat="43.38749" lon="2.1901">
        <ele>641.613506</ele>
        <time>2025-04-28T20:18:48.572Z</time>
      </trkpt>
      <trkpt lat="43.38718" lon="2.18998">
        <ele>641.225008</ele>
        <time>2025-04-28T20:19:00.015Z</time>
      </trkpt>
      <trkpt lat="43.38668" lon="2.18997">
        <ele>640.643969</ele>
        <time>2025-04-28T20:19:17.140Z</time>
      </trkpt>
      <trkpt lat="43.38634" lon="2.19006">
        <ele>640.238741</ele>
        <time>2025-04-28T20:19:28.498Z</time>
      </trkpt>
      <trkpt lat="43.38582" lon="2.19028">
        <ele>639.500586</ele>
        <time>2025-04-28T20:19:45.943Z</time>
      </trkpt>
      <trkpt lat="43.38569" lon="2.19027">
        <ele>639.114582</ele>
        <time>2025-04-28T20:19:49.744Z</time>
      </trkpt>
      <trkpt lat="43.38554" lon="2.1902">
        <ele>638.607745</ele>
        <time>2025-04-28T20:19:54.713Z</time>
      </trkpt>
      <trkpt lat="43.38513" lon="2.18987">
        <ele>637.140681</ele>
        <time>2025-04-28T20:20:08.765Z</time>
      </trkpt>
      <trkpt lat="43.38499" lon="2.18981">
        <ele>636.692928</ele>
        <time>2025-04-28T20:20:12.948Z</time>
      </trkpt>
      <trkpt lat="43.38487" lon="2.18981">
        <ele>636.313459</ele>
        <time>2025-04-28T20:20:16.484Z</time>
      </trkpt>
      <trkpt lat="43.38478" lon="2.18991">
        <ele>635.95345</ele>
        <time>2025-04-28T20:20:19.880Z</time>
      </trkpt>
      <trkpt lat="43.38472" lon="2.19003">
        <ele>635.622103</ele>
        <time>2025-04-28T20:20:23.032Z</time>
      </trkpt>
      <trkpt lat="43.38465" lon="2.19098">
        <ele>634.576679</ele>
        <time>2025-04-28T20:20:45.182Z</time>
      </trkpt>
      <trkpt lat="43.38471" lon="2.1911">
        <ele>634.870199</ele>
        <time>2025-04-28T20:20:48.914Z</time>
      </trkpt>
      <trkpt lat="43.3848" lon="2.19118">
        <ele>635.169458</ele>
        <time>2025-04-28T20:20:52.681Z</time>
      </trkpt>
      <trkpt lat="43.3852" lon="2.19124">
        <ele>636.268119</ele>
        <time>2025-04-28T20:21:06.671Z</time>
      </trkpt>
      <trkpt lat="43.38533" lon="2.19126">
        <ele>636.631989</ele>
        <time>2025-04-28T20:21:11.424Z</time>
      </trkpt>
      <trkpt lat="43.38555" lon="2.19138">
        <ele>637.297323</ele>
        <time>2025-04-28T20:21:20.296Z</time>
      </trkpt>
      <trkpt lat="43.38614" lon="2.19161">
        <ele>638.983323</ele>
        <time>2025-04-28T20:21:44.459Z</time>
      </trkpt>
      <trkpt lat="43.38624" lon="2.19172">
        <ele>639.261796</ele>
        <time>2025-04-28T20:21:49.619Z</time>
      </trkpt>
      <trkpt lat="43.38633" lon="2.19186">
        <ele>639.543742</ele>
        <time>2025-04-28T20:21:55.003Z</time>
      </trkpt>
      <trkpt lat="43.38643" lon="2.19208">
        <ele>639.942222</ele>
        <time>2025-04-28T20:22:02.691Z</time>
      </trkpt>
      <trkpt lat="43.38652" lon="2.19216">
        <ele>640.16935</ele>
        <time>2025-04-28T20:22:07.060Z</time>
      </trkpt>
      <trkpt lat="43.38664" lon="2.19232">
        <ele>640.515634</ele>
        <time>2025-04-28T20:22:13.514Z</time>
      </trkpt>
      <trkpt lat="43.38706" lon="2.19305">
        <ele>641.928335</ele>
        <time>2025-04-28T20:22:37.130Z</time>
      </trkpt>
      <trkpt lat="43.38705" lon="2.19317">
        <ele>642.110309</ele>
        <time>2025-04-28T20:22:40.098Z</time>
      </trkpt>
      <trkpt lat="43.38697" lon="2.19321">
        <ele>642.280792</ele>
        <time>2025-04-28T20:22:42.812Z</time>
      </trkpt>
      <trkpt lat="43.38677" lon="2.19319">
        <ele>642.697979</ele>
        <time>2025-04-28T20:22:49.172Z</time>
      </trkpt>
      <trkpt lat="43.3865" lon="2.19311">
        <ele>641.948429</ele>
        <time>2025-04-28T20:22:57.391Z</time>
      </trkpt>
      <trkpt lat="43.38594" lon="2.19322">
        <ele>639.967017</ele>
        <time>2025-04-28T20:23:13.464Z</time>
      </trkpt>
      <trkpt lat="43.38561" lon="2.19334">
        <ele>638.809976</ele>
        <time>2025-04-28T20:23:22.769Z</time>
      </trkpt>
      <trkpt lat="43.38512" lon="2.19371">
        <ele>636.869519</ele>
        <time>2025-04-28T20:23:39.675Z</time>
      </trkpt>
      <trkpt lat="43.3849" lon="2.19407">
        <ele>637.267378</ele>
        <time>2025-04-28T20:23:51.764Z</time>
      </trkpt>
      <trkpt lat="43.38485" lon="2.19433">
        <ele>637.832627</ele>
        <time>2025-04-28T20:23:58.514Z</time>
      </trkpt>
      <trkpt lat="43.38483" lon="2.1946">
        <ele>638.428674</ele>
        <time>2025-04-28T20:24:05.801Z</time>
      </trkpt>
      <trkpt lat="43.38488" lon="2.19473">
        <ele>638.731882</ele>
        <time>2025-04-28T20:24:09.600Z</time>
      </trkpt>
      <trkpt lat="43.38497" lon="2.19488">
        <ele>639.154545</ele>
        <time>2025-04-28T20:24:14.953Z</time>
      </trkpt>
      <trkpt lat="43.38538" lon="2.19531">
        <ele>640.66362</ele>
        <time>2025-04-28T20:24:34.637Z</time>
      </trkpt>
      <trkpt lat="43.3856" lon="2.1955">
        <ele>641.439158</ele>
        <time>2025-04-28T20:24:44.560Z</time>
      </trkpt>
      <trkpt lat="43.38571" lon="2.19566">
        <ele>641.8509</ele>
        <time>2025-04-28T20:24:50.674Z</time>
      </trkpt>
      <trkpt lat="43.38574" lon="2.19579">
        <ele>641.893153</ele>
        <time>2025-04-28T20:24:54.244Z</time>
      </trkpt>
      <trkpt lat="43.38572" lon="2.19587">
        <ele>641.917582</ele>
        <time>2025-04-28T20:24:56.290Z</time>
      </trkpt>
      <trkpt lat="43.38534" lon="2.1961">
        <ele>642.094537</ele>
        <time>2025-04-28T20:25:10.825Z</time>
      </trkpt>
      <trkpt lat="43.38525" lon="2.19621">
        <ele>642.147017</ele>
        <time>2025-04-28T20:25:15.096Z</time>
      </trkpt>
      <trkpt lat="43.38523" lon="2.19632">
        <ele>642.18186</ele>
        <time>2025-04-28T20:25:17.921Z</time>
      </trkpt>
      <trkpt lat="43.38518" lon="2.19637">
        <ele>642.207825</ele>
        <time>2025-04-28T20:25:20.027Z</time>
      </trkpt>
      <trkpt lat="43.38491" lon="2.19639">
        <ele>642.321898</ele>
        <time>2025-04-28T20:25:29.342Z</time>
      </trkpt>
      <trkpt lat="43.38473" lon="2.1965">
        <ele>642.406222</ele>
        <time>2025-04-28T20:25:36.067Z</time>
      </trkpt>
      <trkpt lat="43.38454" lon="2.19673">
        <ele>642.515537</ele>
        <time>2025-04-28T20:25:44.461Z</time>
      </trkpt>
      <trkpt lat="43.38445" lon="2.19672">
        <ele>642.552463</ele>
        <time>2025-04-28T20:25:47.244Z</time>
      </trkpt>
      <trkpt lat="43.3839" lon="2.19602">
        <ele>640.993816</ele>
        <time>2025-04-28T20:26:10.824Z</time>
      </trkpt>
      <trkpt lat="43.38376" lon="2.19593">
        <ele>640.590758</ele>
        <time>2025-04-28T20:26:15.643Z</time>
      </trkpt>
      <trkpt lat="43.38333" lon="2.19587">
        <ele>639.466247</ele>
        <time>2025-04-28T20:26:29.128Z</time>
      </trkpt>
      <trkpt lat="43.38304" lon="2.19589">
        <ele>638.708768</ele>
        <time>2025-04-28T20:26:38.316Z</time>
      </trkpt>
      <trkpt lat="43.38289" lon="2.19596">
        <ele>638.311467</ele>
        <time>2025-04-28T20:26:43.156Z</time>
      </trkpt>
      <trkpt lat="43.38277" lon="2.19609">
        <ele>637.934048</ele>
        <time>2025-04-28T20:26:47.999Z</time>
      </trkpt>
      <trkpt lat="43.38272" lon="2.19623">
        <ele>637.833295</ele>
        <time>2025-04-28T20:26:51.697Z</time>
      </trkpt>
      <trkpt lat="43.38266" lon="2.19646">
        <ele>637.68278</ele>
        <time>2025-04-28T20:26:57.260Z</time>
      </trkpt>
      <trkpt lat="43.38266" lon="2.19703">
        <ele>637.320353</ele>
        <time>2025-04-28T20:27:10.998Z</time>
      </trkpt>
      <trkpt lat="43.3826" lon="2.19754">
        <ele>636.996119</ele>
        <time>2025-04-28T20:27:23.813Z</time>
      </trkpt>
      <trkpt lat="43.38261" lon="2.19807">
        <ele>636.658899</ele>
        <time>2025-04-28T20:27:37.425Z</time>
      </trkpt>
      <trkpt lat="43.38282" lon="2.19973">
        <ele>638.477508</ele>
        <time>2025-04-28T20:28:20.125Z</time>
      </trkpt>
      <trkpt lat="43.38288" lon="2.19986">
        <ele>638.722222</ele>
        <time>2025-04-28T20:28:23.941Z</time>
      </trkpt>
      <trkpt lat="43.38296" lon="2.19993">
        <ele>638.944974</ele>
        <time>2025-04-28T20:28:27.389Z</time>
      </trkpt>
      <trkpt lat="43.38309" lon="2.20001">
        <ele>639.27195</ele>
        <time>2025-04-28T20:28:32.525Z</time>
      </trkpt>
      <trkpt lat="43.38354" lon="2.20017">
        <ele>640.340669</ele>
        <time>2025-04-28T20:28:49.392Z</time>
      </trkpt>
      <trkpt lat="43.38365" lon="2.20027">
        <ele>640.626369</ele>
        <time>2025-04-28T20:28:54.496Z</time>
      </trkpt>
      <trkpt lat="43.38443" lon="2.20122">
        <ele>642.366833</ele>
        <time>2025-04-28T20:29:30.954Z</time>
      </trkpt>
      <trkpt lat="43.3845" lon="2.20143">
        <ele>642.644626</ele>
        <time>2025-04-28T20:29:36.734Z</time>
      </trkpt>
      <trkpt lat="43.3846" lon="2.20254">
        <ele>643.839672</ele>
        <time>2025-04-28T20:30:04.819Z</time>
      </trkpt>
      <trkpt lat="43.38495" lon="2.20408">
        <ele>645.108261</ele>
        <time>2025-04-28T20:30:45.747Z</time>
      </trkpt>
      <trkpt lat="43.38496" lon="2.20425">
        <ele>645.236813</ele>
        <time>2025-04-28T20:30:49.947Z</time>
      </trkpt>
      <trkpt lat="43.38493" lon="2.20521">
        <ele>646.495715</ele>
        <time>2025-04-28T20:31:14.773Z</time>
      </trkpt>
      <trkpt lat="43.38499" lon="2.20546">
        <ele>646.896128</ele>
        <time>2025-04-28T20:31:21.356Z</time>
      </trkpt>
      <trkpt lat="43.38507" lon="2.2055">
        <ele>647.074068</ele>
        <time>2025-04-28T20:31:24.313Z</time>
      </trkpt>
      <trkpt lat="43.38519" lon="2.20551">
        <ele>647.330364</ele>
        <time>2025-04-28T20:31:28.554Z</time>
      </trkpt>
      <trkpt lat="43.38534" lon="2.20545">
        <ele>647.671877</ele>
        <time>2025-04-28T20:31:34.160Z</time>
      </trkpt>
      <trkpt lat="43.38545" lon="2.20548">
        <ele>647.892669</ele>
        <time>2025-04-28T20:31:37.792Z</time>
      </trkpt>
      <trkpt lat="43.38565" lon="2.20563">
        <ele>648.385587</ele>
        <time>2025-04-28T20:31:45.926Z</time>
      </trkpt>
      <trkpt lat="43.38564" lon="2.20587">
        <ele>648.76232</ele>
        <time>2025-04-28T20:31:52.100Z</time>
      </trkpt>
      <trkpt lat="43.38565" lon="2.20563">
        <ele>649.139053</ele>
        <time>2025-04-28T20:31:58.261Z</time>
      </trkpt>
      <trkpt lat="43.38572" lon="2.20571">
        <ele>649.318191</ele>
        <time>2025-04-28T20:32:01.395Z</time>
      </trkpt>
      <trkpt lat="43.38576" lon="2.20584">
        <ele>649.325173</ele>
        <time>2025-04-28T20:32:04.898Z</time>
      </trkpt>
      <trkpt lat="43.38587" lon="2.20631">
        <ele>649.350104</ele>
        <time>2025-04-28T20:32:17.421Z</time>
      </trkpt>
      <trkpt lat="43.38596" lon="2.20647">
        <ele>649.360133</ele>
        <time>2025-04-28T20:32:22.443Z</time>
      </trkpt>
      <trkpt lat="43.38609" lon="2.20662">
        <ele>649.371956</ele>
        <time>2025-04-28T20:32:28.426Z</time>
      </trkpt>
      <trkpt lat="43.38614" lon="2.20674">
        <ele>649.379103</ele>
        <time>2025-04-28T20:32:32.035Z</time>
      </trkpt>
      <trkpt lat="43.38617" lon="2.20724">
        <ele>649.404334</ele>
        <time>2025-04-28T20:32:44.732Z</time>
      </trkpt>
      <trkpt lat="43.38602" lon="2.208">
        <ele>649.457994</ele>
        <time>2025-04-28T20:33:04.661Z</time>
      </trkpt>
      <trkpt lat="43.38601" lon="2.20822">
        <ele>649.589808</ele>
        <time>2025-04-28T20:33:10.293Z</time>
      </trkpt>
      <trkpt lat="43.38604" lon="2.20832">
        <ele>649.649698</ele>
        <time>2025-04-28T20:33:12.861Z</time>
      </trkpt>
      <trkpt lat="43.38614" lon="2.20848">
        <ele>649.772999</ele>
        <time>2025-04-28T20:33:18.150Z</time>
      </trkpt>
      <trkpt lat="43.38631" lon="2.20864">
        <ele>649.943066</ele>
        <time>2025-04-28T20:33:25.484Z</time>
      </trkpt>
      <trkpt lat="43.38639" lon="2.20876">
        <ele>650.034662</ele>
        <time>2025-04-28T20:33:29.431Z</time>
      </trkpt>
      <trkpt lat="43.38643" lon="2.20888">
        <ele>650.112173</ele>
        <time>2025-04-28T20:33:32.789Z</time>
      </trkpt>
      <trkpt lat="43.38643" lon="2.20912">
        <ele>650.256623</ele>
        <time>2025-04-28T20:33:39.009Z</time>
      </trkpt>
      <trkpt lat="43.38647" lon="2.20921">
        <ele>650.314577</ele>
        <time>2025-04-28T20:33:41.510Z</time>
      </trkpt>
      <trkpt lat="43.38662" lon="2.20937">
        <ele>650.468903</ele>
        <time>2025-04-28T20:33:48.157Z</time>
      </trkpt>
      <trkpt lat="43.38677" lon="2.20944">
        <ele>650.593639</ele>
        <time>2025-04-28T20:33:53.557Z</time>
      </trkpt>
      <trkpt lat="43.38682" lon="2.20952">
        <ele>650.658507</ele>
        <time>2025-04-28T20:33:56.356Z</time>
      </trkpt>
      <trkpt lat="43.38687" lon="2.20968">
        <ele>650.758824</ele>
        <time>2025-04-28T20:34:00.671Z</time>
      </trkpt>
      <trkpt lat="43.38688" lon="2.20979">
        <ele>650.822744</ele>
        <time>2025-04-28T20:34:03.431Z</time>
      </trkpt>
      <trkpt lat="43.38684" lon="2.20987">
        <ele>650.880241</ele>
        <time>2025-04-28T20:34:05.908Z</time>
      </trkpt>
      <trkpt lat="43.38667" lon="2.21">
        <ele>651.016271</ele>
        <time>2025-04-28T20:34:12.643Z</time>
      </trkpt>
      <trkpt lat="43.38652" lon="2.2102">
        <ele>651.160491</ele>
        <time>2025-04-28T20:34:19.874Z</time>
      </trkpt>
      <trkpt lat="43.38642" lon="2.21039">
        <ele>651.279002</ele>
        <time>2025-04-28T20:34:25.846Z</time>
      </trkpt>
      <trkpt lat="43.38639" lon="2.2105">
        <ele>651.340906</ele>
        <time>2025-04-28T20:34:28.946Z</time>
      </trkpt>
      <trkpt lat="43.38634" lon="2.21066">
        <ele>651.425776</ele>
        <time>2025-04-28T20:34:33.209Z</time>
      </trkpt>
      <trkpt lat="43.38629" lon="2.21101">
        <ele>651.606723</ele>
        <time>2025-04-28T20:34:42.233Z</time>
      </trkpt>
      <trkpt lat="43.38629" lon="2.21148">
        <ele>651.841225</ele>
        <time>2025-04-28T20:34:54.040Z</time>
      </trkpt>
      <trkpt lat="43.38632" lon="2.21182">
        <ele>652.015228</ele>
        <time>2025-04-28T20:35:02.749Z</time>
      </trkpt>
      <trkpt lat="43.38668" lon="2.21306">
        <ele>653.463096</ele>
        <time>2025-04-28T20:35:36.536Z</time>
      </trkpt>
      <trkpt lat="43.38678" lon="2.21317">
        <ele>653.679214</ele>
        <time>2025-04-28T20:35:41.115Z</time>
      </trkpt>
      <trkpt lat="43.3873" lon="2.2135">
        <ele>654.643912</ele>
        <time>2025-04-28T20:36:01.374Z</time>
      </trkpt>
      <trkpt lat="43.38755" lon="2.21373">
        <ele>655.15193</ele>
        <time>2025-04-28T20:36:11.894Z</time>
      </trkpt>
      <trkpt lat="43.38758" lon="2.21377">
        <ele>655.069449</ele>
        <time>2025-04-28T20:36:13.298Z</time>
      </trkpt>
      <trkpt lat="43.38763" lon="2.21391">
        <ele>654.741956</ele>
        <time>2025-04-28T20:36:17.423Z</time>
      </trkpt>
      <trkpt lat="43.38765" lon="2.21415">
        <ele>654.262329</ele>
        <time>2025-04-28T20:36:23.470Z</time>
      </trkpt>
      <trkpt lat="43.38761" lon="2.21436">
        <ele>653.819905</ele>
        <time>2025-04-28T20:36:29.021Z</time>
      </trkpt>
      <trkpt lat="43.38727" lon="2.2154">
        <ele>651.543621</ele>
        <time>2025-04-28T20:36:53.794Z</time>
      </trkpt>
      <trkpt lat="43.38719" lon="2.21598">
        <ele>650.360906</ele>
        <time>2025-04-28T20:37:05.876Z</time>
      </trkpt>
      <trkpt lat="43.38722" lon="2.21634">
        <ele>649.953481</ele>
        <time>2025-04-28T20:37:13.484Z</time>
      </trkpt>
      <trkpt lat="43.3873" lon="2.21665">
        <ele>649.67567</ele>
        <time>2025-04-28T20:37:20.464Z</time>
      </trkpt>
      <trkpt lat="43.38768" lon="2.2175">
        <ele>648.824035</ele>
        <time>2025-04-28T20:37:44.593Z</time>
      </trkpt>
      <trkpt lat="43.38784" lon="2.21773">
        <ele>648.554836</ele>
        <time>2025-04-28T20:37:52.556Z</time>
      </trkpt>
      <trkpt lat="43.388" lon="2.21788">
        <ele>648.329193</ele>
        <time>2025-04-28T20:37:59.254Z</time>
      </trkpt>
      <trkpt lat="43.38821" lon="2.21797">
        <ele>648.127625</ele>
        <time>2025-04-28T20:38:07.272Z</time>
      </trkpt>
      <trkpt lat="43.38846" lon="2.21801">
        <ele>648.72671</ele>
        <time>2025-04-28T20:38:15.900Z</time>
      </trkpt>
      <trkpt lat="43.38941" lon="2.21805">
        <ele>651.094843</ele>
        <time>2025-04-28T20:38:50.229Z</time>
      </trkpt>
      <trkpt lat="43.38999" lon="2.21823">
        <ele>652.524887</ele>
        <time>2025-04-28T20:39:10.726Z</time>
      </trkpt>
      <trkpt lat="43.39029" lon="2.21838">
        <ele>652.64868</ele>
        <time>2025-04-28T20:39:22.010Z</time>
      </trkpt>
      <trkpt lat="43.39061" lon="2.21861">
        <ele>652.783394</ele>
        <time>2025-04-28T20:39:34.313Z</time>
      </trkpt>
      <trkpt lat="43.39104" lon="2.2191">
        <ele>652.997871</ele>
        <time>2025-04-28T20:39:53.837Z</time>
      </trkpt>
      <trkpt lat="43.39137" lon="2.21956">
        <ele>653.176714</ele>
        <time>2025-04-28T20:40:10.185Z</time>
      </trkpt>
      <trkpt lat="43.39155" lon="2.21997">
        <ele>653.314923</ele>
        <time>2025-04-28T20:40:22.406Z</time>
      </trkpt>
      <trkpt lat="43.39168" lon="2.22015">
        <ele>653.390165</ele>
        <time>2025-04-28T20:40:28.989Z</time>
      </trkpt>
      <trkpt lat="43.3925" lon="2.22077">
        <ele>653.761432</ele>
        <time>2025-04-28T20:41:01.261Z</time>
      </trkpt>
      <trkpt lat="43.3929" lon="2.22098">
        <ele>653.955821</ele>
        <time>2025-04-28T20:41:16.250Z</time>
      </trkpt>
      <trkpt lat="43.39307" lon="2.22112">
        <ele>654.274665</ele>
        <time>2025-04-28T20:41:23.317Z</time>
      </trkpt>
      <trkpt lat="43.39353" lon="2.22162">
        <ele>655.188435</ele>
        <time>2025-04-28T20:41:43.672Z</time>
      </trkpt>
      <trkpt lat="43.39364" lon="2.22163">
        <ele>655.363206</ele>
        <time>2025-04-28T20:41:47.577Z</time>
      </trkpt>
      <trkpt lat="43.39375" lon="2.2216">
        <ele>655.539465</ele>
        <time>2025-04-28T20:41:51.523Z</time>
      </trkpt>
      <trkpt lat="43.39414" lon="2.22129">
        <ele>656.242139</ele>
        <time>2025-04-28T20:42:07.095Z</time>
      </trkpt>
      <trkpt lat="43.39426" lon="2.22127">
        <ele>656.443788</ele>
        <time>2025-04-28T20:42:11.556Z</time>
      </trkpt>
      <trkpt lat="43.3944" lon="2.22129">
        <ele>656.659158</ele>
        <time>2025-04-28T20:42:16.343Z</time>
      </trkpt>
      <trkpt lat="43.39494" lon="2.22155">
        <ele>656.352173</ele>
        <time>2025-04-28T20:42:36.346Z</time>
      </trkpt>
      <trkpt lat="43.395" lon="2.2217">
        <ele>656.256558</ele>
        <time>2025-04-28T20:42:40.679Z</time>
      </trkpt>
      <trkpt lat="43.39498" lon="2.22183">
        <ele>656.18426</ele>
        <time>2025-04-28T20:42:43.894Z</time>
      </trkpt>
      <trkpt lat="43.39492" lon="2.2219">
        <ele>656.123455</ele>
        <time>2025-04-28T20:42:46.578Z</time>
      </trkpt>
      <trkpt lat="43.39458" lon="2.22209">
        <ele>655.844717</ele>
        <time>2025-04-28T20:42:58.419Z</time>
      </trkpt>
      <trkpt lat="43.39433" lon="2.22245">
        <ele>655.559278</ele>
        <time>2025-04-28T20:43:10.407Z</time>
      </trkpt>
      <trkpt lat="43.39428" lon="2.22257">
        <ele>655.4819</ele>
        <time>2025-04-28T20:43:13.661Z</time>
      </trkpt>
      <trkpt lat="43.39426" lon="2.22277">
        <ele>655.369911</ele>
        <time>2025-04-28T20:43:18.426Z</time>
      </trkpt>
      <trkpt lat="43.39432" lon="2.22299">
        <ele>655.471583</ele>
        <time>2025-04-28T20:43:24.150Z</time>
      </trkpt>
      <trkpt lat="43.39431" lon="2.22323">
        <ele>655.593503</ele>
        <time>2025-04-28T20:43:30.225Z</time>
      </trkpt>
      <trkpt lat="43.39426" lon="2.22348">
        <ele>655.72716</ele>
        <time>2025-04-28T20:43:36.833Z</time>
      </trkpt>
      <trkpt lat="43.39422" lon="2.22373">
        <ele>655.859497</ele>
        <time>2025-04-28T20:43:43.412Z</time>
      </trkpt>
      <trkpt lat="43.39423" lon="2.22386">
        <ele>655.925358</ele>
        <time>2025-04-28T20:43:46.686Z</time>
      </trkpt>
      <trkpt lat="43.39448" lon="2.22412">
        <ele>656.146463</ele>
        <time>2025-04-28T20:43:57.695Z</time>
      </trkpt>
      <trkpt lat="43.39459" lon="2.22421">
        <ele>656.233673</ele>
        <time>2025-04-28T20:44:02.092Z</time>
      </trkpt>
      <trkpt lat="43.39492" lon="2.22436">
        <ele>656.48128</ele>
        <time>2025-04-28T20:44:14.403Z</time>
      </trkpt>
      <trkpt lat="43.39499" lon="2.22439">
        <ele>656.532094</ele>
        <time>2025-04-28T20:44:16.911Z</time>
      </trkpt>
      <trkpt lat="43.39511" lon="2.22449">
        <ele>656.643468</ele>
        <time>2025-04-28T20:44:21.681Z</time>
      </trkpt>
      <trkpt lat="43.39544" lon="2.22501">
        <ele>657.685713</ele>
        <time>2025-04-28T20:44:39.099Z</time>
      </trkpt>
      <trkpt lat="43.39555" lon="2.22523">
        <ele>658.087264</ele>
        <time>2025-04-28T20:44:45.926Z</time>
      </trkpt>
      <trkpt lat="43.39569" lon="2.22552">
        <ele>658.631206</ele>
        <time>2025-04-28T20:44:55.205Z</time>
      </trkpt>
      <trkpt lat="43.39591" lon="2.22618">
        <ele>659.72647</ele>
        <time>2025-04-28T20:45:13.729Z</time>
      </trkpt>
      <trkpt lat="43.39602" lon="2.22639">
        <ele>660.115801</ele>
        <time>2025-04-28T20:45:20.224Z</time>
      </trkpt>
      <trkpt lat="43.39609" lon="2.22647">
        <ele>660.318159</ele>
        <time>2025-04-28T20:45:23.584Z</time>
      </trkpt>
      <trkpt lat="43.39622" lon="2.22652">
        <ele>660.290675</ele>
        <time>2025-04-28T20:45:28.185Z</time>
      </trkpt>
      <trkpt lat="43.39629" lon="2.22654">
        <ele>660.232493</ele>
        <time>2025-04-28T20:45:30.647Z</time>
      </trkpt>
      <trkpt lat="43.39632" lon="2.22658">
        <ele>660.198162</ele>
        <time>2025-04-28T20:45:32.119Z</time>
      </trkpt>
      <trkpt lat="43.39635" lon="2.22667">
        <ele>660.141984</ele>
        <time>2025-04-28T20:45:34.529Z</time>
      </trkpt>
      <trkpt lat="43.39635" lon="2.22676">
        <ele>660.086262</ele>
        <time>2025-04-28T20:45:36.904Z</time>
      </trkpt>
      <trkpt lat="43.3963" lon="2.22684">
        <ele>660.030156</ele>
        <time>2025-04-28T20:45:39.282Z</time>
      </trkpt>
      <trkpt lat="43.39622" lon="2.22692">
        <ele>659.945119</ele>
        <time>2025-04-28T20:45:42.905Z</time>
      </trkpt>
      <trkpt lat="43.3963" lon="2.22684">
        <ele>659.860082</ele>
        <time>2025-04-28T20:45:46.541Z</time>
      </trkpt>
      <trkpt lat="43.39635" lon="2.22676">
        <ele>659.803975</ele>
        <time>2025-04-28T20:45:48.907Z</time>
      </trkpt>
      <trkpt lat="43.39635" lon="2.22667">
        <ele>659.748253</ele>
        <time>2025-04-28T20:45:51.263Z</time>
      </trkpt>
      <trkpt lat="43.39632" lon="2.22658">
        <ele>659.692075</ele>
        <time>2025-04-28T20:45:53.540Z</time>
      </trkpt>
      <trkpt lat="43.39629" lon="2.22654">
        <ele>659.657745</ele>
        <time>2025-04-28T20:45:54.986Z</time>
      </trkpt>
      <trkpt lat="43.39622" lon="2.22652">
        <ele>659.599563</ele>
        <time>2025-04-28T20:45:57.315Z</time>
      </trkpt>
      <trkpt lat="43.39609" lon="2.22647">
        <ele>659.492462</ele>
        <time>2025-04-28T20:46:01.673Z</time>
      </trkpt>
      <trkpt lat="43.39602" lon="2.22639">
        <ele>659.413429</ele>
        <time>2025-04-28T20:46:04.951Z</time>
      </trkpt>
      <trkpt lat="43.39591" lon="2.22618">
        <ele>659.261372</ele>
        <time>2025-04-28T20:46:11.363Z</time>
      </trkpt>
      <trkpt lat="43.39569" lon="2.22552">
        <ele>658.733657</ele>
        <time>2025-04-28T20:46:27.816Z</time>
      </trkpt>
      <trkpt lat="43.39555" lon="2.22523">
        <ele>658.238397</ele>
        <time>2025-04-28T20:46:35.841Z</time>
      </trkpt>
      <trkpt lat="43.39544" lon="2.22501">
        <ele>657.872784</ele>
        <time>2025-04-28T20:46:41.856Z</time>
      </trkpt>
      <trkpt lat="43.39511" lon="2.22449">
        <ele>656.923819</ele>
        <time>2025-04-28T20:46:58.130Z</time>
      </trkpt>
      <trkpt lat="43.39499" lon="2.22439">
        <ele>656.663805</ele>
        <time>2025-04-28T20:47:02.865Z</time>
      </trkpt>
      <trkpt lat="43.39492" lon="2.22436">
        <ele>656.525819</ele>
        <time>2025-04-28T20:47:05.362Z</time>
      </trkpt>
      <trkpt lat="43.39459" lon="2.22421">
        <ele>655.853435</ele>
        <time>2025-04-28T20:47:17.613Z</time>
      </trkpt>
      <trkpt lat="43.39448" lon="2.22412">
        <ele>655.616613</ele>
        <time>2025-04-28T20:47:21.560Z</time>
      </trkpt>
      <trkpt lat="43.39423" lon="2.22386">
        <ele>655.602564</ele>
        <time>2025-04-28T20:47:31.849Z</time>
      </trkpt>
      <trkpt lat="43.39422" lon="2.22373">
        <ele>655.645362</ele>
        <time>2025-04-28T20:47:35.064Z</time>
      </trkpt>
      <trkpt lat="43.39426" lon="2.22348">
        <ele>655.731358</ele>
        <time>2025-04-28T20:47:41.684Z</time>
      </trkpt>
      <trkpt lat="43.39431" lon="2.22323">
        <ele>655.818211</ele>
        <time>2025-04-28T20:47:48.292Z</time>
      </trkpt>
      <trkpt lat="43.39432" lon="2.22299">
        <ele>655.897438</ele>
        <time>2025-04-28T20:47:54.341Z</time>
      </trkpt>
      <trkpt lat="43.39426" lon="2.22277">
        <ele>655.974807</ele>
        <time>2025-04-28T20:48:00.257Z</time>
      </trkpt>
      <trkpt lat="43.39428" lon="2.22257">
        <ele>656.040663</ele>
        <time>2025-04-28T20:48:05.301Z</time>
      </trkpt>
      <trkpt lat="43.39433" lon="2.22245">
        <ele>656.086165</ele>
        <time>2025-04-28T20:48:08.783Z</time>
      </trkpt>
      <trkpt lat="43.39458" lon="2.22209">
        <ele>656.254019</ele>
        <time>2025-04-28T20:48:21.679Z</time>
      </trkpt>
      <trkpt lat="43.39492" lon="2.2219">
        <ele>656.237229</ele>
        <time>2025-04-28T20:48:34.238Z</time>
      </trkpt>
      <trkpt lat="43.39498" lon="2.22183">
        <ele>656.21443</ele>
        <time>2025-04-28T20:48:36.982Z</time>
      </trkpt>
      <trkpt lat="43.395" lon="2.2217">
        <ele>656.187321</ele>
        <time>2025-04-28T20:48:40.227Z</time>
      </trkpt>
      <trkpt lat="43.39494" lon="2.22155">
        <ele>656.151469</ele>
        <time>2025-04-28T20:48:44.536Z</time>
      </trkpt>
      <trkpt lat="43.3944" lon="2.22129">
        <ele>655.984289</ele>
        <time>2025-04-28T20:49:04.633Z</time>
      </trkpt>
      <trkpt lat="43.39426" lon="2.22127">
        <ele>655.944542</ele>
        <time>2025-04-28T20:49:09.344Z</time>
      </trkpt>
      <trkpt lat="43.39414" lon="2.22129">
        <ele>655.907328</ele>
        <time>2025-04-28T20:49:13.655Z</time>
      </trkpt>
      <trkpt lat="43.39375" lon="2.2216">
        <ele>655.745713</ele>
        <time>2025-04-28T20:49:28.292Z</time>
      </trkpt>
      <trkpt lat="43.39364" lon="2.22163">
        <ele>655.586529</ele>
        <time>2025-04-28T20:49:31.933Z</time>
      </trkpt>
      <trkpt lat="43.39353" lon="2.22162">
        <ele>655.428689</ele>
        <time>2025-04-28T20:49:35.515Z</time>
      </trkpt>
      <trkpt lat="43.39307" lon="2.22112">
        <ele>654.603439</ele>
        <time>2025-04-28T20:49:54.144Z</time>
      </trkpt>
      <trkpt lat="43.3929" lon="2.22098">
        <ele>654.315482</ele>
        <time>2025-04-28T20:50:00.844Z</time>
      </trkpt>
      <trkpt lat="43.3925" lon="2.22077">
        <ele>653.704963</ele>
        <time>2025-04-28T20:50:15.494Z</time>
      </trkpt>
      <trkpt lat="43.39168" lon="2.22015">
        <ele>653.261095</ele>
        <time>2025-04-28T20:50:47.820Z</time>
      </trkpt>
      <trkpt lat="43.39155" lon="2.21997">
        <ele>653.270068</ele>
        <time>2025-04-28T20:50:54.374Z</time>
      </trkpt>
      <trkpt lat="43.39137" lon="2.21956">
        <ele>653.286715</ele>
        <time>2025-04-28T20:51:06.542Z</time>
      </trkpt>
      <trkpt lat="43.39104" lon="2.2191">
        <ele>653.308987</ele>
        <time>2025-04-28T20:51:22.817Z</time>
      </trkpt>
      <trkpt lat="43.39061" lon="2.21861">
        <ele>652.819446</ele>
        <time>2025-04-28T20:51:42.295Z</time>
      </trkpt>
      <trkpt lat="43.39029" lon="2.21838">
        <ele>652.341978</ele>
        <time>2025-04-28T20:51:54.673Z</time>
      </trkpt>
      <trkpt lat="43.38999" lon="2.21823">
        <ele>651.903218</ele>
        <time>2025-04-28T20:52:05.577Z</time>
      </trkpt>
      <trkpt lat="43.38941" lon="2.21805">
        <ele>651.107753</ele>
        <time>2025-04-28T20:52:24.775Z</time>
      </trkpt>
      <trkpt lat="43.38846" lon="2.21801">
        <ele>649.365819</ele>
        <time>2025-04-28T20:52:54.202Z</time>
      </trkpt>
      <trkpt lat="43.38821" lon="2.21797">
        <ele>648.901795</ele>
        <time>2025-04-28T20:53:01.722Z</time>
      </trkpt>
      <trkpt lat="43.388" lon="2.21788">
        <ele>648.464894</ele>
        <time>2025-04-28T20:53:08.996Z</time>
      </trkpt>
      <trkpt lat="43.38784" lon="2.21773">
        <ele>648.097942</ele>
        <time>2025-04-28T20:53:15.346Z</time>
      </trkpt>
      <trkpt lat="43.38768" lon="2.2175">
        <ele>647.660155</ele>
        <time>2025-04-28T20:53:23.331Z</time>
      </trkpt>
      <trkpt lat="43.3873" lon="2.21665">
        <ele>649.448488</ele>
        <time>2025-04-28T20:53:48.571Z</time>
      </trkpt>
      <trkpt lat="43.38722" lon="2.21634">
        <ele>650.221489</ele>
        <time>2025-04-28T20:53:57.314Z</time>
      </trkpt>
      <trkpt lat="43.38719" lon="2.21598">
        <ele>651.092208</ele>
        <time>2025-04-28T20:54:07.618Z</time>
      </trkpt>
      <trkpt lat="43.38727" lon="2.2154">
        <ele>652.49309</ele>
        <time>2025-04-28T20:54:24.583Z</time>
      </trkpt>
      <trkpt lat="43.38761" lon="2.21436">
        <ele>653.572256</ele>
        <time>2025-04-28T20:54:54.568Z</time>
      </trkpt>
      <trkpt lat="43.38765" lon="2.21415">
        <ele>653.640929</ele>
        <time>2025-04-28T20:55:00.128Z</time>
      </trkpt>
      <trkpt lat="43.38763" lon="2.21391">
        <ele>653.715377</ele>
        <time>2025-04-28T20:55:06.189Z</time>
      </trkpt>
      <trkpt lat="43.38758" lon="2.21377">
        <ele>653.766211</ele>
        <time>2025-04-28T20:55:10.311Z</time>
      </trkpt>
      <trkpt lat="43.38755" lon="2.21373">
        <ele>653.783514</ele>
        <time>2025-04-28T20:55:11.695Z</time>
      </trkpt>
      <trkpt lat="43.3873" lon="2.2135">
        <ele>653.913105</ele>
        <time>2025-04-28T20:55:21.768Z</time>
      </trkpt>
      <trkpt lat="43.38678" lon="2.21317">
        <ele>653.905284</ele>
        <time>2025-04-28T20:55:39.794Z</time>
      </trkpt>
      <trkpt lat="43.38668" lon="2.21306">
        <ele>653.72669</ele>
        <time>2025-04-28T20:55:43.752Z</time>
      </trkpt>
      <trkpt lat="43.38632" lon="2.21182">
        <ele>652.382133</ele>
        <time>2025-04-28T20:56:15.541Z</time>
      </trkpt>
      <trkpt lat="43.38629" lon="2.21148">
        <ele>652.033187</ele>
        <time>2025-04-28T20:56:24.239Z</time>
      </trkpt>
      <trkpt lat="43.38629" lon="2.21101">
        <ele>651.577039</ele>
        <time>2025-04-28T20:56:36.011Z</time>
      </trkpt>
      <trkpt lat="43.38634" lon="2.21066">
        <ele>651.345468</ele>
        <time>2025-04-28T20:56:45.034Z</time>
      </trkpt>
      <trkpt lat="43.38639" lon="2.2105">
        <ele>651.236854</ele>
        <time>2025-04-28T20:56:49.302Z</time>
      </trkpt>
      <trkpt lat="43.38642" lon="2.21039">
        <ele>651.15763</ele>
        <time>2025-04-28T20:56:52.410Z</time>
      </trkpt>
      <trkpt lat="43.38652" lon="2.2102">
        <ele>651.005962</ele>
        <time>2025-04-28T20:56:58.416Z</time>
      </trkpt>
      <trkpt lat="43.38667" lon="2.21">
        <ele>650.821393</ele>
        <time>2025-04-28T20:57:05.579Z</time>
      </trkpt>
      <trkpt lat="43.38684" lon="2.20987">
        <ele>650.650099</ele>
        <time>2025-04-28T20:57:12.035Z</time>
      </trkpt>
      <trkpt lat="43.38688" lon="2.20979">
        <ele>650.587037</ele>
        <time>2025-04-28T20:57:14.388Z</time>
      </trkpt>
      <trkpt lat="43.38687" lon="2.20968">
        <ele>650.51693</ele>
        <time>2025-04-28T20:57:16.993Z</time>
      </trkpt>
      <trkpt lat="43.38682" lon="2.20952">
        <ele>650.406903</ele>
        <time>2025-04-28T20:57:21.072Z</time>
      </trkpt>
      <trkpt lat="43.38677" lon="2.20944">
        <ele>650.335755</ele>
        <time>2025-04-28T20:57:23.745Z</time>
      </trkpt>
      <trkpt lat="43.38662" lon="2.20937">
        <ele>650.198945</ele>
        <time>2025-04-28T20:57:28.901Z</time>
      </trkpt>
      <trkpt lat="43.38647" lon="2.20921">
        <ele>650.029682</ele>
        <time>2025-04-28T20:57:35.280Z</time>
      </trkpt>
      <trkpt lat="43.38643" lon="2.20912">
        <ele>649.997988</ele>
        <time>2025-04-28T20:57:37.693Z</time>
      </trkpt>
      <trkpt lat="43.38643" lon="2.20888">
        <ele>649.959497</ele>
        <time>2025-04-28T20:57:43.769Z</time>
      </trkpt>
      <trkpt lat="43.38639" lon="2.20876">
        <ele>649.938842</ele>
        <time>2025-04-28T20:57:47.084Z</time>
      </trkpt>
      <trkpt lat="43.38631" lon="2.20864">
        <ele>649.914435</ele>
        <time>2025-04-28T20:57:51.043Z</time>
      </trkpt>
      <trkpt lat="43.38614" lon="2.20848">
        <ele>649.869117</ele>
        <time>2025-04-28T20:57:58.426Z</time>
      </trkpt>
      <trkpt lat="43.38604" lon="2.20832">
        <ele>649.836261</ele>
        <time>2025-04-28T20:58:03.732Z</time>
      </trkpt>
      <trkpt lat="43.38601" lon="2.20822">
        <ele>649.820302</ele>
        <time>2025-04-28T20:58:06.300Z</time>
      </trkpt>
      <trkpt lat="43.38602" lon="2.208">
        <ele>649.785178</ele>
        <time>2025-04-28T20:58:11.932Z</time>
      </trkpt>
      <trkpt lat="43.38617" lon="2.20724">
        <ele>649.662702</ele>
        <time>2025-04-28T20:58:31.728Z</time>
      </trkpt>
      <trkpt lat="43.38614" lon="2.20674">
        <ele>649.399903</ele>
        <time>2025-04-28T20:58:44.401Z</time>
      </trkpt>
      <trkpt lat="43.38609" lon="2.20662">
        <ele>649.266095</ele>
        <time>2025-04-28T20:58:47.985Z</time>
      </trkpt>
      <trkpt lat="43.38596" lon="2.20647">
        <ele>649.044741</ele>
        <time>2025-04-28T20:58:53.909Z</time>
      </trkpt>
      <trkpt lat="43.38587" lon="2.20631">
        <ele>648.85698</ele>
        <time>2025-04-28T20:58:58.956Z</time>
      </trkpt>
      <trkpt lat="43.38576" lon="2.20584">
        <ele>648.390227</ele>
        <time>2025-04-28T20:59:11.115Z</time>
      </trkpt>
      <trkpt lat="43.38572" lon="2.20571">
        <ele>648.259509</ele>
        <time>2025-04-28T20:59:14.415Z</time>
      </trkpt>
      <trkpt lat="43.38565" lon="2.20563">
        <ele>648.142855</ele>
        <time>2025-04-28T20:59:17.329Z</time>
      </trkpt>
      <trkpt lat="43.38545" lon="2.20548">
        <ele>647.842733</ele>
        <time>2025-04-28T20:59:24.719Z</time>
      </trkpt>
      <trkpt lat="43.38534" lon="2.20545">
        <ele>647.7083</ele>
        <time>2025-04-28T20:59:28.008Z</time>
      </trkpt>
      <trkpt lat="43.38519" lon="2.20551">
        <ele>647.500364</ele>
        <time>2025-04-28T20:59:33.031Z</time>
      </trkpt>
      <trkpt lat="43.38507" lon="2.2055">
        <ele>647.344313</ele>
        <time>2025-04-28T20:59:36.814Z</time>
      </trkpt>
      <trkpt lat="43.38499" lon="2.20546">
        <ele>647.207626</ele>
        <time>2025-04-28T20:59:39.417Z</time>
      </trkpt>
      <trkpt lat="43.38493" lon="2.20521">
        <ele>646.828922</ele>
        <time>2025-04-28T20:59:45.284Z</time>
      </trkpt>
      <trkpt lat="43.38496" lon="2.20425">
        <ele>645.409528</ele>
        <time>2025-04-28T21:00:07.335Z</time>
      </trkpt>
      <trkpt lat="43.38495" lon="2.20408">
        <ele>645.169332</ele>
        <time>2025-04-28T21:00:11.110Z</time>
      </trkpt>
      <trkpt lat="43.3846" lon="2.20254">
        <ele>642.543821</ele>
        <time>2025-04-28T21:00:51.684Z</time>
      </trkpt>
      <trkpt lat="43.3845" lon="2.20143">
        <ele>640.423473</ele>
        <time>2025-04-28T21:01:18.467Z</time>
      </trkpt>
      <trkpt lat="43.38441" lon="2.20141">
        <ele>640.194248</ele>
        <time>2025-04-28T21:01:19.984Z</time>
      </trkpt>
      <trkpt lat="43.38318" lon="2.20062">
        <ele>634.010314</ele>
        <time>2025-04-28T21:01:41.431Z</time>
      </trkpt>
      <trkpt lat="43.3829" lon="2.20059">
        <ele>632.442216</ele>
        <time>2025-04-28T21:01:45.738Z</time>
      </trkpt>
      <trkpt lat="43.38273" lon="2.20066">
        <ele>631.496029</ele>
        <time>2025-04-28T21:01:48.360Z</time>
      </trkpt>
      <trkpt lat="43.38246" lon="2.20085">
        <ele>629.807637</ele>
        <time>2025-04-28T21:01:53.052Z</time>
      </trkpt>
      <trkpt lat="43.38204" lon="2.20127">
        <ele>627.009489</ele>
        <time>2025-04-28T21:02:01.100Z</time>
      </trkpt>
      <trkpt lat="43.38179" lon="2.20165">
        <ele>625.010009</ele>
        <time>2025-04-28T21:02:06.920Z</time>
      </trkpt>
      <trkpt lat="43.38159" lon="2.20188">
        <ele>623.573368</ele>
        <time>2025-04-28T21:02:11.070Z</time>
      </trkpt>
      <trkpt lat="43.3815" lon="2.20192">
        <ele>623.052846</ele>
        <time>2025-04-28T21:02:12.584Z</time>
      </trkpt>
      <trkpt lat="43.38139" lon="2.2019">
        <ele>622.504786</ele>
        <time>2025-04-28T21:02:14.174Z</time>
      </trkpt>
      <trkpt lat="43.38126" lon="2.20175">
        <ele>621.573691</ele>
        <time>2025-04-28T21:02:16.879Z</time>
      </trkpt>
      <trkpt lat="43.38097" lon="2.2011">
        <ele>618.91142</ele>
        <time>2025-04-28T21:02:25.660Z</time>
      </trkpt>
      <trkpt lat="43.38083" lon="2.20093">
        <ele>618.358131</ele>
        <time>2025-04-28T21:02:28.573Z</time>
      </trkpt>
      <trkpt lat="43.37936" lon="2.1998">
        <ele>613.677839</ele>
        <time>2025-04-28T21:02:58.239Z</time>
      </trkpt>
      <trkpt lat="43.3784" lon="2.19911">
        <ele>612.727753</ele>
        <time>2025-04-28T21:03:20.618Z</time>
      </trkpt>
      <trkpt lat="43.3776" lon="2.19849">
        <ele>611.540605</ele>
        <time>2025-04-28T21:03:39.619Z</time>
      </trkpt>
      <trkpt lat="43.3766" lon="2.19728">
        <ele>609.138353</ele>
        <time>2025-04-28T21:04:04.205Z</time>
      </trkpt>
      <trkpt lat="43.37522" lon="2.19624">
        <ele>602.841978</ele>
        <time>2025-04-28T21:04:30.143Z</time>
      </trkpt>
      <trkpt lat="43.37512" lon="2.19605">
        <ele>602.143846</ele>
        <time>2025-04-28T21:04:32.840Z</time>
      </trkpt>
      <trkpt lat="43.37505" lon="2.19574">
        <ele>600.990215</ele>
        <time>2025-04-28T21:04:36.644Z</time>
      </trkpt>
      <trkpt lat="43.37505" lon="2.19501">
        <ele>598.170209</ele>
        <time>2025-04-28T21:04:44.844Z</time>
      </trkpt>
      <trkpt lat="43.37496" lon="2.19461">
        <ele>596.526741</ele>
        <time>2025-04-28T21:04:49.592Z</time>
      </trkpt>
      <trkpt lat="43.37485" lon="2.1943">
        <ele>595.173551</ele>
        <time>2025-04-28T21:04:53.502Z</time>
      </trkpt>
      <trkpt lat="43.37471" lon="2.19399">
        <ele>593.736677</ele>
        <time>2025-04-28T21:04:57.664Z</time>
      </trkpt>
      <trkpt lat="43.37423" lon="2.19355">
        <ele>590.896535</ele>
        <time>2025-04-28T21:05:06.632Z</time>
      </trkpt>
      <trkpt lat="43.37413" lon="2.19336">
        <ele>590.106245</ele>
        <time>2025-04-28T21:05:09.429Z</time>
      </trkpt>
      <trkpt lat="43.37394" lon="2.19283">
        <ele>588.198514</ele>
        <time>2025-04-28T21:05:16.251Z</time>
      </trkpt>
      <trkpt lat="43.37326" lon="2.19094">
        <ele>582.138327</ele>
        <time>2025-04-28T21:05:41.566Z</time>
      </trkpt>
      <trkpt lat="43.37315" lon="2.19067">
        <ele>581.443824</ele>
        <time>2025-04-28T21:05:45.399Z</time>
      </trkpt>
      <trkpt lat="43.37289" lon="2.19021">
        <ele>580.138312</ele>
        <time>2025-04-28T21:05:52.749Z</time>
      </trkpt>
      <trkpt lat="43.37284" lon="2.19005">
        <ele>579.729561</ele>
        <time>2025-04-28T21:05:55.090Z</time>
      </trkpt>
      <trkpt lat="43.37282" lon="2.1898">
        <ele>579.176589</ele>
        <time>2025-04-28T21:05:58.314Z</time>
      </trkpt>
      <trkpt lat="43.37279" lon="2.18812">
        <ele>574.496937</ele>
        <time>2025-04-28T21:06:20.070Z</time>
      </trkpt>
      <trkpt lat="43.37281" lon="2.18786">
        <ele>573.72419</ele>
        <time>2025-04-28T21:06:23.217Z</time>
      </trkpt>
      <trkpt lat="43.3729" lon="2.18757">
        <ele>572.788736</ele>
        <time>2025-04-28T21:06:26.927Z</time>
      </trkpt>
      <trkpt lat="43.37296" lon="2.18741">
        <ele>572.278022</ele>
        <time>2025-04-28T21:06:28.896Z</time>
      </trkpt>
      <trkpt lat="43.37301" lon="2.1872">
        <ele>571.638381</ele>
        <time>2025-04-28T21:06:31.323Z</time>
      </trkpt>
      <trkpt lat="43.37309" lon="2.18643">
        <ele>568.089791</ele>
        <time>2025-04-28T21:06:39.774Z</time>
      </trkpt>
      <trkpt lat="43.37311" lon="2.18603">
        <ele>566.087165</ele>
        <time>2025-04-28T21:06:44.077Z</time>
      </trkpt>
      <trkpt lat="43.3731" lon="2.18573">
        <ele>564.584783</ele>
        <time>2025-04-28T21:06:47.276Z</time>
      </trkpt>
      <trkpt lat="43.37305" lon="2.18554">
        <ele>563.567578</ele>
        <time>2025-04-28T21:06:49.465Z</time>
      </trkpt>
      <trkpt lat="43.37295" lon="2.18532">
        <ele>562.254095</ele>
        <time>2025-04-28T21:06:52.295Z</time>
      </trkpt>
      <trkpt lat="43.37282" lon="2.18517">
        <ele>561.093121</ele>
        <time>2025-04-28T21:06:54.804Z</time>
      </trkpt>
      <trkpt lat="43.37267" lon="2.18506">
        <ele>559.911081</ele>
        <time>2025-04-28T21:06:57.377Z</time>
      </trkpt>
      <trkpt lat="43.37199" lon="2.18479">
        <ele>557.609564</ele>
        <time>2025-04-28T21:07:08.502Z</time>
      </trkpt>
      <trkpt lat="43.3718" lon="2.18454">
        <ele>557.026293</ele>
        <time>2025-04-28T21:07:13.141Z</time>
      </trkpt>
      <trkpt lat="43.37173" lon="2.18441">
        <ele>556.759148</ele>
        <time>2025-04-28T21:07:15.376Z</time>
      </trkpt>
      <trkpt lat="43.37151" lon="2.18402">
        <ele>555.971841</ele>
        <time>2025-04-28T21:07:22.358Z</time>
      </trkpt>
      <trkpt lat="43.37141" lon="2.1839">
        <ele>555.683142</ele>
        <time>2025-04-28T21:07:25.059Z</time>
      </trkpt>
      <trkpt lat="43.37114" lon="2.18367">
        <ele>554.984449</ele>
        <time>2025-04-28T21:07:31.984Z</time>
      </trkpt>
      <trkpt lat="43.37072" lon="2.18344">
        <ele>555.925223</ele>
        <time>2025-04-28T21:07:43.109Z</time>
      </trkpt>
      <trkpt lat="43.37032" lon="2.18328">
        <ele>557.082875</ele>
        <time>2025-04-28T21:07:54.178Z</time>
      </trkpt>
      <trkpt lat="43.37016" lon="2.18325">
        <ele>557.536293</ele>
        <time>2025-04-28T21:07:58.569Z</time>
      </trkpt>
      <trkpt lat="43.37005" lon="2.1832">
        <ele>557.858158</ele>
        <time>2025-04-28T21:08:01.724Z</time>
      </trkpt>
      <trkpt lat="43.36997" lon="2.1831">
        <ele>558.156608</ele>
        <time>2025-04-28T21:08:04.662Z</time>
      </trkpt>
      <trkpt lat="43.36992" lon="2.18296">
        <ele>558.462775</ele>
        <time>2025-04-28T21:08:07.699Z</time>
      </trkpt>
      <trkpt lat="43.36945" lon="2.18116">
        <ele>560.096554</ele>
        <time>2025-04-28T21:08:44.446Z</time>
      </trkpt>
      <trkpt lat="43.36851" lon="2.17791">
        <ele>555.323337</ele>
        <time>2025-04-28T21:09:29.285Z</time>
      </trkpt>
      <trkpt lat="43.36834" lon="2.17733">
        <ele>553.237402</ele>
        <time>2025-04-28T21:09:36.472Z</time>
      </trkpt>
      <trkpt lat="43.36824" lon="2.17718">
        <ele>552.423607</ele>
        <time>2025-04-28T21:09:38.817Z</time>
      </trkpt>
      <trkpt lat="43.36813" lon="2.1771">
        <ele>551.76356</ele>
        <time>2025-04-28T21:09:40.705Z</time>
      </trkpt>
      <trkpt lat="43.36735" lon="2.17706">
        <ele>547.472566</ele>
        <time>2025-04-28T21:09:52.913Z</time>
      </trkpt>
      <trkpt lat="43.36717" lon="2.177">
        <ele>546.487864</ele>
        <time>2025-04-28T21:09:55.699Z</time>
      </trkpt>
      <trkpt lat="43.36696" lon="2.17686">
        <ele>545.228813</ele>
        <time>2025-04-28T21:09:59.278Z</time>
      </trkpt>
      <trkpt lat="43.36652" lon="2.17639">
        <ele>541.919152</ele>
        <time>2025-04-28T21:10:07.845Z</time>
      </trkpt>
      <trkpt lat="43.36647" lon="2.17633">
        <ele>541.497103</ele>
        <time>2025-04-28T21:10:08.929Z</time>
      </trkpt>
      <trkpt lat="43.36459" lon="2.17421">
        <ele>527.203224</ele>
        <time>2025-04-28T21:10:46.316Z</time>
      </trkpt>
      <trkpt lat="43.36449" lon="2.17411">
        <ele>526.475192</ele>
        <time>2025-04-28T21:10:48.309Z</time>
      </trkpt>
      <trkpt lat="43.36435" lon="2.17405">
        <ele>525.684398</ele>
        <time>2025-04-28T21:10:50.486Z</time>
      </trkpt>
      <trkpt lat="43.36421" lon="2.17402">
        <ele>524.865612</ele>
        <time>2025-04-28T21:10:52.743Z</time>
      </trkpt>
      <trkpt lat="43.36386" lon="2.17403">
        <ele>523.021202</ele>
        <time>2025-04-28T21:10:58.393Z</time>
      </trkpt>
      <trkpt lat="43.36368" lon="2.17397">
        <ele>522.196571</ele>
        <time>2025-04-28T21:11:01.189Z</time>
      </trkpt>
      <trkpt lat="43.36309" lon="2.1736">
        <ele>519.178218</ele>
        <time>2025-04-28T21:11:11.372Z</time>
      </trkpt>
      <trkpt lat="43.36233" lon="2.17329">
        <ele>515.531445</ele>
        <time>2025-04-28T21:11:24.339Z</time>
      </trkpt>
      <trkpt lat="43.36177" lon="2.17308">
        <ele>514.324726</ele>
        <time>2025-04-28T21:11:34.572Z</time>
      </trkpt>
      <trkpt lat="43.36165" lon="2.17294">
        <ele>513.977383</ele>
        <time>2025-04-28T21:11:37.770Z</time>
      </trkpt>
      <trkpt lat="43.36146" lon="2.17284">
        <ele>513.552417</ele>
        <time>2025-04-28T21:11:41.850Z</time>
      </trkpt>
      <trkpt lat="43.36121" lon="2.17279">
        <ele>513.031375</ele>
        <time>2025-04-28T21:11:46.980Z</time>
      </trkpt>
      <trkpt lat="43.36118" lon="2.17274">
        <ele>512.923941</ele>
        <time>2025-04-28T21:11:48.017Z</time>
      </trkpt>
      <trkpt lat="43.36121" lon="2.17213">
        <ele>511.984843</ele>
        <time>2025-04-28T21:11:56.412Z</time>
      </trkpt>
      <trkpt lat="43.36107" lon="2.17144">
        <ele>509.618187</ele>
        <time>2025-04-28T21:12:05.447Z</time>
      </trkpt>
      <trkpt lat="43.36101" lon="2.17118">
        <ele>508.620068</ele>
        <time>2025-04-28T21:12:08.785Z</time>
      </trkpt>
      <trkpt lat="43.36119" lon="2.17089">
        <ele>507.211553</ele>
        <time>2025-04-28T21:12:16.954Z</time>
      </trkpt>
      <trkpt lat="43.3612" lon="2.17077">
        <ele>506.764655</ele>
        <time>2025-04-28T21:12:19.459Z</time>
      </trkpt>
      <trkpt lat="43.36125" lon="2.17072">
        <ele>506.456353</ele>
        <time>2025-04-28T21:12:21.128Z</time>
      </trkpt>
      <trkpt lat="43.36139" lon="2.17068">
        <ele>505.71796</ele>
        <time>2025-04-28T21:12:25.123Z</time>
      </trkpt>
      <trkpt lat="43.36156" lon="2.17058">
        <ele>504.764957</ele>
        <time>2025-04-28T21:12:30.171Z</time>
      </trkpt>
      <trkpt lat="43.36179" lon="2.17021">
        <ele>502.944942</ele>
        <time>2025-04-28T21:12:39.913Z</time>
      </trkpt>
      <trkpt lat="43.3613" lon="2.17">
        <ele>500.307485</ele>
        <time>2025-04-28T21:12:50.404Z</time>
      </trkpt>
      <trkpt lat="43.36119" lon="2.16997">
        <ele>499.733818</ele>
        <time>2025-04-28T21:12:52.662Z</time>
      </trkpt>
      <trkpt lat="43.36111" lon="2.16998">
        <ele>499.284758</ele>
        <time>2025-04-28T21:12:54.417Z</time>
      </trkpt>
      <trkpt lat="43.36074" lon="2.17013">
        <ele>497.333875</ele>
        <time>2025-04-28T21:13:02.154Z</time>
      </trkpt>
      <trkpt lat="43.36065" lon="2.17012">
        <ele>496.870503</ele>
        <time>2025-04-28T21:13:03.555Z</time>
      </trkpt>
      <trkpt lat="43.36084" lon="2.16987">
        <ele>495.523025</ele>
        <time>2025-04-28T21:13:07.706Z</time>
      </trkpt>
      <trkpt lat="43.36105" lon="2.16967">
        <ele>494.19768</ele>
        <time>2025-04-28T21:13:12.730Z</time>
      </trkpt>
      <trkpt lat="43.3612" lon="2.16959">
        <ele>493.400247</ele>
        <time>2025-04-28T21:13:16.439Z</time>
      </trkpt>
      <trkpt lat="43.36147" lon="2.16955">
        <ele>493.071795</ele>
        <time>2025-04-28T21:13:23.133Z</time>
      </trkpt>
      <trkpt lat="43.36169" lon="2.1696">
        <ele>492.824329</ele>
        <time>2025-04-28T21:13:27.831Z</time>
      </trkpt>
      <trkpt lat="43.3621" lon="2.16994">
        <ele>492.293822</ele>
        <time>2025-04-28T21:13:37.772Z</time>
      </trkpt>
      <trkpt lat="43.36224" lon="2.16999">
        <ele>492.125401</ele>
        <time>2025-04-28T21:13:40.971Z</time>
      </trkpt>
      <trkpt lat="43.36239" lon="2.16997">
        <ele>491.956284</ele>
        <time>2025-04-28T21:13:44.087Z</time>
      </trkpt>
      <trkpt lat="43.36246" lon="2.16997">
        <ele>491.879118</ele>
        <time>2025-04-28T21:13:45.419Z</time>
      </trkpt>
      <trkpt lat="43.36259" lon="2.16984">
        <ele>491.703931</ele>
        <time>2025-04-28T21:13:48.527Z</time>
      </trkpt>
      <trkpt lat="43.36264" lon="2.16972">
        <ele>491.591022</ele>
        <time>2025-04-28T21:13:50.428Z</time>
      </trkpt>
      <trkpt lat="43.36272" lon="2.16943">
        <ele>491.29789</ele>
        <time>2025-04-28T21:13:54.369Z</time>
      </trkpt>
      <trkpt lat="43.36269" lon="2.16917">
        <ele>490.630562</ele>
        <time>2025-04-28T21:13:57.604Z</time>
      </trkpt>
      <trkpt lat="43.36255" lon="2.16857">
        <ele>489.092483</ele>
        <time>2025-04-28T21:14:04.512Z</time>
      </trkpt>
      <trkpt lat="43.36245" lon="2.16843">
        <ele>488.596859</ele>
        <time>2025-04-28T21:14:06.775Z</time>
      </trkpt>
      <trkpt lat="43.36184" lon="2.16779">
        <ele>485.993339</ele>
        <time>2025-04-28T21:14:19.927Z</time>
      </trkpt>
      <trkpt lat="43.36162" lon="2.1676">
        <ele>485.174118</ele>
        <time>2025-04-28T21:14:25.052Z</time>
      </trkpt>
      <trkpt lat="43.36121" lon="2.16732">
        <ele>484.297319</ele>
        <time>2025-04-28T21:14:34.108Z</time>
      </trkpt>
      <trkpt lat="43.3612" lon="2.16725">
        <ele>484.188801</ele>
        <time>2025-04-28T21:14:35.162Z</time>
      </trkpt>
      <trkpt lat="43.36124" lon="2.16719">
        <ele>484.07355</ele>
        <time>2025-04-28T21:14:36.375Z</time>
      </trkpt>
      <trkpt lat="43.36111" lon="2.16686">
        <ele>483.552105</ele>
        <time>2025-04-28T21:14:41.437Z</time>
      </trkpt>
      <trkpt lat="43.36108" lon="2.16669">
        <ele>483.315249</ele>
        <time>2025-04-28T21:14:43.735Z</time>
      </trkpt>
      <trkpt lat="43.36104" lon="2.16647">
        <ele>482.997475</ele>
        <time>2025-04-28T21:14:46.812Z</time>
      </trkpt>
      <trkpt lat="43.36098" lon="2.16621">
        <ele>482.615403</ele>
        <time>2025-04-28T21:14:50.522Z</time>
      </trkpt>
      <trkpt lat="43.36095" lon="2.16611">
        <ele>482.464142</ele>
        <time>2025-04-28T21:14:51.959Z</time>
      </trkpt>
      <trkpt lat="43.36087" lon="2.16598">
        <ele>482.224319</ele>
        <time>2025-04-28T21:14:54.302Z</time>
      </trkpt>
      <trkpt lat="43.36063" lon="2.16571">
        <ele>481.46796</ele>
        <time>2025-04-28T21:14:59.950Z</time>
      </trkpt>
      <trkpt lat="43.36053" lon="2.16563">
        <ele>481.053909</ele>
        <time>2025-04-28T21:15:01.981Z</time>
      </trkpt>
      <trkpt lat="43.36045" lon="2.16556">
        <ele>480.695086</ele>
        <time>2025-04-28T21:15:03.751Z</time>
      </trkpt>
      <trkpt lat="43.36035" lon="2.16554">
        <ele>480.322653</ele>
        <time>2025-04-28T21:15:05.495Z</time>
      </trkpt>
      <trkpt lat="43.36032" lon="2.16552">
        <ele>480.219645</ele>
        <time>2025-04-28T21:15:05.994Z</time>
      </trkpt>
      <trkpt lat="43.35945" lon="2.16487">
        <ele>476.600602</ele>
        <time>2025-04-28T21:15:22.626Z</time>
      </trkpt>
      <trkpt lat="43.35835" lon="2.16423">
        <ele>471.182009</ele>
        <time>2025-04-28T21:15:41.413Z</time>
      </trkpt>
      <trkpt lat="43.3579" lon="2.16404">
        <ele>468.913036</ele>
        <time>2025-04-28T21:15:48.706Z</time>
      </trkpt>
      <trkpt lat="43.3578" lon="2.16397">
        <ele>468.324466</ele>
        <time>2025-04-28T21:15:50.630Z</time>
      </trkpt>
      <trkpt lat="43.35772" lon="2.16386">
        <ele>467.794524</ele>
        <time>2025-04-28T21:15:52.368Z</time>
      </trkpt>
      <trkpt lat="43.35766" lon="2.16372">
        <ele>467.21491</ele>
        <time>2025-04-28T21:15:54.282Z</time>
      </trkpt>
      <trkpt lat="43.35763" lon="2.16354">
        <ele>466.538408</ele>
        <time>2025-04-28T21:15:56.525Z</time>
      </trkpt>
      <trkpt lat="43.35764" lon="2.1633">
        <ele>465.908829</ele>
        <time>2025-04-28T21:15:59.308Z</time>
      </trkpt>
      <trkpt lat="43.35776" lon="2.16198">
        <ele>462.463428</ele>
        <time>2025-04-28T21:16:15.783Z</time>
      </trkpt>
      <trkpt lat="43.35772" lon="2.16171">
        <ele>461.752495</ele>
        <time>2025-04-28T21:16:19.154Z</time>
      </trkpt>
      <trkpt lat="43.35741" lon="2.16106">
        <ele>459.829788</ele>
        <time>2025-04-28T21:16:28.680Z</time>
      </trkpt>
      <trkpt lat="43.35734" lon="2.16084">
        <ele>459.339403</ele>
        <time>2025-04-28T21:16:31.696Z</time>
      </trkpt>
      <trkpt lat="43.35727" lon="2.16048">
        <ele>458.571142</ele>
        <time>2025-04-28T21:16:36.408Z</time>
      </trkpt>
      <trkpt lat="43.3572" lon="2.15941">
        <ele>456.386175</ele>
        <time>2025-04-28T21:16:50.124Z</time>
      </trkpt>
      <trkpt lat="43.3572" lon="2.15892">
        <ele>455.395986</ele>
        <time>2025-04-28T21:16:56.444Z</time>
      </trkpt>
      <trkpt lat="43.35722" lon="2.15851">
        <ele>454.540245</ele>
        <time>2025-04-28T21:17:01.825Z</time>
      </trkpt>
      <trkpt lat="43.35723" lon="2.15849">
        <ele>454.498654</ele>
        <time>2025-04-28T21:17:02.090Z</time>
      </trkpt>
      <trkpt lat="43.35774" lon="2.15326">
        <ele>443.45323</ele>
        <time>2025-04-28T21:18:08.591Z</time>
      </trkpt>
      <trkpt lat="43.35785" lon="2.15207">
        <ele>440.819298</ele>
        <time>2025-04-28T21:18:23.829Z</time>
      </trkpt>
      <trkpt lat="43.35786" lon="2.15182">
        <ele>440.264624</ele>
        <time>2025-04-28T21:18:26.989Z</time>
      </trkpt>
      <trkpt lat="43.35783" lon="2.15153">
        <ele>439.622666</ele>
        <time>2025-04-28T21:18:30.640Z</time>
      </trkpt>
      <trkpt lat="43.35775" lon="2.15104">
        <ele>438.341316</ele>
        <time>2025-04-28T21:18:36.837Z</time>
      </trkpt>
      <trkpt lat="43.35763" lon="2.15069">
        <ele>437.282381</ele>
        <time>2025-04-28T21:18:41.627Z</time>
      </trkpt>
      <trkpt lat="43.3575" lon="2.15038">
        <ele>436.310982</ele>
        <time>2025-04-28T21:18:45.968Z</time>
      </trkpt>
      <trkpt lat="43.35736" lon="2.15014">
        <ele>435.487793</ele>
        <time>2025-04-28T21:18:49.646Z</time>
      </trkpt>
      <trkpt lat="43.35714" lon="2.14987">
        <ele>434.400431</ele>
        <time>2025-04-28T21:18:54.478Z</time>
      </trkpt>
      <trkpt lat="43.35696" lon="2.14969">
        <ele>433.564996</ele>
        <time>2025-04-28T21:18:58.195Z</time>
      </trkpt>
      <trkpt lat="43.35591" lon="2.14879">
        <ele>428.566014</ele>
        <time>2025-04-28T21:19:18.432Z</time>
      </trkpt>
      <trkpt lat="43.35581" lon="2.14862">
        <ele>427.922436</ele>
        <time>2025-04-28T21:19:21.007Z</time>
      </trkpt>
      <trkpt lat="43.35577" lon="2.14851">
        <ele>427.554491</ele>
        <time>2025-04-28T21:19:22.467Z</time>
      </trkpt>
      <trkpt lat="43.35575" lon="2.14833">
        <ele>427.033255</ele>
        <time>2025-04-28T21:19:24.562Z</time>
      </trkpt>
      <trkpt lat="43.35574" lon="2.14782">
        <ele>425.517467</ele>
        <time>2025-04-28T21:19:30.678Z</time>
      </trkpt>
      <trkpt lat="43.35574" lon="2.14652">
        <ele>422.351922</ele>
        <time>2025-04-28T21:19:46.809Z</time>
      </trkpt>
      <trkpt lat="43.35577" lon="2.14614">
        <ele>421.453338</ele>
        <time>2025-04-28T21:19:51.549Z</time>
      </trkpt>
      <trkpt lat="43.35614" lon="2.14395">
        <ele>416.319382</ele>
        <time>2025-04-28T21:20:19.559Z</time>
      </trkpt>
      <trkpt lat="43.35623" lon="2.14325">
        <ele>414.72656</ele>
        <time>2025-04-28T21:20:28.534Z</time>
      </trkpt>
      <trkpt lat="43.35622" lon="2.143">
        <ele>414.179245</ele>
        <time>2025-04-28T21:20:31.642Z</time>
      </trkpt>
      <trkpt lat="43.35618" lon="2.14278">
        <ele>413.702197</ele>
        <time>2025-04-28T21:20:34.488Z</time>
      </trkpt>
      <trkpt lat="43.35612" lon="2.14268">
        <ele>413.458117</ele>
        <time>2025-04-28T21:20:36.085Z</time>
      </trkpt>
      <trkpt lat="43.3556" lon="2.14219">
        <ele>411.763706</ele>
        <time>2025-04-28T21:20:47.262Z</time>
      </trkpt>
      <trkpt lat="43.35551" lon="2.14203">
        <ele>411.381619</ele>
        <time>2025-04-28T21:20:49.795Z</time>
      </trkpt>
      <trkpt lat="43.35536" lon="2.14155">
        <ele>410.364602</ele>
        <time>2025-04-28T21:20:56.572Z</time>
      </trkpt>
      <trkpt lat="43.35531" lon="2.141">
        <ele>409.300855</ele>
        <time>2025-04-28T21:21:03.657Z</time>
      </trkpt>
      <trkpt lat="43.35533" lon="2.1407">
        <ele>408.7353</ele>
        <time>2025-04-28T21:21:07.501Z</time>
      </trkpt>
      <trkpt lat="43.35556" lon="2.13962">
        <ele>406.632915</ele>
        <time>2025-04-28T21:21:22.044Z</time>
      </trkpt>
      <trkpt lat="43.35557" lon="2.13946">
        <ele>406.336785</ele>
        <time>2025-04-28T21:21:24.098Z</time>
      </trkpt>
      <trkpt lat="43.35555" lon="2.13931">
        <ele>406.052489</ele>
        <time>2025-04-28T21:21:26.073Z</time>
      </trkpt>
      <trkpt lat="43.35542" lon="2.13904">
        <ele>405.453783</ele>
        <time>2025-04-28T21:21:30.234Z</time>
      </trkpt>
      <trkpt lat="43.35483" lon="2.13854">
        <ele>403.3201</ele>
        <time>2025-04-28T21:21:42.552Z</time>
      </trkpt>
      <trkpt lat="43.35469" lon="2.1383">
        <ele>402.494997</ele>
        <time>2025-04-28T21:21:46.416Z</time>
      </trkpt>
      <trkpt lat="43.35444" lon="2.13772">
        <ele>400.684438</ele>
        <time>2025-04-28T21:21:54.664Z</time>
      </trkpt>
      <trkpt lat="43.35429" lon="2.1375">
        <ele>399.863813</ele>
        <time>2025-04-28T21:21:58.348Z</time>
      </trkpt>
      <trkpt lat="43.35403" lon="2.13733">
        <ele>398.794825</ele>
        <time>2025-04-28T21:22:03.067Z</time>
      </trkpt>
      <trkpt lat="43.35375" lon="2.13728">
        <ele>397.707726</ele>
        <time>2025-04-28T21:22:07.641Z</time>
      </trkpt>
      <trkpt lat="43.35362" lon="2.1373">
        <ele>396.898202</ele>
        <time>2025-04-28T21:22:09.739Z</time>
      </trkpt>
      <trkpt lat="43.35309" lon="2.13742">
        <ele>393.660193</ele>
        <time>2025-04-28T21:22:18.022Z</time>
      </trkpt>
      <trkpt lat="43.35275" lon="2.13738">
        <ele>391.558743</ele>
        <time>2025-04-28T21:22:23.292Z</time>
      </trkpt>
      <trkpt lat="43.3526" lon="2.13733">
        <ele>390.622845</ele>
        <time>2025-04-28T21:22:25.612Z</time>
      </trkpt>
      <trkpt lat="43.35216" lon="2.13715">
        <ele>387.859723</ele>
        <time>2025-04-28T21:22:32.457Z</time>
      </trkpt>
      <trkpt lat="43.35193" lon="2.13682">
        <ele>385.77588</ele>
        <time>2025-04-28T21:22:37.464Z</time>
      </trkpt>
      <trkpt lat="43.35183" lon="2.13652">
        <ele>384.245725</ele>
        <time>2025-04-28T21:22:41.053Z</time>
      </trkpt>
      <trkpt lat="43.35183" lon="2.13636">
        <ele>383.488977</ele>
        <time>2025-04-28T21:22:42.838Z</time>
      </trkpt>
      <trkpt lat="43.35183" lon="2.13625">
        <ele>382.971299</ele>
        <time>2025-04-28T21:22:44.059Z</time>
      </trkpt>
      <trkpt lat="43.35184" lon="2.13609">
        <ele>382.233929</ele>
        <time>2025-04-28T21:22:45.798Z</time>
      </trkpt>
      <trkpt lat="43.35201" lon="2.13526">
        <ele>378.196481</ele>
        <time>2025-04-28T21:22:55.401Z</time>
      </trkpt>
      <trkpt lat="43.35206" lon="2.13493">
        <ele>376.618896</ele>
        <time>2025-04-28T21:22:59.185Z</time>
      </trkpt>
      <trkpt lat="43.35207" lon="2.13466">
        <ele>375.376399</ele>
        <time>2025-04-28T21:23:02.162Z</time>
      </trkpt>
      <trkpt lat="43.35204" lon="2.13439">
        <ele>374.197659</ele>
        <time>2025-04-28T21:23:05.251Z</time>
      </trkpt>
      <trkpt lat="43.35198" lon="2.13428">
        <ele>373.609914</ele>
        <time>2025-04-28T21:23:06.802Z</time>
      </trkpt>
      <trkpt lat="43.35182" lon="2.1341">
        <ele>372.390209</ele>
        <time>2025-04-28T21:23:10.024Z</time>
      </trkpt>
      <trkpt lat="43.35146" lon="2.13391">
        <ele>370.144581</ele>
        <time>2025-04-28T21:23:15.950Z</time>
      </trkpt>
      <trkpt lat="43.35134" lon="2.13379">
        <ele>369.286123</ele>
        <time>2025-04-28T21:23:18.206Z</time>
      </trkpt>
      <trkpt lat="43.35124" lon="2.13363">
        <ele>368.340188</ele>
        <time>2025-04-28T21:23:20.696Z</time>
      </trkpt>
      <trkpt lat="43.35114" lon="2.13336">
        <ele>367.062723</ele>
        <time>2025-04-28T21:23:24.049Z</time>
      </trkpt>
      <trkpt lat="43.35103" lon="2.13277">
        <ele>364.499698</ele>
        <time>2025-04-28T21:23:30.827Z</time>
      </trkpt>
      <trkpt lat="43.35101" lon="2.13248">
        <ele>363.315148</ele>
        <time>2025-04-28T21:23:34.182Z</time>
      </trkpt>
      <trkpt lat="43.35105" lon="2.13189">
        <ele>360.94534</ele>
        <time>2025-04-28T21:23:40.929Z</time>
      </trkpt>
      <trkpt lat="43.35127" lon="2.1307">
        <ele>356.068154</ele>
        <time>2025-04-28T21:23:54.855Z</time>
      </trkpt>
      <trkpt lat="43.35128" lon="2.13038">
        <ele>354.799239</ele>
        <time>2025-04-28T21:23:58.470Z</time>
      </trkpt>
      <trkpt lat="43.35126" lon="2.13022">
        <ele>354.14169</ele>
        <time>2025-04-28T21:24:00.344Z</time>
      </trkpt>
      <trkpt lat="43.35122" lon="2.13007">
        <ele>353.482649</ele>
        <time>2025-04-28T21:24:02.204Z</time>
      </trkpt>
      <trkpt lat="43.35116" lon="2.13001">
        <ele>353.086666</ele>
        <time>2025-04-28T21:24:03.332Z</time>
      </trkpt>
      <trkpt lat="43.35107" lon="2.12995">
        <ele>352.553297</ele>
        <time>2025-04-28T21:24:04.850Z</time>
      </trkpt>
      <trkpt lat="43.35082" lon="2.12991">
        <ele>351.162575</ele>
        <time>2025-04-28T21:24:08.782Z</time>
      </trkpt>
      <trkpt lat="43.35071" lon="2.12984">
        <ele>350.488245</ele>
        <time>2025-04-28T21:24:10.695Z</time>
      </trkpt>
      <trkpt lat="43.35064" lon="2.12973">
        <ele>349.90231</ele>
        <time>2025-04-28T21:24:12.346Z</time>
      </trkpt>
      <trkpt lat="43.35058" lon="2.12956">
        <ele>349.127247</ele>
        <time>2025-04-28T21:24:14.531Z</time>
      </trkpt>
      <trkpt lat="43.34983" lon="2.12606">
        <ele>334.361811</ele>
        <time>2025-04-28T21:24:55.874Z</time>
      </trkpt>
      <trkpt lat="43.34974" lon="2.12535">
        <ele>331.674398</ele>
        <time>2025-04-28T21:25:04.033Z</time>
      </trkpt>
      <trkpt lat="43.34971" lon="2.12482">
        <ele>329.709724</ele>
        <time>2025-04-28T21:25:09.990Z</time>
      </trkpt>
      <trkpt lat="43.34973" lon="2.12432">
        <ele>327.842565</ele>
        <time>2025-04-28T21:25:15.745Z</time>
      </trkpt>
      <trkpt lat="43.34983" lon="2.12391">
        <ele>326.225126</ele>
        <time>2025-04-28T21:25:20.865Z</time>
      </trkpt>
      <trkpt lat="43.34989" lon="2.12379">
        <ele>325.663693</ele>
        <time>2025-04-28T21:25:22.677Z</time>
      </trkpt>
      <trkpt lat="43.34998" lon="2.12371">
        <ele>325.154239</ele>
        <time>2025-04-28T21:25:24.407Z</time>
      </trkpt>
      <trkpt lat="43.35022" lon="2.12357">
        <ele>323.880994</ele>
        <time>2025-04-28T21:25:28.721Z</time>
      </trkpt>
      <trkpt lat="43.35052" lon="2.12347">
        <ele>322.366435</ele>
        <time>2025-04-28T21:25:33.718Z</time>
      </trkpt>
      <trkpt lat="43.35101" lon="2.12345">
        <ele>320.013091</ele>
        <time>2025-04-28T21:25:41.314Z</time>
      </trkpt>
      <trkpt lat="43.35114" lon="2.12336">
        <ele>319.301463</ele>
        <time>2025-04-28T21:25:43.586Z</time>
      </trkpt>
      <trkpt lat="43.35126" lon="2.12311">
        <ele>318.223103</ele>
        <time>2025-04-28T21:25:47.058Z</time>
      </trkpt>
      <trkpt lat="43.35132" lon="2.12277">
        <ele>316.987475</ele>
        <time>2025-04-28T21:25:51.095Z</time>
      </trkpt>
      <trkpt lat="43.35133" lon="2.1225">
        <ele>316.251487</ele>
        <time>2025-04-28T21:25:54.292Z</time>
      </trkpt>
      <trkpt lat="43.35136" lon="2.12239">
        <ele>315.962251</ele>
        <time>2025-04-28T21:25:55.616Z</time>
      </trkpt>
      <trkpt lat="43.35142" lon="2.12227">
        <ele>315.594815</ele>
        <time>2025-04-28T21:25:57.294Z</time>
      </trkpt>
      <trkpt lat="43.35155" lon="2.12219">
        <ele>315.097054</ele>
        <time>2025-04-28T21:25:59.564Z</time>
      </trkpt>
      <trkpt lat="43.35166" lon="2.12219">
        <ele>314.706828</ele>
        <time>2025-04-28T21:26:01.359Z</time>
      </trkpt>
      <trkpt lat="43.35253" lon="2.12229">
        <ele>311.630472</ele>
        <time>2025-04-28T21:26:16.303Z</time>
      </trkpt>
      <trkpt lat="43.35305" lon="2.12225">
        <ele>310.479987</ele>
        <time>2025-04-28T21:26:25.691Z</time>
      </trkpt>
      <trkpt lat="43.35322" lon="2.1223">
        <ele>310.41476</ele>
        <time>2025-04-28T21:26:29.026Z</time>
      </trkpt>
      <trkpt lat="43.35357" lon="2.12247">
        <ele>310.276191</ele>
        <time>2025-04-28T21:26:36.479Z</time>
      </trkpt>
      <trkpt lat="43.35369" lon="2.12244">
        <ele>310.231052</ele>
        <time>2025-04-28T21:26:38.911Z</time>
      </trkpt>
      <trkpt lat="43.35374" lon="2.12238">
        <ele>310.206176</ele>
        <time>2025-04-28T21:26:40.257Z</time>
      </trkpt>
      <trkpt lat="43.35385" lon="2.12213">
        <ele>310.130274</ele>
        <time>2025-04-28T21:26:44.495Z</time>
      </trkpt>
      <trkpt lat="43.35393" lon="2.12184">
        <ele>310.046067</ele>
        <time>2025-04-28T21:26:49.352Z</time>
      </trkpt>
      <trkpt lat="43.35391" lon="2.12166">
        <ele>309.997579</ele>
        <time>2025-04-28T21:26:52.326Z</time>
      </trkpt>
      <trkpt lat="43.35385" lon="2.1216">
        <ele>309.971943</ele>
        <time>2025-04-28T21:26:53.912Z</time>
      </trkpt>
      <trkpt lat="43.35245" lon="2.12102">
        <ele>313.304806</ele>
        <time>2025-04-28T21:27:31.156Z</time>
      </trkpt>
      <trkpt lat="43.3512" lon="2.12035">
        <ele>318.013341</ele>
        <time>2025-04-28T21:28:07.723Z</time>
      </trkpt>
      <trkpt lat="43.35106" lon="2.12018">
        <ele>318.784103</ele>
        <time>2025-04-28T21:28:13.115Z</time>
      </trkpt>
      <trkpt lat="43.35099" lon="2.12005">
        <ele>319.258958</ele>
        <time>2025-04-28T21:28:16.436Z</time>
      </trkpt>
      <trkpt lat="43.35072" lon="2.11979">
        <ele>320.590495</ele>
        <time>2025-04-28T21:28:25.708Z</time>
      </trkpt>
      <trkpt lat="43.34991" lon="2.11937">
        <ele>324.517764</ele>
        <time>2025-04-28T21:28:50.318Z</time>
      </trkpt>
      <trkpt lat="43.34972" lon="2.1192">
        <ele>325.611639</ele>
        <time>2025-04-28T21:28:56.452Z</time>
      </trkpt>
      <trkpt lat="43.34968" lon="2.11908">
        <ele>326.103003</ele>
        <time>2025-04-28T21:28:59.210Z</time>
      </trkpt>
      <trkpt lat="43.34964" lon="2.11886">
        <ele>326.893007</ele>
        <time>2025-04-28T21:29:03.740Z</time>
      </trkpt>
      <trkpt lat="43.34962" lon="2.11838">
        <ele>328.620583</ele>
        <time>2025-04-28T21:29:14.058Z</time>
      </trkpt>
      <trkpt lat="43.34965" lon="2.118">
        <ele>329.961539</ele>
        <time>2025-04-28T21:29:22.535Z</time>
      </trkpt>
      <trkpt lat="43.34971" lon="2.11779">
        <ele>330.763822</ele>
        <time>2025-04-28T21:29:27.778Z</time>
      </trkpt>
      <trkpt lat="43.35022" lon="2.11681">
        <ele>336.73155</ele>
        <time>2025-04-28T21:29:57.529Z</time>
      </trkpt>
      <trkpt lat="43.35031" lon="2.11668">
        <ele>337.671018</ele>
        <time>2025-04-28T21:30:02.381Z</time>
      </trkpt>
      <trkpt lat="43.35048" lon="2.11649">
        <ele>339.125647</ele>
        <time>2025-04-28T21:30:09.852Z</time>
      </trkpt>
      <trkpt lat="43.35172" lon="2.11537">
        <ele>348.228872</ele>
        <time>2025-04-28T21:30:59.824Z</time>
      </trkpt>
      <trkpt lat="43.35181" lon="2.11529">
        <ele>348.840924</ele>
        <time>2025-04-28T21:31:03.210Z</time>
      </trkpt>
      <trkpt lat="43.35191" lon="2.11517">
        <ele>349.580609</ele>
        <time>2025-04-28T21:31:07.217Z</time>
      </trkpt>
      <trkpt lat="43.35197" lon="2.11504">
        <ele>350.220474</ele>
        <time>2025-04-28T21:31:10.636Z</time>
      </trkpt>
      <trkpt lat="43.35204" lon="2.11482">
        <ele>351.16902</ele>
        <time>2025-04-28T21:31:15.651Z</time>
      </trkpt>
      <trkpt lat="43.35244" lon="2.11287">
        <ele>356.823068</ele>
        <time>2025-04-28T21:31:55.525Z</time>
      </trkpt>
      <trkpt lat="43.35269" lon="2.1117">
        <ele>359.432372</ele>
        <time>2025-04-28T21:32:18.215Z</time>
      </trkpt>
      <trkpt lat="43.35274" lon="2.11148">
        <ele>359.749482</ele>
        <time>2025-04-28T21:32:22.470Z</time>
      </trkpt>
      <trkpt lat="43.3539" lon="2.10607">
        <ele>365.896611</ele>
        <time>2025-04-28T21:34:02.125Z</time>
      </trkpt>
      <trkpt lat="43.35392" lon="2.10595">
        <ele>365.947616</ele>
        <time>2025-04-28T21:34:04.155Z</time>
      </trkpt>
      <trkpt lat="43.35435" lon="2.10391">
        <ele>365.18895</ele>
        <time>2025-04-28T21:34:35.863Z</time>
      </trkpt>
      <trkpt lat="43.35438" lon="2.10368">
        <ele>364.876329</ele>
        <time>2025-04-28T21:34:39.054Z</time>
      </trkpt>
      <trkpt lat="43.35436" lon="2.10346">
        <ele>364.593913</ele>
        <time>2025-04-28T21:34:41.902Z</time>
      </trkpt>
      <trkpt lat="43.35431" lon="2.10329">
        <ele>364.350624</ele>
        <time>2025-04-28T21:34:44.318Z</time>
      </trkpt>
      <trkpt lat="43.3541" lon="2.10287">
        <ele>363.668835</ele>
        <time>2025-04-28T21:34:50.962Z</time>
      </trkpt>
      <trkpt lat="43.35319" lon="2.10117">
        <ele>358.245594</ele>
        <time>2025-04-28T21:35:16.633Z</time>
      </trkpt>
      <trkpt lat="43.35296" lon="2.1007">
        <ele>356.635129</ele>
        <time>2025-04-28T21:35:23.275Z</time>
      </trkpt>
      <trkpt lat="43.35293" lon="2.10054">
        <ele>356.174528</ele>
        <time>2025-04-28T21:35:25.157Z</time>
      </trkpt>
      <trkpt lat="43.35293" lon="2.10039">
        <ele>355.715195</ele>
        <time>2025-04-28T21:35:26.905Z</time>
      </trkpt>
      <trkpt lat="43.35297" lon="2.10022">
        <ele>355.166047</ele>
        <time>2025-04-28T21:35:28.979Z</time>
      </trkpt>
      <trkpt lat="43.35377" lon="2.0977">
        <ele>347.249913</ele>
        <time>2025-04-28T21:36:01.577Z</time>
      </trkpt>
      <trkpt lat="43.35389" lon="2.09747">
        <ele>346.623856</ele>
        <time>2025-04-28T21:36:05.427Z</time>
      </trkpt>
      <trkpt lat="43.3541" lon="2.0973">
        <ele>345.878977</ele>
        <time>2025-04-28T21:36:09.989Z</time>
      </trkpt>
      <trkpt lat="43.35414" lon="2.09726">
        <ele>345.726591</ele>
        <time>2025-04-28T21:36:10.904Z</time>
      </trkpt>
      <trkpt lat="43.35424" lon="2.09709">
        <ele>345.24183</ele>
        <time>2025-04-28T21:36:13.788Z</time>
      </trkpt>
      <trkpt lat="43.35428" lon="2.09696">
        <ele>344.922142</ele>
        <time>2025-04-28T21:36:15.661Z</time>
      </trkpt>
      <trkpt lat="43.35427" lon="2.09687">
        <ele>344.715073</ele>
        <time>2025-04-28T21:36:16.861Z</time>
      </trkpt>
      <trkpt lat="43.35424" lon="2.09678">
        <ele>344.49213</ele>
        <time>2025-04-28T21:36:18.151Z</time>
      </trkpt>
      <trkpt lat="43.35415" lon="2.09667">
        <ele>344.109028</ele>
        <time>2025-04-28T21:36:20.331Z</time>
      </trkpt>
      <trkpt lat="43.35403" lon="2.09658">
        <ele>343.697643</ele>
        <time>2025-04-28T21:36:22.662Z</time>
      </trkpt>
      <trkpt lat="43.35386" lon="2.09652">
        <ele>343.183177</ele>
        <time>2025-04-28T21:36:25.536Z</time>
      </trkpt>
      <trkpt lat="43.35377" lon="2.09655">
        <ele>342.817652</ele>
        <time>2025-04-28T21:36:27.217Z</time>
      </trkpt>
      <trkpt lat="43.35296" lon="2.09697">
        <ele>339.280456</ele>
        <time>2025-04-28T21:36:41.170Z</time>
      </trkpt>
      <trkpt lat="43.35273" lon="2.09693">
        <ele>338.324804</ele>
        <time>2025-04-28T21:36:44.842Z</time>
      </trkpt>
      <trkpt lat="43.35202" lon="2.09662">
        <ele>335.25439</ele>
        <time>2025-04-28T21:36:57.079Z</time>
      </trkpt>
      <trkpt lat="43.35185" lon="2.09649">
        <ele>334.552296</ele>
        <time>2025-04-28T21:37:00.258Z</time>
      </trkpt>
      <trkpt lat="43.35177" lon="2.09635">
        <ele>334.044034</ele>
        <time>2025-04-28T21:37:02.581Z</time>
      </trkpt>
      <trkpt lat="43.35149" lon="2.09539">
        <ele>331.263199</ele>
        <time>2025-04-28T21:37:15.141Z</time>
      </trkpt>
      <trkpt lat="43.35147" lon="2.09522">
        <ele>330.795444</ele>
        <time>2025-04-28T21:37:17.215Z</time>
      </trkpt>
      <trkpt lat="43.35148" lon="2.09488">
        <ele>329.877148</ele>
        <time>2025-04-28T21:37:21.314Z</time>
      </trkpt>
      <trkpt lat="43.35156" lon="2.09381">
        <ele>326.75714</ele>
        <time>2025-04-28T21:37:34.531Z</time>
      </trkpt>
      <trkpt lat="43.35161" lon="2.09322">
        <ele>325.023831</ele>
        <time>2025-04-28T21:37:41.578Z</time>
      </trkpt>
      <trkpt lat="43.3516" lon="2.09299">
        <ele>324.31436</ele>
        <time>2025-04-28T21:37:44.440Z</time>
      </trkpt>
      <trkpt lat="43.35158" lon="2.0929">
        <ele>324.047783</ele>
        <time>2025-04-28T21:37:45.510Z</time>
      </trkpt>
      <trkpt lat="43.35149" lon="2.09263">
        <ele>323.169763</ele>
        <time>2025-04-28T21:37:49.006Z</time>
      </trkpt>
      <trkpt lat="43.35113" lon="2.09191">
        <ele>320.38198</ele>
        <time>2025-04-28T21:37:59.266Z</time>
      </trkpt>
      <trkpt lat="43.35098" lon="2.09155">
        <ele>318.944263</ele>
        <time>2025-04-28T21:38:03.997Z</time>
      </trkpt>
      <trkpt lat="43.35075" lon="2.09011">
        <ele>313.813653</ele>
        <time>2025-04-28T21:38:21.059Z</time>
      </trkpt>
      <trkpt lat="43.35068" lon="2.0897">
        <ele>312.451414</ele>
        <time>2025-04-28T21:38:26.034Z</time>
      </trkpt>
      <trkpt lat="43.35061" lon="2.0893">
        <ele>311.323774</ele>
        <time>2025-04-28T21:38:30.776Z</time>
      </trkpt>
      <trkpt lat="43.35059" lon="2.08883">
        <ele>310.005211</ele>
        <time>2025-04-28T21:38:36.337Z</time>
      </trkpt>
      <trkpt lat="43.35071" lon="2.08751">
        <ele>306.335248</ele>
        <time>2025-04-28T21:38:52.611Z</time>
      </trkpt>
      <trkpt lat="43.35075" lon="2.0874">
        <ele>305.995121</ele>
        <time>2025-04-28T21:38:54.295Z</time>
      </trkpt>
      <trkpt lat="43.35082" lon="2.08731">
        <ele>305.694479</ele>
        <time>2025-04-28T21:38:55.951Z</time>
      </trkpt>
      <trkpt lat="43.35092" lon="2.08723">
        <ele>305.315877</ele>
        <time>2025-04-28T21:38:58.023Z</time>
      </trkpt>
      <trkpt lat="43.35111" lon="2.08726">
        <ele>304.685167</ele>
        <time>2025-04-28T21:39:01.485Z</time>
      </trkpt>
      <trkpt lat="43.35127" lon="2.08735">
        <ele>304.113949</ele>
        <time>2025-04-28T21:39:04.581Z</time>
      </trkpt>
      <trkpt lat="43.35145" lon="2.08735">
        <ele>303.538293</ele>
        <time>2025-04-28T21:39:07.707Z</time>
      </trkpt>
      <trkpt lat="43.35152" lon="2.08729">
        <ele>303.27552</ele>
        <time>2025-04-28T21:39:09.133Z</time>
      </trkpt>
      <trkpt lat="43.35158" lon="2.08715">
        <ele>302.880344</ele>
        <time>2025-04-28T21:39:11.258Z</time>
      </trkpt>
      <trkpt lat="43.35161" lon="2.08701">
        <ele>302.515254</ele>
        <time>2025-04-28T21:39:13.197Z</time>
      </trkpt>
      <trkpt lat="43.35159" lon="2.08687">
        <ele>302.18346</ele>
        <time>2025-04-28T21:39:14.956Z</time>
      </trkpt>
      <trkpt lat="43.35152" lon="2.08672">
        <ele>301.753234</ele>
        <time>2025-04-28T21:39:17.184Z</time>
      </trkpt>
      <trkpt lat="43.35139" lon="2.08661">
        <ele>301.244385</ele>
        <time>2025-04-28T21:39:19.773Z</time>
      </trkpt>
      <trkpt lat="43.35079" lon="2.08628">
        <ele>298.395681</ele>
        <time>2025-04-28T21:39:30.055Z</time>
      </trkpt>
      <trkpt lat="43.35067" lon="2.08617">
        <ele>297.595391</ele>
        <time>2025-04-28T21:39:32.280Z</time>
      </trkpt>
      <trkpt lat="43.35056" lon="2.08601">
        <ele>296.680682</ele>
        <time>2025-04-28T21:39:34.843Z</time>
      </trkpt>
      <trkpt lat="43.35043" lon="2.0857">
        <ele>295.255227</ele>
        <time>2025-04-28T21:39:38.840Z</time>
      </trkpt>
      <trkpt lat="43.3503" lon="2.08535">
        <ele>293.661957</ele>
        <time>2025-04-28T21:39:43.315Z</time>
      </trkpt>
      <trkpt lat="43.35026" lon="2.0852">
        <ele>293.021778</ele>
        <time>2025-04-28T21:39:45.107Z</time>
      </trkpt>
      <trkpt lat="43.35027" lon="2.08503">
        <ele>292.351029</ele>
        <time>2025-04-28T21:39:46.971Z</time>
      </trkpt>
      <trkpt lat="43.3503" lon="2.08494">
        <ele>291.939458</ele>
        <time>2025-04-28T21:39:48.115Z</time>
      </trkpt>
      <trkpt lat="43.35034" lon="2.08483">
        <ele>291.44558</ele>
        <time>2025-04-28T21:39:49.484Z</time>
      </trkpt>
      <trkpt lat="43.35035" lon="2.08467">
        <ele>290.803228</ele>
        <time>2025-04-28T21:39:51.263Z</time>
      </trkpt>
      <trkpt lat="43.35033" lon="2.08457">
        <ele>290.374414</ele>
        <time>2025-04-28T21:39:52.455Z</time>
      </trkpt>
      <trkpt lat="43.35016" lon="2.08443">
        <ele>289.266201</ele>
        <time>2025-04-28T21:39:55.470Z</time>
      </trkpt>
      <trkpt lat="43.35008" lon="2.08431">
        <ele>288.5845</ele>
        <time>2025-04-28T21:39:57.302Z</time>
      </trkpt>
      <trkpt lat="43.34973" lon="2.08356">
        <ele>284.952538</ele>
        <time>2025-04-28T21:40:07.077Z</time>
      </trkpt>
      <trkpt lat="43.3495" lon="2.08296">
        <ele>282.156909</ele>
        <time>2025-04-28T21:40:14.677Z</time>
      </trkpt>
      <trkpt lat="43.34947" lon="2.08266">
        <ele>280.908578</ele>
        <time>2025-04-28T21:40:18.180Z</time>
      </trkpt>
      <trkpt lat="43.34948" lon="2.08181">
        <ele>278.703992</ele>
        <time>2025-04-28T21:40:28.742Z</time>
      </trkpt>
      <trkpt lat="43.34952" lon="2.08153">
        <ele>278.112577</ele>
        <time>2025-04-28T21:40:32.553Z</time>
      </trkpt>
      <trkpt lat="43.34955" lon="2.08143">
        <ele>277.895866</ele>
        <time>2025-04-28T21:40:33.965Z</time>
      </trkpt>
      <trkpt lat="43.34963" lon="2.08129">
        <ele>277.498246</ele>
        <time>2025-04-28T21:40:36.580Z</time>
      </trkpt>
      <trkpt lat="43.35014" lon="2.08078">
        <ele>275.699093</ele>
        <time>2025-04-28T21:40:47.860Z</time>
      </trkpt>
      <trkpt lat="43.35019" lon="2.08072">
        <ele>275.491232</ele>
        <time>2025-04-28T21:40:49.103Z</time>
      </trkpt>
      <trkpt lat="43.35025" lon="2.08058">
        <ele>275.171815</ele>
        <time>2025-04-28T21:40:51.034Z</time>
      </trkpt>
      <trkpt lat="43.35026" lon="2.08052">
        <ele>275.0249</ele>
        <time>2025-04-28T21:40:51.895Z</time>
      </trkpt>
      <trkpt lat="43.35023" lon="2.08035">
        <ele>274.688691</ele>
        <time>2025-04-28T21:40:54.030Z</time>
      </trkpt>
      <trkpt lat="43.35016" lon="2.08024">
        <ele>274.42568</ele>
        <time>2025-04-28T21:40:55.777Z</time>
      </trkpt>
      <trkpt lat="43.34989" lon="2.08002">
        <ele>273.638632</ele>
        <time>2025-04-28T21:41:00.929Z</time>
      </trkpt>
      <trkpt lat="43.34985" lon="2.07995">
        <ele>273.466102</ele>
        <time>2025-04-28T21:41:02.037Z</time>
      </trkpt>
      <trkpt lat="43.34982" lon="2.07979">
        <ele>273.156269</ele>
        <time>2025-04-28T21:41:04.053Z</time>
      </trkpt>
      <trkpt lat="43.34984" lon="2.0797">
        <ele>272.977432</ele>
        <time>2025-04-28T21:41:05.216Z</time>
      </trkpt>
      <trkpt lat="43.34992" lon="2.07957">
        <ele>272.676835</ele>
        <time>2025-04-28T21:41:07.164Z</time>
      </trkpt>
      <trkpt lat="43.35035" lon="2.07908">
        <ele>271.27327</ele>
        <time>2025-04-28T21:41:16.817Z</time>
      </trkpt>
      <trkpt lat="43.3505" lon="2.07885">
        <ele>270.696468</ele>
        <time>2025-04-28T21:41:21.418Z</time>
      </trkpt>
      <trkpt lat="43.35058" lon="2.07862">
        <ele>270.321231</ele>
        <time>2025-04-28T21:41:25.511Z</time>
      </trkpt>
      <trkpt lat="43.35072" lon="2.07796">
        <ele>270.147372</ele>
        <time>2025-04-28T21:41:37.205Z</time>
      </trkpt>
      <trkpt lat="43.35074" lon="2.07763">
        <ele>270.063324</ele>
        <time>2025-04-28T21:41:42.865Z</time>
      </trkpt>
      <trkpt lat="43.35072" lon="2.07739">
        <ele>270.001423</ele>
        <time>2025-04-28T21:41:46.953Z</time>
      </trkpt>
      <trkpt lat="43.35062" lon="2.07728">
        <ele>269.958795</ele>
        <time>2025-04-28T21:41:49.739Z</time>
      </trkpt>
      <trkpt lat="43.35046" lon="2.07729">
        <ele>269.902533</ele>
        <time>2025-04-28T21:41:53.332Z</time>
      </trkpt>
      <trkpt lat="43.34878" lon="2.07838">
        <ele>266.315632</ele>
        <time>2025-04-28T21:42:26.973Z</time>
      </trkpt>
      <trkpt lat="43.3484" lon="2.07882">
        <ele>265.013163</ele>
        <time>2025-04-28T21:42:35.287Z</time>
      </trkpt>
      <trkpt lat="43.34796" lon="2.07905">
        <ele>263.302735</ele>
        <time>2025-04-28T21:42:43.037Z</time>
      </trkpt>
      <trkpt lat="43.34763" lon="2.07943">
        <ele>261.721582</ele>
        <time>2025-04-28T21:42:50.179Z</time>
      </trkpt>
      <trkpt lat="43.34747" lon="2.07954">
        <ele>261.083546</ele>
        <time>2025-04-28T21:42:53.067Z</time>
      </trkpt>
      <trkpt lat="43.34734" lon="2.07958">
        <ele>260.584141</ele>
        <time>2025-04-28T21:42:55.321Z</time>
      </trkpt>
      <trkpt lat="43.34627" lon="2.07976">
        <ele>257.110925</ele>
        <time>2025-04-28T21:43:13.507Z</time>
      </trkpt>
      <trkpt lat="43.34611" lon="2.07971">
        <ele>256.660176</ele>
        <time>2025-04-28T21:43:16.473Z</time>
      </trkpt>
      <trkpt lat="43.34599" lon="2.07964">
        <ele>256.302792</ele>
        <time>2025-04-28T21:43:18.866Z</time>
      </trkpt>
      <trkpt lat="43.34509" lon="2.07892">
        <ele>253.450932</ele>
        <time>2025-04-28T21:43:37.514Z</time>
      </trkpt>
      <trkpt lat="43.34503" lon="2.07885">
        <ele>253.141071</ele>
        <time>2025-04-28T21:43:38.885Z</time>
      </trkpt>
      <trkpt lat="43.34494" lon="2.07873">
        <ele>252.633061</ele>
        <time>2025-04-28T21:43:41.101Z</time>
      </trkpt>
      <trkpt lat="43.34488" lon="2.07847">
        <ele>251.829002</ele>
        <time>2025-04-28T21:43:44.552Z</time>
      </trkpt>
      <trkpt lat="43.34486" lon="2.07828">
        <ele>251.282094</ele>
        <time>2025-04-28T21:43:46.859Z</time>
      </trkpt>
      <trkpt lat="43.34488" lon="2.07765">
        <ele>249.431217</ele>
        <time>2025-04-28T21:43:54.451Z</time>
      </trkpt>
      <trkpt lat="43.34493" lon="2.0774">
        <ele>248.691426</ele>
        <time>2025-04-28T21:43:57.415Z</time>
      </trkpt>
      <trkpt lat="43.34506" lon="2.077">
        <ele>247.389116</ele>
        <time>2025-04-28T21:44:02.551Z</time>
      </trkpt>
      <trkpt lat="43.34506" lon="2.07678">
        <ele>246.769958</ele>
        <time>2025-04-28T21:44:04.990Z</time>
      </trkpt>
      <trkpt lat="43.34495" lon="2.07633">
        <ele>245.217729</ele>
        <time>2025-04-28T21:44:10.481Z</time>
      </trkpt>
      <trkpt lat="43.34492" lon="2.0758">
        <ele>243.409574</ele>
        <time>2025-04-28T21:44:16.584Z</time>
      </trkpt>
      <trkpt lat="43.34469" lon="2.07462">
        <ele>239.231362</ele>
        <time>2025-04-28T21:44:30.855Z</time>
      </trkpt>
      <trkpt lat="43.34466" lon="2.07446">
        <ele>238.662862</ele>
        <time>2025-04-28T21:44:32.815Z</time>
      </trkpt>
      <trkpt lat="43.34466" lon="2.07418">
        <ele>237.747683</ele>
        <time>2025-04-28T21:44:36.133Z</time>
      </trkpt>
      <trkpt lat="43.34472" lon="2.07382">
        <ele>236.801447</ele>
        <time>2025-04-28T21:44:40.515Z</time>
      </trkpt>
      <trkpt lat="43.34482" lon="2.07342">
        <ele>235.720589</ele>
        <time>2025-04-28T21:44:45.545Z</time>
      </trkpt>
      <trkpt lat="43.34543" lon="2.07127">
        <ele>230.055262</ele>
        <time>2025-04-28T21:45:14.274Z</time>
      </trkpt>
      <trkpt lat="43.34554" lon="2.07108">
        <ele>229.522941</ele>
        <time>2025-04-28T21:45:17.455Z</time>
      </trkpt>
      <trkpt lat="43.34589" lon="2.07057">
        <ele>227.995498</ele>
        <time>2025-04-28T21:45:26.481Z</time>
      </trkpt>
      <trkpt lat="43.34594" lon="2.07046">
        <ele>227.723</ele>
        <time>2025-04-28T21:45:28.074Z</time>
      </trkpt>
      <trkpt lat="43.34596" lon="2.07036">
        <ele>227.483048</ele>
        <time>2025-04-28T21:45:29.469Z</time>
      </trkpt>
      <trkpt lat="43.34596" lon="2.0701">
        <ele>226.926615</ele>
        <time>2025-04-28T21:45:32.711Z</time>
      </trkpt>
      <trkpt lat="43.34588" lon="2.06939">
        <ele>225.459876</ele>
        <time>2025-04-28T21:45:41.701Z</time>
      </trkpt>
      <trkpt lat="43.34588" lon="2.06916">
        <ele>225.014455</ele>
        <time>2025-04-28T21:45:44.530Z</time>
      </trkpt>
      <trkpt lat="43.34593" lon="2.06894">
        <ele>224.569862</ele>
        <time>2025-04-28T21:45:47.338Z</time>
      </trkpt>
      <trkpt lat="43.34613" lon="2.06866">
        <ele>223.835057</ele>
        <time>2025-04-28T21:45:51.948Z</time>
      </trkpt>
      <trkpt lat="43.34621" lon="2.0685">
        <ele>223.4423</ele>
        <time>2025-04-28T21:45:54.420Z</time>
      </trkpt>
      <trkpt lat="43.34623" lon="2.0683">
        <ele>223.070791</ele>
        <time>2025-04-28T21:45:56.796Z</time>
      </trkpt>
      <trkpt lat="43.34614" lon="2.06785">
        <ele>222.169117</ele>
        <time>2025-04-28T21:46:02.849Z</time>
      </trkpt>
      <trkpt lat="43.34611" lon="2.06773">
        <ele>221.911107</ele>
        <time>2025-04-28T21:46:04.754Z</time>
      </trkpt>
      <trkpt lat="43.34605" lon="2.06748">
        <ele>221.410144</ele>
        <time>2025-04-28T21:46:08.576Z</time>
      </trkpt>
      <trkpt lat="43.34597" lon="2.06717">
        <ele>221.794748</ele>
        <time>2025-04-28T21:46:13.420Z</time>
      </trkpt>
      <trkpt lat="43.34588" lon="2.06702">
        <ele>222.034374</ele>
        <time>2025-04-28T21:46:16.565Z</time>
      </trkpt>
      <trkpt lat="43.34545" lon="2.06647">
        <ele>223.011455</ele>
        <time>2025-04-28T21:46:30.710Z</time>
      </trkpt>
      <trkpt lat="43.34482" lon="2.06574">
        <ele>224.377056</ele>
        <time>2025-04-28T21:46:52.427Z</time>
      </trkpt>
      <trkpt lat="43.34468" lon="2.06564">
        <ele>224.831724</ele>
        <time>2025-04-28T21:46:56.492Z</time>
      </trkpt>
      <trkpt lat="43.34328" lon="2.06499">
        <ele>229.361558</ele>
        <time>2025-04-28T21:47:36.364Z</time>
      </trkpt>
      <trkpt lat="43.34317" lon="2.06486">
        <ele>229.797785</ele>
        <time>2025-04-28T21:47:40.046Z</time>
      </trkpt>
      <trkpt lat="43.34311" lon="2.06471">
        <ele>229.652257</ele>
        <time>2025-04-28T21:47:43.158Z</time>
      </trkpt>
      <trkpt lat="43.34305" lon="2.06446">
        <ele>229.209337</ele>
        <time>2025-04-28T21:47:47.744Z</time>
      </trkpt>
      <trkpt lat="43.34296" lon="2.0637">
        <ele>227.918376</ele>
        <time>2025-04-28T21:47:59.402Z</time>
      </trkpt>
      <trkpt lat="43.3429" lon="2.06345">
        <ele>227.490726</ele>
        <time>2025-04-28T21:48:02.801Z</time>
      </trkpt>
      <trkpt lat="43.34114" lon="2.05828">
        <ele>207.044606</ele>
        <time>2025-04-28T21:49:06.819Z</time>
      </trkpt>
      <trkpt lat="43.33988" lon="2.05453">
        <ele>203.244502</ele>
        <time>2025-04-28T21:50:07.456Z</time>
      </trkpt>
      <trkpt lat="43.33971" lon="2.05393">
        <ele>202.938298</ele>
        <time>2025-04-28T21:50:17.427Z</time>
      </trkpt>
      <trkpt lat="43.33952" lon="2.05361">
        <ele>202.743496</ele>
        <time>2025-04-28T21:50:23.626Z</time>
      </trkpt>
      <trkpt lat="43.33867" lon="2.05284">
        <ele>200.264874</ele>
        <time>2025-04-28T21:50:42.929Z</time>
      </trkpt>
      <trkpt lat="43.33724" lon="2.05161">
        <ele>194.549292</ele>
        <time>2025-04-28T21:51:10.896Z</time>
      </trkpt>
      <trkpt lat="43.33714" lon="2.0515">
        <ele>194.025138</ele>
        <time>2025-04-28T21:51:12.912Z</time>
      </trkpt>
      <trkpt lat="43.33697" lon="2.05126">
        <ele>193.023367</ele>
        <time>2025-04-28T21:51:16.759Z</time>
      </trkpt>
      <trkpt lat="43.33632" lon="2.05011">
        <ele>189.560913</ele>
        <time>2025-04-28T21:51:34.065Z</time>
      </trkpt>
      <trkpt lat="43.3362" lon="2.04983">
        <ele>189.014643</ele>
        <time>2025-04-28T21:51:38.113Z</time>
      </trkpt>
      <trkpt lat="43.33574" lon="2.04842">
        <ele>186.683924</ele>
        <time>2025-04-28T21:51:59.701Z</time>
      </trkpt>
      <trkpt lat="43.3357" lon="2.0483">
        <ele>186.769368</ele>
        <time>2025-04-28T21:52:01.749Z</time>
      </trkpt>
      <trkpt lat="43.33534" lon="2.04718">
        <ele>187.590061</ele>
        <time>2025-04-28T21:52:22.150Z</time>
      </trkpt>
      <trkpt lat="43.3353" lon="2.04704">
        <ele>187.684692</ele>
        <time>2025-04-28T21:52:24.616Z</time>
      </trkpt>
      <trkpt lat="43.33509" lon="2.04627">
        <ele>188.233993</ele>
        <time>2025-04-28T21:52:39.296Z</time>
      </trkpt>
      <trkpt lat="43.335" lon="2.04602">
        <ele>188.632838</ele>
        <time>2025-04-28T21:52:44.348Z</time>
      </trkpt>
      <trkpt lat="43.33488" lon="2.04582">
        <ele>189.051673</ele>
        <time>2025-04-28T21:52:49.138Z</time>
      </trkpt>
      <trkpt lat="43.33474" lon="2.04573">
        <ele>189.399495</ele>
        <time>2025-04-28T21:52:53.190Z</time>
      </trkpt>
      <trkpt lat="43.33457" lon="2.04571">
        <ele>189.767103</ele>
        <time>2025-04-28T21:52:57.519Z</time>
      </trkpt>
      <trkpt lat="43.33409" lon="2.04574">
        <ele>190.838349</ele>
        <time>2025-04-28T21:53:10.048Z</time>
      </trkpt>
      <trkpt lat="43.33399" lon="2.04572">
        <ele>191.05767</ele>
        <time>2025-04-28T21:53:12.611Z</time>
      </trkpt>
      <trkpt lat="43.33377" lon="2.04555">
        <ele>191.610916</ele>
        <time>2025-04-28T21:53:19.048Z</time>
      </trkpt>
      <trkpt lat="43.33363" lon="2.04529">
        <ele>192.12742</ele>
        <time>2025-04-28T21:53:24.872Z</time>
      </trkpt>
      <trkpt lat="43.33358" lon="2.0454">
        <ele>192.16344</ele>
        <time>2025-04-28T21:53:27.109Z</time>
      </trkpt>
      <trkpt lat="43.33338" lon="2.0447">
        <ele>191.239396</ele>
        <time>2025-04-28T21:53:40.508Z</time>
      </trkpt>
      <trkpt lat="43.33338" lon="2.04459">
        <ele>191.105959</ele>
        <time>2025-04-28T21:53:42.310Z</time>
      </trkpt>
      <trkpt lat="43.33341" lon="2.04449">
        <ele>190.978796</ele>
        <time>2025-04-28T21:53:44.024Z</time>
      </trkpt>
      <trkpt lat="43.33304" lon="2.043">
        <ele>188.816779</ele>
        <time>2025-04-28T21:54:03.673Z</time>
      </trkpt>
      <trkpt lat="43.33293" lon="2.04254">
        <ele>187.307854</ele>
        <time>2025-04-28T21:54:09.253Z</time>
      </trkpt>
      <trkpt lat="43.33266" lon="2.04145">
        <ele>183.740059</ele>
        <time>2025-04-28T21:54:22.511Z</time>
      </trkpt>
      <trkpt lat="43.33194" lon="2.03856">
        <ele>176.290469</ele>
        <time>2025-04-28T21:55:00.176Z</time>
      </trkpt>
      <trkpt lat="43.33178" lon="2.03797">
        <ele>175.519826</ele>
        <time>2025-04-28T21:55:08.845Z</time>
      </trkpt>
      <trkpt lat="43.33169" lon="2.03731">
        <ele>174.891999</ele>
        <time>2025-04-28T21:55:18.551Z</time>
      </trkpt>
      <trkpt lat="43.33167" lon="2.03722">
        <ele>174.799435</ele>
        <time>2025-04-28T21:55:20.011Z</time>
      </trkpt>
      <trkpt lat="43.33165" lon="2.03698">
        <ele>174.577296</ele>
        <time>2025-04-28T21:55:23.546Z</time>
      </trkpt>
      <trkpt lat="43.33156" lon="2.03689">
        <ele>174.434312</ele>
        <time>2025-04-28T21:55:25.914Z</time>
      </trkpt>
      <trkpt lat="43.33155" lon="2.03666">
        <ele>174.21414</ele>
        <time>2025-04-28T21:55:29.517Z</time>
      </trkpt>
      <trkpt lat="43.33154" lon="2.0366">
        <ele>174.159527</ele>
        <time>2025-04-28T21:55:30.418Z</time>
      </trkpt>
      <trkpt lat="43.3315" lon="2.03644">
        <ele>174.005047</ele>
        <time>2025-04-28T21:55:32.914Z</time>
      </trkpt>
      <trkpt lat="43.3315" lon="2.0364">
        <ele>173.962379</ele>
        <time>2025-04-28T21:55:33.610Z</time>
      </trkpt>
      <trkpt lat="43.33144" lon="2.03609">
        <ele>173.661674</ele>
        <time>2025-04-28T21:55:38.371Z</time>
      </trkpt>
      <trkpt lat="43.33135" lon="2.03579">
        <ele>173.377864</ele>
        <time>2025-04-28T21:55:42.962Z</time>
      </trkpt>
      <trkpt lat="43.33133" lon="2.03567">
        <ele>173.268991</ele>
        <time>2025-04-28T21:55:44.756Z</time>
      </trkpt>
      <trkpt lat="43.33125" lon="2.0357">
        <ele>173.175736</ele>
        <time>2025-04-28T21:55:46.292Z</time>
      </trkpt>
      <trkpt lat="43.33116" lon="2.0353">
        <ele>172.81346</ele>
        <time>2025-04-28T21:55:52.346Z</time>
      </trkpt>
      <trkpt lat="43.3311" lon="2.03519">
        <ele>172.689048</ele>
        <time>2025-04-28T21:55:54.461Z</time>
      </trkpt>
      <trkpt lat="43.33099" lon="2.0351">
        <ele>172.539104</ele>
        <time>2025-04-28T21:55:56.973Z</time>
      </trkpt>
      <trkpt lat="43.33095" lon="2.03506">
        <ele>172.471342</ele>
        <time>2025-04-28T21:55:58.100Z</time>
      </trkpt>
      <trkpt lat="43.33088" lon="2.03499">
        <ele>172.373171</ele>
        <time>2025-04-28T21:55:59.755Z</time>
      </trkpt>
      <trkpt lat="43.33085" lon="2.03491">
        <ele>172.286101</ele>
        <time>2025-04-28T21:56:01.200Z</time>
      </trkpt>
      <trkpt lat="43.33084" lon="2.03483">
        <ele>172.213673</ele>
        <time>2025-04-28T21:56:02.757Z</time>
      </trkpt>
      <trkpt lat="43.33057" lon="2.03481">
        <ele>171.885775</ele>
        <time>2025-04-28T21:56:09.973Z</time>
      </trkpt>
      <trkpt lat="43.33055" lon="2.03444">
        <ele>171.559901</ele>
        <time>2025-04-28T21:56:17.100Z</time>
      </trkpt>
      <trkpt lat="43.33057" lon="2.03481">
        <ele>171.356233</ele>
        <time>2025-04-28T21:56:24.199Z</time>
      </trkpt>
      <trkpt lat="43.33084" lon="2.03483">
        <ele>171.182318</ele>
        <time>2025-04-28T21:56:31.455Z</time>
      </trkpt>
      <trkpt lat="43.33085" lon="2.03491">
        <ele>171.143903</ele>
        <time>2025-04-28T21:56:33.111Z</time>
      </trkpt>
      <trkpt lat="43.33039" lon="2.03479">
        <ele>170.842647</ele>
        <time>2025-04-28T21:56:42.918Z</time>
      </trkpt>
      <trkpt lat="43.3297" lon="2.03454">
        <ele>170.387375</ele>
        <time>2025-04-28T21:56:57.634Z</time>
      </trkpt>
      <trkpt lat="43.32938" lon="2.03443">
        <ele>170.318818</ele>
        <time>2025-04-28T21:57:04.127Z</time>
      </trkpt>
      <trkpt lat="43.32914" lon="2.03428">
        <ele>170.295175</ele>
        <time>2025-04-28T21:57:09.438Z</time>
      </trkpt>
      <trkpt lat="43.32906" lon="2.03417">
        <ele>170.284785</ele>
        <time>2025-04-28T21:57:11.794Z</time>
      </trkpt>
      <trkpt lat="43.32896" lon="2.03391">
        <ele>170.265768</ele>
        <time>2025-04-28T21:57:16.116Z</time>
      </trkpt>
      <trkpt lat="43.32891" lon="2.03358">
        <ele>170.244016</ele>
        <time>2025-04-28T21:57:21.134Z</time>
      </trkpt>
      <trkpt lat="43.32889" lon="2.03326">
        <ele>170.223202</ele>
        <time>2025-04-28T21:57:26.015Z</time>
      </trkpt>
      <trkpt lat="43.32887" lon="2.03261">
        <ele>170.18288</ele>
        <time>2025-04-28T21:57:36.849Z</time>
      </trkpt>
      <trkpt lat="43.32887" lon="2.03242">
        <ele>170.252115</ele>
        <time>2025-04-28T21:57:40.084Z</time>
      </trkpt>
      <trkpt lat="43.32885" lon="2.03211">
        <ele>170.371056</ele>
        <time>2025-04-28T21:57:45.850Z</time>
      </trkpt>
      <trkpt lat="43.32871" lon="2.03063">
        <ele>170.932751</ele>
        <time>2025-04-28T21:58:11.954Z</time>
      </trkpt>
      <trkpt lat="43.32869" lon="2.03041">
        <ele>171.015372</ele>
        <time>2025-04-28T21:58:15.183Z</time>
      </trkpt>
      <trkpt lat="43.32855" lon="2.02933">
        <ele>169.578706</ele>
        <time>2025-04-28T21:58:29.260Z</time>
      </trkpt>
      <trkpt lat="43.32848" lon="2.02896">
        <ele>168.893799</ele>
        <time>2025-04-28T21:58:33.755Z</time>
      </trkpt>
      <trkpt lat="43.32842" lon="2.02873">
        <ele>168.435611</ele>
        <time>2025-04-28T21:58:36.711Z</time>
      </trkpt>
      <trkpt lat="43.32838" lon="2.02861">
        <ele>168.202303</ele>
        <time>2025-04-28T21:58:38.240Z</time>
      </trkpt>
      <trkpt lat="43.32827" lon="2.02825">
        <ele>167.483724</ele>
        <time>2025-04-28T21:58:43.108Z</time>
      </trkpt>
      <trkpt lat="43.32783" lon="2.02675">
        <ele>167.046689</ele>
        <time>2025-04-28T21:59:06.951Z</time>
      </trkpt>
      <trkpt lat="43.32776" lon="2.02636">
        <ele>167.194205</ele>
        <time>2025-04-28T21:59:13.654Z</time>
      </trkpt>
      <trkpt lat="43.32764" lon="2.0252">
        <ele>167.977529</ele>
        <time>2025-04-28T21:59:34.872Z</time>
      </trkpt>
      <trkpt lat="43.32756" lon="2.02425">
        <ele>169.695554</ele>
        <time>2025-04-28T21:59:52.751Z</time>
      </trkpt>
      <trkpt lat="43.32738" lon="2.02322">
        <ele>171.613878</ele>
        <time>2025-04-28T22:00:12.749Z</time>
      </trkpt>
      <trkpt lat="43.3272" lon="2.02257">
        <ele>172.496752</ele>
        <time>2025-04-28T22:00:25.219Z</time>
      </trkpt>
      <trkpt lat="43.32693" lon="2.02204">
        <ele>173.170316</ele>
        <time>2025-04-28T22:00:36.550Z</time>
      </trkpt>
      <trkpt lat="43.32661" lon="2.02144">
        <ele>173.948141</ele>
        <time>2025-04-28T22:00:49.378Z</time>
      </trkpt>
      <trkpt lat="43.32627" lon="2.02089">
        <ele>174.644147</ele>
        <time>2025-04-28T22:01:01.536Z</time>
      </trkpt>
      <trkpt lat="43.32626" lon="2.02088">
        <ele>174.650738</ele>
        <time>2025-04-28T22:01:01.724Z</time>
      </trkpt>
      <trkpt lat="43.32478" lon="2.01923">
        <ele>176.028472</ele>
        <time>2025-04-28T22:01:45.556Z</time>
      </trkpt>
      <trkpt lat="43.32472" lon="2.01916">
        <ele>176.034081</ele>
        <time>2025-04-28T22:01:47.308Z</time>
      </trkpt>
      <trkpt lat="43.32443" lon="2.01885">
        <ele>176.060859</ele>
        <time>2025-04-28T22:01:55.631Z</time>
      </trkpt>
      <trkpt lat="43.32322" lon="2.01756">
        <ele>175.46213</ele>
        <time>2025-04-28T22:02:27.554Z</time>
      </trkpt>
      <trkpt lat="43.32221" lon="2.01632">
        <ele>173.063311</ele>
        <time>2025-04-28T22:02:52.394Z</time>
      </trkpt>
      <trkpt lat="43.32112" lon="2.01479">
        <ele>167.752234</ele>
        <time>2025-04-28T22:03:18.535Z</time>
      </trkpt>
      <trkpt lat="43.32051" lon="2.01414">
        <ele>165.075383</ele>
        <time>2025-04-28T22:03:31.319Z</time>
      </trkpt>
      <trkpt lat="43.32047" lon="2.01409">
        <ele>164.88693</ele>
        <time>2025-04-28T22:03:32.225Z</time>
      </trkpt>
      <trkpt lat="43.31829" lon="2.01211">
        <ele>156.214049</ele>
        <time>2025-04-28T22:04:16.398Z</time>
      </trkpt>
      <trkpt lat="43.31809" lon="2.0119">
        <ele>155.424359</ele>
        <time>2025-04-28T22:04:20.824Z</time>
      </trkpt>
      <trkpt lat="43.31799" lon="2.01172">
        <ele>154.924853</ele>
        <time>2025-04-28T22:04:23.650Z</time>
      </trkpt>
      <trkpt lat="43.31786" lon="2.01131">
        <ele>154.297311</ele>
        <time>2025-04-28T22:04:29.573Z</time>
      </trkpt>
      <trkpt lat="43.31754" lon="2.00849">
        <ele>150.944568</ele>
        <time>2025-04-28T22:05:09.239Z</time>
      </trkpt>
      <trkpt lat="43.31749" lon="2.00816">
        <ele>150.608901</ele>
        <time>2025-04-28T22:05:14.002Z</time>
      </trkpt>
      <trkpt lat="43.31738" lon="2.00783">
        <ele>150.248118</ele>
        <time>2025-04-28T22:05:19.109Z</time>
      </trkpt>
      <trkpt lat="43.31724" lon="2.00753">
        <ele>149.89487</ele>
        <time>2025-04-28T22:05:24.059Z</time>
      </trkpt>
      <trkpt lat="43.31695" lon="2.00709">
        <ele>149.297142</ele>
        <time>2025-04-28T22:05:32.398Z</time>
      </trkpt>
      <trkpt lat="43.31678" lon="2.00678">
        <ele>148.953814</ele>
        <time>2025-04-28T22:05:37.923Z</time>
      </trkpt>
      <trkpt lat="43.31667" lon="2.00651">
        <ele>148.696894</ele>
        <time>2025-04-28T22:05:42.179Z</time>
      </trkpt>
      <trkpt lat="43.3166" lon="2.0063">
        <ele>148.504462</ele>
        <time>2025-04-28T22:05:45.364Z</time>
      </trkpt>
      <trkpt lat="43.31634" lon="2.00549">
        <ele>147.764684</ele>
        <time>2025-04-28T22:05:57.840Z</time>
      </trkpt>
      <trkpt lat="43.31611" lon="2.00492">
        <ele>147.213415</ele>
        <time>2025-04-28T22:06:07.414Z</time>
      </trkpt>
      <trkpt lat="43.3156" lon="2.00401">
        <ele>147.177576</ele>
        <time>2025-04-28T22:06:24.764Z</time>
      </trkpt>
      <trkpt lat="43.31547" lon="2.00371">
        <ele>147.181788</ele>
        <time>2025-04-28T22:06:30.237Z</time>
      </trkpt>
      <trkpt lat="43.31538" lon="2.0031">
        <ele>147.189258</ele>
        <time>2025-04-28T22:06:40.217Z</time>
      </trkpt>
      <trkpt lat="43.31537" lon="2.00299">
        <ele>147.190632</ele>
        <time>2025-04-28T22:06:42.074Z</time>
      </trkpt>
      <trkpt lat="43.31537" lon="2.00285">
        <ele>147.192283</ele>
        <time>2025-04-28T22:06:44.317Z</time>
      </trkpt>
      <trkpt lat="43.31535" lon="2.00243">
        <ele>147.356101</ele>
        <time>2025-04-28T22:06:51.184Z</time>
      </trkpt>
      <trkpt lat="43.3153" lon="2.00141">
        <ele>147.99403</ele>
        <time>2025-04-28T22:07:07.710Z</time>
      </trkpt>
      <trkpt lat="43.31526" lon="2.00094">
        <ele>148.292165</ele>
        <time>2025-04-28T22:07:15.686Z</time>
      </trkpt>
      <trkpt lat="43.31518" lon="2.00037">
        <ele>148.656965</ele>
        <time>2025-04-28T22:07:25.677Z</time>
      </trkpt>
      <trkpt lat="43.31482" lon="1.99802">
        <ele>151.91733</ele>
        <time>2025-04-28T22:08:08.669Z</time>
      </trkpt>
      <trkpt lat="43.31471" lon="1.99667">
        <ele>154.09516</ele>
        <time>2025-04-28T22:08:33.667Z</time>
      </trkpt>
      <trkpt lat="43.31469" lon="1.99559">
        <ele>155.858477</ele>
        <time>2025-04-28T22:08:53.499Z</time>
      </trkpt>
      <trkpt lat="43.31465" lon="1.99521">
        <ele>156.401175</ele>
        <time>2025-04-28T22:09:00.615Z</time>
      </trkpt>
      <trkpt lat="43.31454" lon="1.99463">
        <ele>156.978216</ele>
        <time>2025-04-28T22:09:11.172Z</time>
      </trkpt>
      <trkpt lat="43.31448" lon="1.99271">
        <ele>158.732125</ele>
        <time>2025-04-28T22:09:43.928Z</time>
      </trkpt>
      <trkpt lat="43.31446" lon="1.99256">
        <ele>158.773677</ele>
        <time>2025-04-28T22:09:46.346Z</time>
      </trkpt>
      <trkpt lat="43.31443" lon="1.99227">
        <ele>158.857672</ele>
        <time>2025-04-28T22:09:51.247Z</time>
      </trkpt>
      <trkpt lat="43.31438" lon="1.99153">
        <ele>159.065686</ele>
        <time>2025-04-28T22:10:03.372Z</time>
      </trkpt>
      <trkpt lat="43.3144" lon="1.99118">
        <ele>159.16506</ele>
        <time>2025-04-28T22:10:09.112Z</time>
      </trkpt>
      <trkpt lat="43.31465" lon="1.99015">
        <ele>158.848892</ele>
        <time>2025-04-28T22:10:25.788Z</time>
      </trkpt>
      <trkpt lat="43.3147" lon="1.98986">
        <ele>158.4019</ele>
        <time>2025-04-28T22:10:30.040Z</time>
      </trkpt>
      <trkpt lat="43.31472" lon="1.9896">
        <ele>157.98974</ele>
        <time>2025-04-28T22:10:33.793Z</time>
      </trkpt>
      <trkpt lat="43.31467" lon="1.98869">
        <ele>156.596455</ele>
        <time>2025-04-28T22:10:45.579Z</time>
      </trkpt>
      <trkpt lat="43.31467" lon="1.98824">
        <ele>155.904249</ele>
        <time>2025-04-28T22:10:51.099Z</time>
      </trkpt>
      <trkpt lat="43.31478" lon="1.98752">
        <ele>154.612095</ele>
        <time>2025-04-28T22:10:59.838Z</time>
      </trkpt>
      <trkpt lat="43.31504" lon="1.98641">
        <ele>152.420782</ele>
        <time>2025-04-28T22:11:14.457Z</time>
      </trkpt>
      <trkpt lat="43.31529" lon="1.98533">
        <ele>150.945977</ele>
        <time>2025-04-28T22:11:30.730Z</time>
      </trkpt>
      <trkpt lat="43.31554" lon="1.98444">
        <ele>150.874989</ele>
        <time>2025-04-28T22:11:45.364Z</time>
      </trkpt>
      <trkpt lat="43.316" lon="1.98297">
        <ele>151.183217</ele>
        <time>2025-04-28T22:12:10.617Z</time>
      </trkpt>
      <trkpt lat="43.31644" lon="1.98173">
        <ele>152.443432</ele>
        <time>2025-04-28T22:12:34.211Z</time>
      </trkpt>
      <trkpt lat="43.31713" lon="1.97969">
        <ele>155.357544</ele>
        <time>2025-04-28T22:13:15.514Z</time>
      </trkpt>
      <trkpt lat="43.31722" lon="1.97946">
        <ele>155.752659</ele>
        <time>2025-04-28T22:13:20.409Z</time>
      </trkpt>
      <trkpt lat="43.31735" lon="1.97924">
        <ele>156.15774</ele>
        <time>2025-04-28T22:13:25.357Z</time>
      </trkpt>
      <trkpt lat="43.31773" lon="1.97874">
        <ele>156.628099</ele>
        <time>2025-04-28T22:13:37.865Z</time>
      </trkpt>
      <trkpt lat="43.31831" lon="1.97805">
        <ele>156.585294</ele>
        <time>2025-04-28T22:13:54.007Z</time>
      </trkpt>
      <trkpt lat="43.31847" lon="1.97782">
        <ele>156.572289</ele>
        <time>2025-04-28T22:13:58.709Z</time>
      </trkpt>
      <trkpt lat="43.31859" lon="1.97758">
        <ele>156.560768</ele>
        <time>2025-04-28T22:14:02.829Z</time>
      </trkpt>
      <trkpt lat="43.31881" lon="1.97701">
        <ele>156.495148</ele>
        <time>2025-04-28T22:14:12.176Z</time>
      </trkpt>
      <trkpt lat="43.31906" lon="1.97623">
        <ele>156.308739</ele>
        <time>2025-04-28T22:14:24.964Z</time>
      </trkpt>
      <trkpt lat="43.31916" lon="1.97602">
        <ele>156.252201</ele>
        <time>2025-04-28T22:14:28.923Z</time>
      </trkpt>
      <trkpt lat="43.3193" lon="1.97587">
        <ele>156.198886</ele>
        <time>2025-04-28T22:14:32.750Z</time>
      </trkpt>
      <trkpt lat="43.31997" lon="1.97574">
        <ele>155.999877</ele>
        <time>2025-04-28T22:14:46.874Z</time>
      </trkpt>
      <trkpt lat="43.32002" lon="1.9757">
        <ele>155.98799</ele>
        <time>2025-04-28T22:14:48.174Z</time>
      </trkpt>
      <trkpt lat="43.32009" lon="1.97565">
        <ele>155.973304</ele>
        <time>2025-04-28T22:14:49.767Z</time>
      </trkpt>
      <trkpt lat="43.32013" lon="1.97559">
        <ele>155.961583</ele>
        <time>2025-04-28T22:14:51.033Z</time>
      </trkpt>
      <trkpt lat="43.3202" lon="1.97546">
        <ele>155.938948</ele>
        <time>2025-04-28T22:14:53.479Z</time>
      </trkpt>
      <trkpt lat="43.32023" lon="1.97529">
        <ele>155.914154</ele>
        <time>2025-04-28T22:14:56.152Z</time>
      </trkpt>
      <trkpt lat="43.32018" lon="1.9751">
        <ele>155.885355</ele>
        <time>2025-04-28T22:14:59.235Z</time>
      </trkpt>
      <trkpt lat="43.32009" lon="1.97491">
        <ele>155.853211</ele>
        <time>2025-04-28T22:15:02.691Z</time>
      </trkpt>
      <trkpt lat="43.31954" lon="1.97399">
        <ele>155.687735</ele>
        <time>2025-04-28T22:15:20.482Z</time>
      </trkpt>
      <trkpt lat="43.31942" lon="1.97368">
        <ele>155.690298</ele>
        <time>2025-04-28T22:15:26.085Z</time>
      </trkpt>
      <trkpt lat="43.31897" lon="1.97219">
        <ele>156.037671</ele>
        <time>2025-04-28T22:15:52.441Z</time>
      </trkpt>
      <trkpt lat="43.31843" lon="1.97097">
        <ele>155.821732</ele>
        <time>2025-04-28T22:16:14.791Z</time>
      </trkpt>
      <trkpt lat="43.31819" lon="1.97022">
        <ele>155.398745</ele>
        <time>2025-04-28T22:16:26.718Z</time>
      </trkpt>
      <trkpt lat="43.3179" lon="1.96931">
        <ele>154.870085</ele>
        <time>2025-04-28T22:16:40.822Z</time>
      </trkpt>
      <trkpt lat="43.31779" lon="1.96898">
        <ele>154.596072</ele>
        <time>2025-04-28T22:16:46.050Z</time>
      </trkpt>
      <trkpt lat="43.31769" lon="1.96873">
        <ele>154.380334</ele>
        <time>2025-04-28T22:16:50.122Z</time>
      </trkpt>
      <trkpt lat="43.31753" lon="1.96829">
        <ele>154.010773</ele>
        <time>2025-04-28T22:16:56.996Z</time>
      </trkpt>
      <trkpt lat="43.31762" lon="1.96824">
        <ele>153.91169</ele>
        <time>2025-04-28T22:16:58.861Z</time>
      </trkpt>
      <trkpt lat="43.31768" lon="1.96816">
        <ele>153.822003</ele>
        <time>2025-04-28T22:17:00.547Z</time>
      </trkpt>
      <trkpt lat="43.31774" lon="1.96794">
        <ele>153.643741</ele>
        <time>2025-04-28T22:17:03.940Z</time>
      </trkpt>
      <trkpt lat="43.3177" lon="1.9677">
        <ele>153.458408</ele>
        <time>2025-04-28T22:17:07.526Z</time>
      </trkpt>
      <trkpt lat="43.31759" lon="1.96754">
        <ele>153.290911</ele>
        <time>2025-04-28T22:17:10.795Z</time>
      </trkpt>
      <trkpt lat="43.31743" lon="1.96748">
        <ele>153.118717</ele>
        <time>2025-04-28T22:17:14.236Z</time>
      </trkpt>
      <trkpt lat="43.31726" lon="1.96755">
        <ele>153.053316</ele>
        <time>2025-04-28T22:17:17.735Z</time>
      </trkpt>
      <trkpt lat="43.31715" lon="1.96734">
        <ele>153.057085</ele>
        <time>2025-04-28T22:17:21.663Z</time>
      </trkpt>
      <trkpt lat="43.31694" lon="1.96687">
        <ele>153.065146</ele>
        <time>2025-04-28T22:17:30.006Z</time>
      </trkpt>
      <trkpt lat="43.31706" lon="1.96673">
        <ele>153.068249</ele>
        <time>2025-04-28T22:17:33.361Z</time>
      </trkpt>
      <trkpt lat="43.31712" lon="1.96657">
        <ele>153.070925</ele>
        <time>2025-04-28T22:17:36.266Z</time>
      </trkpt>
      <trkpt lat="43.31714" lon="1.96652">
        <ele>153.071808</ele>
        <time>2025-04-28T22:17:37.238Z</time>
      </trkpt>
      <trkpt lat="43.31772" lon="1.96489">
        <ele>153.936873</ele>
        <time>2025-04-28T22:18:07.908Z</time>
      </trkpt>
      <trkpt lat="43.31786" lon="1.96453">
        <ele>154.397511</ele>
        <time>2025-04-28T22:18:15.039Z</time>
      </trkpt>
      <trkpt lat="43.31812" lon="1.96387">
        <ele>155.24602</ele>
        <time>2025-04-28T22:18:28.560Z</time>
      </trkpt>
      <trkpt lat="43.31827" lon="1.96367">
        <ele>155.574584</ele>
        <time>2025-04-28T22:18:34.011Z</time>
      </trkpt>
      <trkpt lat="43.31828" lon="1.9636">
        <ele>155.655683</ele>
        <time>2025-04-28T22:18:35.379Z</time>
      </trkpt>
      <trkpt lat="43.31825" lon="1.96328">
        <ele>156.234713</ele>
        <time>2025-04-28T22:18:41.627Z</time>
      </trkpt>
      <trkpt lat="43.31831" lon="1.96313">
        <ele>156.751279</ele>
        <time>2025-04-28T22:18:45.100Z</time>
      </trkpt>
      <trkpt lat="43.31839" lon="1.963">
        <ele>157.242888</ele>
        <time>2025-04-28T22:18:48.414Z</time>
      </trkpt>
      <trkpt lat="43.31862" lon="1.96243">
        <ele>159.182509</ele>
        <time>2025-04-28T22:19:01.835Z</time>
      </trkpt>
      <trkpt lat="43.31878" lon="1.96202">
        <ele>160.52775</ele>
        <time>2025-04-28T22:19:11.484Z</time>
      </trkpt>
      <trkpt lat="43.31932" lon="1.96074">
        <ele>165.277679</ele>
        <time>2025-04-28T22:19:43.513Z</time>
      </trkpt>
      <trkpt lat="43.31958" lon="1.96014">
        <ele>167.857355</ele>
        <time>2025-04-28T22:19:58.836Z</time>
      </trkpt>
      <trkpt lat="43.31998" lon="1.95933">
        <ele>171.422298</ele>
        <time>2025-04-28T22:20:20.539Z</time>
      </trkpt>
      <trkpt lat="43.32056" lon="1.95814">
        <ele>177.016388</ele>
        <time>2025-04-28T22:20:52.354Z</time>
      </trkpt>
      <trkpt lat="43.32039" lon="1.95794">
        <ele>178.235144</ele>
        <time>2025-04-28T22:20:59.067Z</time>
      </trkpt>
      <trkpt lat="43.32033" lon="1.95787">
        <ele>178.678277</ele>
        <time>2025-04-28T22:21:01.603Z</time>
      </trkpt>
      <trkpt lat="43.32017" lon="1.95763">
        <ele>179.95764</ele>
        <time>2025-04-28T22:21:09.080Z</time>
      </trkpt>
      <trkpt lat="43.31993" lon="1.9573">
        <ele>181.790676</ele>
        <time>2025-04-28T22:21:19.758Z</time>
      </trkpt>
      <trkpt lat="43.31963" lon="1.95702">
        <ele>183.568194</ele>
        <time>2025-04-28T22:21:31.132Z</time>
      </trkpt>
      <trkpt lat="43.31956" lon="1.95699">
        <ele>183.923434</ele>
        <time>2025-04-28T22:21:33.397Z</time>
      </trkpt>
      <trkpt lat="43.31943" lon="1.95694">
        <ele>184.597565</ele>
        <time>2025-04-28T22:21:37.776Z</time>
      </trkpt>
      <trkpt lat="43.31941" lon="1.95694">
        <ele>184.666241</ele>
        <time>2025-04-28T22:21:38.229Z</time>
      </trkpt>
      <trkpt lat="43.31921" lon="1.9569">
        <ele>185.646335</ele>
        <time>2025-04-28T22:21:44.635Z</time>
      </trkpt>
      <trkpt lat="43.3191" lon="1.95688">
        <ele>186.199497</ele>
        <time>2025-04-28T22:21:48.149Z</time>
      </trkpt>
      <trkpt lat="43.31881" lon="1.95678">
        <ele>187.624778</ele>
        <time>2025-04-28T22:21:57.255Z</time>
      </trkpt>
      <trkpt lat="43.31874" lon="1.95673">
        <ele>188.026008</ele>
        <time>2025-04-28T22:21:59.821Z</time>
      </trkpt>
      <trkpt lat="43.31848" lon="1.95627">
        <ele>190.088163</ele>
        <time>2025-04-28T22:22:12.124Z</time>
      </trkpt>
      <trkpt lat="43.31888" lon="1.95612">
        <ele>190.300475</ele>
        <time>2025-04-28T22:22:22.262Z</time>
      </trkpt>
      <trkpt lat="43.31892" lon="1.9561">
        <ele>190.255578</ele>
        <time>2025-04-28T22:22:23.117Z</time>
      </trkpt>
      <trkpt lat="43.31902" lon="1.95605">
        <ele>190.126592</ele>
        <time>2025-04-28T22:22:25.550Z</time>
      </trkpt>
      <trkpt lat="43.31941" lon="1.95576">
        <ele>189.600663</ele>
        <time>2025-04-28T22:22:34.466Z</time>
      </trkpt>
      <trkpt lat="43.31942" lon="1.95574">
        <ele>189.579507</ele>
        <time>2025-04-28T22:22:34.794Z</time>
      </trkpt>
      <trkpt lat="43.3192" lon="1.95536">
        <ele>189.165218</ele>
        <time>2025-04-28T22:22:41.059Z</time>
      </trkpt>
      <trkpt lat="43.31891" lon="1.95497">
        <ele>188.675668</ele>
        <time>2025-04-28T22:22:48.372Z</time>
      </trkpt>
      <trkpt lat="43.31853" lon="1.95464">
        <ele>188.511037</ele>
        <time>2025-04-28T22:22:58.583Z</time>
      </trkpt>
      <trkpt lat="43.31832" lon="1.95454">
        <ele>188.511037</ele>
        <time>2025-04-28T22:23:03.566Z</time>
      </trkpt>
      <trkpt lat="43.31859" lon="1.95421">
        <ele>188.511037</ele>
        <time>2025-04-28T22:23:09.502Z</time>
      </trkpt>
      <trkpt lat="43.31873" lon="1.95402">
        <ele>188.511037</ele>
        <time>2025-04-28T22:23:12.788Z</time>
      </trkpt>
      <trkpt lat="43.31859" lon="1.95387">
        <ele>188.511037</ele>
        <time>2025-04-28T22:23:15.788Z</time>
      </trkpt>
      <trkpt lat="43.31839" lon="1.95367">
        <ele>188.511037</ele>
        <time>2025-04-28T22:23:20.068Z</time>
      </trkpt>
      <trkpt lat="43.31836" lon="1.95363">
        <ele>188.511037</ele>
        <time>2025-04-28T22:23:20.817Z</time>
      </trkpt>
      <trkpt lat="43.31788" lon="1.95314">
        <ele>188.511037</ele>
        <time>2025-04-28T22:23:31.555Z</time>
      </trkpt>
      <trkpt lat="43.31785" lon="1.95311">
        <ele>188.511037</ele>
        <time>2025-04-28T22:23:32.273Z</time>
      </trkpt>
      <trkpt lat="43.31789" lon="1.95303">
        <ele>188.511037</ele>
        <time>2025-04-28T22:23:37.418Z</time>
      </trkpt>
      <trkpt lat="43.31771" lon="1.95284">
        <ele>188.511037</ele>
        <time>2025-04-28T22:23:53.067Z</time>
      </trkpt>
    </trkseg>
  </trk>
</gpx>